<?xml version="1.0" encoding="UTF-8" standalone="no" ?><gpx xmlns="http://www.topografix.com/GPX/1/1" xmlns:gpxx="http://www.garmin.com/xmlschemas/GpxExtensions/v3" xmlns:wptx1="http://www.garmin.com/xmlschemas/WaypointExtension/v1" xmlns:gpxtpx="http://www.garmin.com/xmlschemas/TrackPointExtension/v1" creator="GuideVTT.com" version="1.1" xmlns:xsi="http://www.w3.org/2001/XMLSchema-instance" xsi:schemaLocation="http://www.topografix.com/GPX/1/1 http://www.topografix.com/GPX/1/1/gpx.xsd http://www.garmin.com/xmlschemas/GpxExtensions/v3 http://www8.garmin.com/xmlschemas/GpxExtensionsv3.xsd http://www.garmin.com/xmlschemas/WaypointExtension/v1 http://www8.garmin.com/xmlschemas/WaypointExtensionv1.xsd http://www.garmin.com/xmlschemas/TrackPointExtension/v1 http://www.garmin.com/xmlschemas/TrackPointExtensionv1.xsd">
<metadata><link href="http://www.garmin.com"><text>Garmin International</text></link><time>2013-06-22T15:13:50Z</time></metadata>
<trk><name>2022-05-01_1046__20220501_1046.gpx</name><extensions><gpxx:TrackExtension><gpxx:DisplayColor>Cyan</gpxx:DisplayColor></gpxx:TrackExtension></extensions><trkseg>
<trkpt lat="48.8864464" lon="2.6278380"><ele></ele><time>2025-2-28T3:33:54Z</time></trkpt>
<trkpt lat="48.8866365" lon="2.6279218"><ele></ele><time>2025-2-28T3:33:57Z</time></trkpt>
<trkpt lat="48.8868169" lon="2.6277690"><ele></ele><time>2025-2-28T3:34:0Z</time></trkpt>
<trkpt lat="48.8869700" lon="2.6275881"><ele></ele><time>2025-2-28T3:34:3Z</time></trkpt>
<trkpt lat="48.8871443" lon="2.6273825"><ele></ele><time>2025-2-28T3:34:6Z</time></trkpt>
<trkpt lat="48.8873049" lon="2.6271821"><ele></ele><time>2025-2-28T3:34:9Z</time></trkpt>
<trkpt lat="48.8874860" lon="2.6269860"><ele></ele><time>2025-2-28T3:34:12Z</time></trkpt>
<trkpt lat="48.8876642" lon="2.6268654"><ele></ele><time>2025-2-28T3:34:15Z</time></trkpt>
<trkpt lat="48.8878293" lon="2.6270486"><ele></ele><time>2025-2-28T3:34:18Z</time></trkpt>
<trkpt lat="48.8879556" lon="2.6272578"><ele></ele><time>2025-2-28T3:34:21Z</time></trkpt>
<trkpt lat="48.8880908" lon="2.6275086"><ele></ele><time>2025-2-28T3:34:24Z</time></trkpt>
<trkpt lat="48.8882205" lon="2.6277359"><ele></ele><time>2025-2-28T3:34:27Z</time></trkpt>
<trkpt lat="48.8883646" lon="2.6279821"><ele></ele><time>2025-2-28T3:34:30Z</time></trkpt>
<trkpt lat="48.8885030" lon="2.6282353"><ele></ele><time>2025-2-28T3:34:33Z</time></trkpt>
<trkpt lat="48.8886269" lon="2.6284666"><ele></ele><time>2025-2-28T3:34:36Z</time></trkpt>
<trkpt lat="48.8887466" lon="2.6287339"><ele></ele><time>2025-2-28T3:34:39Z</time></trkpt>
<trkpt lat="48.8888629" lon="2.6289455"><ele></ele><time>2025-2-28T3:34:42Z</time></trkpt>
<trkpt lat="48.8889782" lon="2.6291645"><ele></ele><time>2025-2-28T3:34:45Z</time></trkpt>
<trkpt lat="48.8890976" lon="2.6293743"><ele></ele><time>2025-2-28T3:34:48Z</time></trkpt>
<trkpt lat="48.8892197" lon="2.6296008"><ele></ele><time>2025-2-28T3:34:51Z</time></trkpt>
<trkpt lat="48.8893373" lon="2.6298405"><ele></ele><time>2025-2-28T3:34:54Z</time></trkpt>
<trkpt lat="48.8894556" lon="2.6300554"><ele></ele><time>2025-2-28T3:34:57Z</time></trkpt>
<trkpt lat="48.8895802" lon="2.6302737"><ele></ele><time>2025-2-28T3:35:0Z</time></trkpt>
<trkpt lat="48.8897030" lon="2.6304967"><ele></ele><time>2025-2-28T3:35:3Z</time></trkpt>
<trkpt lat="48.8898311" lon="2.6307116"><ele></ele><time>2025-2-28T3:35:6Z</time></trkpt>
<trkpt lat="48.8899556" lon="2.6309244"><ele></ele><time>2025-2-28T3:35:9Z</time></trkpt>
<trkpt lat="48.8900795" lon="2.6311420"><ele></ele><time>2025-2-28T3:35:12Z</time></trkpt>
<trkpt lat="48.8902284" lon="2.6314219"><ele></ele><time>2025-2-28T3:35:15Z</time></trkpt>
<trkpt lat="48.8903732" lon="2.6316865"><ele></ele><time>2025-2-28T3:35:18Z</time></trkpt>
<trkpt lat="48.8904880" lon="2.6319423"><ele></ele><time>2025-2-28T3:35:21Z</time></trkpt>
<trkpt lat="48.8905985" lon="2.6321925"><ele></ele><time>2025-2-28T3:35:24Z</time></trkpt>
<trkpt lat="48.8907042" lon="2.6324293"><ele></ele><time>2025-2-28T3:35:27Z</time></trkpt>
<trkpt lat="48.8907770" lon="2.6327150"><ele></ele><time>2025-2-28T3:35:30Z</time></trkpt>
<trkpt lat="48.8908512" lon="2.6329798"><ele></ele><time>2025-2-28T3:35:33Z</time></trkpt>
<trkpt lat="48.8909789" lon="2.6332506"><ele></ele><time>2025-2-28T3:35:36Z</time></trkpt>
<trkpt lat="48.8911060" lon="2.6334822"><ele></ele><time>2025-2-28T3:35:39Z</time></trkpt>
<trkpt lat="48.8912737" lon="2.6337083"><ele></ele><time>2025-2-28T3:35:42Z</time></trkpt>
<trkpt lat="48.8914041" lon="2.6339613"><ele></ele><time>2025-2-28T3:35:45Z</time></trkpt>
<trkpt lat="48.8915098" lon="2.6342450"><ele></ele><time>2025-2-28T3:35:48Z</time></trkpt>
<trkpt lat="48.8915943" lon="2.6345093"><ele></ele><time>2025-2-28T3:35:51Z</time></trkpt>
<trkpt lat="48.8917347" lon="2.6347035"><ele></ele><time>2025-2-28T3:35:54Z</time></trkpt>
<trkpt lat="48.8918210" lon="2.6350387"><ele></ele><time>2025-2-28T3:35:57Z</time></trkpt>
<trkpt lat="48.8919337" lon="2.6352551"><ele></ele><time>2025-2-28T3:36:0Z</time></trkpt>
<trkpt lat="48.8920534" lon="2.6354747"><ele></ele><time>2025-2-28T3:36:3Z</time></trkpt>
<trkpt lat="48.8922011" lon="2.6356941"><ele></ele><time>2025-2-28T3:36:6Z</time></trkpt>
<trkpt lat="48.8922875" lon="2.6359409"><ele></ele><time>2025-2-28T3:36:9Z</time></trkpt>
<trkpt lat="48.8923458" lon="2.6362527"><ele></ele><time>2025-2-28T3:36:12Z</time></trkpt>
<trkpt lat="48.8924810" lon="2.6364968"><ele></ele><time>2025-2-28T3:36:15Z</time></trkpt>
<trkpt lat="48.8925595" lon="2.6367907"><ele></ele><time>2025-2-28T3:36:18Z</time></trkpt>
<trkpt lat="48.8926766" lon="2.6370323"><ele></ele><time>2025-2-28T3:36:21Z</time></trkpt>
<trkpt lat="48.8927902" lon="2.6372768"><ele></ele><time>2025-2-28T3:36:24Z</time></trkpt>
<trkpt lat="48.8929349" lon="2.6375283"><ele></ele><time>2025-2-28T3:36:27Z</time></trkpt>
<trkpt lat="48.8930429" lon="2.6378138"><ele></ele><time>2025-2-28T3:36:30Z</time></trkpt>
<trkpt lat="48.8931453" lon="2.6380615"><ele></ele><time>2025-2-28T3:36:33Z</time></trkpt>
<trkpt lat="48.8932597" lon="2.6382790"><ele></ele><time>2025-2-28T3:36:36Z</time></trkpt>
<trkpt lat="48.8933839" lon="2.6384823"><ele></ele><time>2025-2-28T3:36:39Z</time></trkpt>
<trkpt lat="48.8935723" lon="2.6386154"><ele></ele><time>2025-2-28T3:36:42Z</time></trkpt>
<trkpt lat="48.8937874" lon="2.6385846"><ele></ele><time>2025-2-28T3:36:45Z</time></trkpt>
<trkpt lat="48.8939763" lon="2.6385627"><ele></ele><time>2025-2-28T3:36:48Z</time></trkpt>
<trkpt lat="48.8941464" lon="2.6386663"><ele></ele><time>2025-2-28T3:36:51Z</time></trkpt>
<trkpt lat="48.8942701" lon="2.6388866"><ele></ele><time>2025-2-28T3:36:54Z</time></trkpt>
<trkpt lat="48.8944295" lon="2.6391315"><ele></ele><time>2025-2-28T3:36:57Z</time></trkpt>
<trkpt lat="48.8945485" lon="2.6393505"><ele></ele><time>2025-2-28T3:37:0Z</time></trkpt>
<trkpt lat="48.8946348" lon="2.6396025"><ele></ele><time>2025-2-28T3:37:3Z</time></trkpt>
<trkpt lat="48.8947800" lon="2.6398227"><ele></ele><time>2025-2-28T3:37:6Z</time></trkpt>
<trkpt lat="48.8949026" lon="2.6401003"><ele></ele><time>2025-2-28T3:37:9Z</time></trkpt>
<trkpt lat="48.8950429" lon="2.6403339"><ele></ele><time>2025-2-28T3:37:12Z</time></trkpt>
<trkpt lat="48.8951899" lon="2.6405163"><ele></ele><time>2025-2-28T3:37:15Z</time></trkpt>
<trkpt lat="48.8953297" lon="2.6407337"><ele></ele><time>2025-2-28T3:37:18Z</time></trkpt>
<trkpt lat="48.8954612" lon="2.6410009"><ele></ele><time>2025-2-28T3:37:21Z</time></trkpt>
<trkpt lat="48.8955431" lon="2.6412611"><ele></ele><time>2025-2-28T3:37:24Z</time></trkpt>
<trkpt lat="48.8957318" lon="2.6413945"><ele></ele><time>2025-2-28T3:37:27Z</time></trkpt>
<trkpt lat="48.8958519" lon="2.6416585"><ele></ele><time>2025-2-28T3:37:30Z</time></trkpt>
<trkpt lat="48.8959276" lon="2.6419128"><ele></ele><time>2025-2-28T3:37:33Z</time></trkpt>
<trkpt lat="48.8960292" lon="2.6421832"><ele></ele><time>2025-2-28T3:37:36Z</time></trkpt>
<trkpt lat="48.8961492" lon="2.6424931"><ele></ele><time>2025-2-28T3:37:39Z</time></trkpt>
<trkpt lat="48.8962880" lon="2.6426887"><ele></ele><time>2025-2-28T3:37:42Z</time></trkpt>
<trkpt lat="48.8963763" lon="2.6429353"><ele></ele><time>2025-2-28T3:37:45Z</time></trkpt>
<trkpt lat="48.8965540" lon="2.6430993"><ele></ele><time>2025-2-28T3:37:48Z</time></trkpt>
<trkpt lat="48.8965144" lon="2.6434117"><ele></ele><time>2025-2-28T3:37:51Z</time></trkpt>
<trkpt lat="48.8966077" lon="2.6436506"><ele></ele><time>2025-2-28T3:37:54Z</time></trkpt>
<trkpt lat="48.8967006" lon="2.6439005"><ele></ele><time>2025-2-28T3:37:57Z</time></trkpt>
<trkpt lat="48.8969214" lon="2.6440115"><ele></ele><time>2025-2-28T3:38:0Z</time></trkpt>
<trkpt lat="48.8970516" lon="2.6442021"><ele></ele><time>2025-2-28T3:38:3Z</time></trkpt>
<trkpt lat="48.8971418" lon="2.6444526"><ele></ele><time>2025-2-28T3:38:6Z</time></trkpt>
<trkpt lat="48.8972933" lon="2.6447096"><ele></ele><time>2025-2-28T3:38:9Z</time></trkpt>
<trkpt lat="48.8973754" lon="2.6449813"><ele></ele><time>2025-2-28T3:38:12Z</time></trkpt>
<trkpt lat="48.8974024" lon="2.6453078"><ele></ele><time>2025-2-28T3:38:15Z</time></trkpt>
<trkpt lat="48.8975018" lon="2.6455678"><ele></ele><time>2025-2-28T3:38:18Z</time></trkpt>
<trkpt lat="48.8975955" lon="2.6458385"><ele></ele><time>2025-2-28T3:38:21Z</time></trkpt>
<trkpt lat="48.8976015" lon="2.6461443"><ele></ele><time>2025-2-28T3:38:24Z</time></trkpt>
<trkpt lat="48.8977576" lon="2.6463306"><ele></ele><time>2025-2-28T3:38:27Z</time></trkpt>
<trkpt lat="48.8979001" lon="2.6465420"><ele></ele><time>2025-2-28T3:38:30Z</time></trkpt>
<trkpt lat="48.8980484" lon="2.6467479"><ele></ele><time>2025-2-28T3:38:33Z</time></trkpt>
<trkpt lat="48.8982062" lon="2.6468823"><ele></ele><time>2025-2-28T3:38:36Z</time></trkpt>
<trkpt lat="48.8983862" lon="2.6470827"><ele></ele><time>2025-2-28T3:38:39Z</time></trkpt>
<trkpt lat="48.8985742" lon="2.6472796"><ele></ele><time>2025-2-28T3:38:42Z</time></trkpt>
<trkpt lat="48.8987504" lon="2.6474957"><ele></ele><time>2025-2-28T3:38:45Z</time></trkpt>
<trkpt lat="48.8989352" lon="2.6477056"><ele></ele><time>2025-2-28T3:38:48Z</time></trkpt>
<trkpt lat="48.8991283" lon="2.6478702"><ele></ele><time>2025-2-28T3:38:51Z</time></trkpt>
<trkpt lat="48.8993220" lon="2.6480243"><ele></ele><time>2025-2-28T3:38:54Z</time></trkpt>
<trkpt lat="48.8995053" lon="2.6481058"><ele></ele><time>2025-2-28T3:38:57Z</time></trkpt>
<trkpt lat="48.8996970" lon="2.6481073"><ele></ele><time>2025-2-28T3:39:0Z</time></trkpt>
<trkpt lat="48.8998895" lon="2.6481289"><ele></ele><time>2025-2-28T3:39:3Z</time></trkpt>
<trkpt lat="48.9001096" lon="2.6481595"><ele></ele><time>2025-2-28T3:39:6Z</time></trkpt>
<trkpt lat="48.9003302" lon="2.6481799"><ele></ele><time>2025-2-28T3:39:9Z</time></trkpt>
<trkpt lat="48.9005378" lon="2.6482011"><ele></ele><time>2025-2-28T3:39:12Z</time></trkpt>
<trkpt lat="48.9007441" lon="2.6482487"><ele></ele><time>2025-2-28T3:39:15Z</time></trkpt>
<trkpt lat="48.9009605" lon="2.6483457"><ele></ele><time>2025-2-28T3:39:18Z</time></trkpt>
<trkpt lat="48.9011491" lon="2.6484337"><ele></ele><time>2025-2-28T3:39:21Z</time></trkpt>
<trkpt lat="48.9013123" lon="2.6486036"><ele></ele><time>2025-2-28T3:39:24Z</time></trkpt>
<trkpt lat="48.9014306" lon="2.6488244"><ele></ele><time>2025-2-28T3:39:27Z</time></trkpt>
<trkpt lat="48.9016145" lon="2.6488979"><ele></ele><time>2025-2-28T3:39:30Z</time></trkpt>
<trkpt lat="48.9017565" lon="2.6490783"><ele></ele><time>2025-2-28T3:39:33Z</time></trkpt>
<trkpt lat="48.9019129" lon="2.6493028"><ele></ele><time>2025-2-28T3:39:36Z</time></trkpt>
<trkpt lat="48.9020569" lon="2.6494704"><ele></ele><time>2025-2-28T3:39:39Z</time></trkpt>
<trkpt lat="48.9022437" lon="2.6496443"><ele></ele><time>2025-2-28T3:39:42Z</time></trkpt>
<trkpt lat="48.9023947" lon="2.6497931"><ele></ele><time>2025-2-28T3:39:45Z</time></trkpt>
<trkpt lat="48.9025418" lon="2.6499840"><ele></ele><time>2025-2-28T3:39:48Z</time></trkpt>
<trkpt lat="48.9026772" lon="2.6501986"><ele></ele><time>2025-2-28T3:39:51Z</time></trkpt>
<trkpt lat="48.9028013" lon="2.6504356"><ele></ele><time>2025-2-28T3:39:54Z</time></trkpt>
<trkpt lat="48.9029258" lon="2.6506751"><ele></ele><time>2025-2-28T3:39:57Z</time></trkpt>
<trkpt lat="48.9030419" lon="2.6509372"><ele></ele><time>2025-2-28T3:40:0Z</time></trkpt>
<trkpt lat="48.9031862" lon="2.6512091"><ele></ele><time>2025-2-28T3:40:3Z</time></trkpt>
<trkpt lat="48.9033267" lon="2.6514917"><ele></ele><time>2025-2-28T3:40:6Z</time></trkpt>
<trkpt lat="48.9034560" lon="2.6516870"><ele></ele><time>2025-2-28T3:40:9Z</time></trkpt>
<trkpt lat="48.9036227" lon="2.6519226"><ele></ele><time>2025-2-28T3:40:12Z</time></trkpt>
<trkpt lat="48.9038017" lon="2.6521176"><ele></ele><time>2025-2-28T3:40:15Z</time></trkpt>
<trkpt lat="48.9039954" lon="2.6522830"><ele></ele><time>2025-2-28T3:40:18Z</time></trkpt>
<trkpt lat="48.9041799" lon="2.6524367"><ele></ele><time>2025-2-28T3:40:21Z</time></trkpt>
<trkpt lat="48.9043696" lon="2.6525855"><ele></ele><time>2025-2-28T3:40:24Z</time></trkpt>
<trkpt lat="48.9045548" lon="2.6527272"><ele></ele><time>2025-2-28T3:40:27Z</time></trkpt>
<trkpt lat="48.9047400" lon="2.6528922"><ele></ele><time>2025-2-28T3:40:30Z</time></trkpt>
<trkpt lat="48.9049127" lon="2.6530515"><ele></ele><time>2025-2-28T3:40:33Z</time></trkpt>
<trkpt lat="48.9050822" lon="2.6532069"><ele></ele><time>2025-2-28T3:40:36Z</time></trkpt>
<trkpt lat="48.9052619" lon="2.6533801"><ele></ele><time>2025-2-28T3:40:39Z</time></trkpt>
<trkpt lat="48.9054350" lon="2.6535713"><ele></ele><time>2025-2-28T3:40:42Z</time></trkpt>
<trkpt lat="48.9056185" lon="2.6537588"><ele></ele><time>2025-2-28T3:40:45Z</time></trkpt>
<trkpt lat="48.9058053" lon="2.6539507"><ele></ele><time>2025-2-28T3:40:48Z</time></trkpt>
<trkpt lat="48.9059893" lon="2.6541387"><ele></ele><time>2025-2-28T3:40:51Z</time></trkpt>
<trkpt lat="48.9061734" lon="2.6543470"><ele></ele><time>2025-2-28T3:40:54Z</time></trkpt>
<trkpt lat="48.9063684" lon="2.6545455"><ele></ele><time>2025-2-28T3:40:57Z</time></trkpt>
<trkpt lat="48.9065706" lon="2.6547344"><ele></ele><time>2025-2-28T3:41:0Z</time></trkpt>
<trkpt lat="48.9067814" lon="2.6548992"><ele></ele><time>2025-2-28T3:41:3Z</time></trkpt>
<trkpt lat="48.9069819" lon="2.6550576"><ele></ele><time>2025-2-28T3:41:6Z</time></trkpt>
<trkpt lat="48.9071786" lon="2.6551886"><ele></ele><time>2025-2-28T3:41:9Z</time></trkpt>
<trkpt lat="48.9073768" lon="2.6553031"><ele></ele><time>2025-2-28T3:41:12Z</time></trkpt>
<trkpt lat="48.9075722" lon="2.6554195"><ele></ele><time>2025-2-28T3:41:15Z</time></trkpt>
<trkpt lat="48.9077589" lon="2.6555146"><ele></ele><time>2025-2-28T3:41:18Z</time></trkpt>
<trkpt lat="48.9079406" lon="2.6555989"><ele></ele><time>2025-2-28T3:41:21Z</time></trkpt>
<trkpt lat="48.9081301" lon="2.6556785"><ele></ele><time>2025-2-28T3:41:24Z</time></trkpt>
<trkpt lat="48.9083161" lon="2.6557666"><ele></ele><time>2025-2-28T3:41:27Z</time></trkpt>
<trkpt lat="48.9084942" lon="2.6558526"><ele></ele><time>2025-2-28T3:41:30Z</time></trkpt>
<trkpt lat="48.9086813" lon="2.6559369"><ele></ele><time>2025-2-28T3:41:33Z</time></trkpt>
<trkpt lat="48.9088640" lon="2.6560293"><ele></ele><time>2025-2-28T3:41:36Z</time></trkpt>
<trkpt lat="48.9090445" lon="2.6561223"><ele></ele><time>2025-2-28T3:41:39Z</time></trkpt>
<trkpt lat="48.9092210" lon="2.6562091"><ele></ele><time>2025-2-28T3:41:42Z</time></trkpt>
<trkpt lat="48.9093927" lon="2.6563193"><ele></ele><time>2025-2-28T3:41:45Z</time></trkpt>
<trkpt lat="48.9095830" lon="2.6564859"><ele></ele><time>2025-2-28T3:41:48Z</time></trkpt>
<trkpt lat="48.9097394" lon="2.6566342"><ele></ele><time>2025-2-28T3:41:51Z</time></trkpt>
<trkpt lat="48.9099035" lon="2.6567820"><ele></ele><time>2025-2-28T3:41:54Z</time></trkpt>
<trkpt lat="48.9100643" lon="2.6569392"><ele></ele><time>2025-2-28T3:41:57Z</time></trkpt>
<trkpt lat="48.9102232" lon="2.6571005"><ele></ele><time>2025-2-28T3:42:0Z</time></trkpt>
<trkpt lat="48.9103907" lon="2.6572575"><ele></ele><time>2025-2-28T3:42:3Z</time></trkpt>
<trkpt lat="48.9105548" lon="2.6574142"><ele></ele><time>2025-2-28T3:42:6Z</time></trkpt>
<trkpt lat="48.9107156" lon="2.6575791"><ele></ele><time>2025-2-28T3:42:9Z</time></trkpt>
<trkpt lat="48.9108730" lon="2.6577361"><ele></ele><time>2025-2-28T3:42:12Z</time></trkpt>
<trkpt lat="48.9110535" lon="2.6578758"><ele></ele><time>2025-2-28T3:42:15Z</time></trkpt>
<trkpt lat="48.9112406" lon="2.6579673"><ele></ele><time>2025-2-28T3:42:18Z</time></trkpt>
<trkpt lat="48.9114406" lon="2.6579908"><ele></ele><time>2025-2-28T3:42:21Z</time></trkpt>
<trkpt lat="48.9116346" lon="2.6579851"><ele></ele><time>2025-2-28T3:42:24Z</time></trkpt>
<trkpt lat="48.9118351" lon="2.6579810"><ele></ele><time>2025-2-28T3:42:27Z</time></trkpt>
<trkpt lat="48.9120388" lon="2.6580092"><ele></ele><time>2025-2-28T3:42:30Z</time></trkpt>
<trkpt lat="48.9122222" lon="2.6580690"><ele></ele><time>2025-2-28T3:42:33Z</time></trkpt>
<trkpt lat="48.9124136" lon="2.6581450"><ele></ele><time>2025-2-28T3:42:36Z</time></trkpt>
<trkpt lat="48.9126108" lon="2.6582107"><ele></ele><time>2025-2-28T3:42:39Z</time></trkpt>
<trkpt lat="48.9128028" lon="2.6582722"><ele></ele><time>2025-2-28T3:42:42Z</time></trkpt>
<trkpt lat="48.9129940" lon="2.6583393"><ele></ele><time>2025-2-28T3:42:45Z</time></trkpt>
<trkpt lat="48.9131857" lon="2.6583976"><ele></ele><time>2025-2-28T3:42:48Z</time></trkpt>
<trkpt lat="48.9133646" lon="2.6584428"><ele></ele><time>2025-2-28T3:42:51Z</time></trkpt>
<trkpt lat="48.9135767" lon="2.6585067"><ele></ele><time>2025-2-28T3:42:54Z</time></trkpt>
<trkpt lat="48.9137455" lon="2.6586115"><ele></ele><time>2025-2-28T3:42:57Z</time></trkpt>
<trkpt lat="48.9138002" lon="2.6589197"><ele></ele><time>2025-2-28T3:43:0Z</time></trkpt>
<trkpt lat="48.9137796" lon="2.6591935"><ele></ele><time>2025-2-28T3:43:3Z</time></trkpt>
<trkpt lat="48.9137422" lon="2.6595443"><ele></ele><time>2025-2-28T3:43:6Z</time></trkpt>
<trkpt lat="48.9137023" lon="2.6598764"><ele></ele><time>2025-2-28T3:43:9Z</time></trkpt>
<trkpt lat="48.9136464" lon="2.6602025"><ele></ele><time>2025-2-28T3:43:12Z</time></trkpt>
<trkpt lat="48.9135901" lon="2.6604957"><ele></ele><time>2025-2-28T3:43:15Z</time></trkpt>
<trkpt lat="48.9136064" lon="2.6608055"><ele></ele><time>2025-2-28T3:43:18Z</time></trkpt>
<trkpt lat="48.9136564" lon="2.6611022"><ele></ele><time>2025-2-28T3:43:21Z</time></trkpt>
<trkpt lat="48.9136570" lon="2.6613875"><ele></ele><time>2025-2-28T3:43:24Z</time></trkpt>
<trkpt lat="48.9136601" lon="2.6616688"><ele></ele><time>2025-2-28T3:43:27Z</time></trkpt>
<trkpt lat="48.9136470" lon="2.6619425"><ele></ele><time>2025-2-28T3:43:30Z</time></trkpt>
<trkpt lat="48.9136408" lon="2.6622351"><ele></ele><time>2025-2-28T3:43:33Z</time></trkpt>
<trkpt lat="48.9137191" lon="2.6625015"><ele></ele><time>2025-2-28T3:43:36Z</time></trkpt>
<trkpt lat="48.9137490" lon="2.6627876"><ele></ele><time>2025-2-28T3:43:39Z</time></trkpt>
<trkpt lat="48.9137406" lon="2.6630650"><ele></ele><time>2025-2-28T3:43:42Z</time></trkpt>
<trkpt lat="48.9137719" lon="2.6633570"><ele></ele><time>2025-2-28T3:43:45Z</time></trkpt>
<trkpt lat="48.9138176" lon="2.6636390"><ele></ele><time>2025-2-28T3:43:48Z</time></trkpt>
<trkpt lat="48.9138615" lon="2.6639066"><ele></ele><time>2025-2-28T3:43:51Z</time></trkpt>
<trkpt lat="48.9139056" lon="2.6641920"><ele></ele><time>2025-2-28T3:43:54Z</time></trkpt>
<trkpt lat="48.9139676" lon="2.6644673"><ele></ele><time>2025-2-28T3:43:57Z</time></trkpt>
<trkpt lat="48.9140204" lon="2.6647537"><ele></ele><time>2025-2-28T3:44:0Z</time></trkpt>
<trkpt lat="48.9140883" lon="2.6650210"><ele></ele><time>2025-2-28T3:44:3Z</time></trkpt>
<trkpt lat="48.9141812" lon="2.6652857"><ele></ele><time>2025-2-28T3:44:6Z</time></trkpt>
<trkpt lat="48.9143776" lon="2.6652972"><ele></ele><time>2025-2-28T3:44:9Z</time></trkpt>
<trkpt lat="48.9145476" lon="2.6651822"><ele></ele><time>2025-2-28T3:44:12Z</time></trkpt>
<trkpt lat="48.9146719" lon="2.6654153"><ele></ele><time>2025-2-28T3:44:15Z</time></trkpt>
<trkpt lat="48.9148635" lon="2.6655328"><ele></ele><time>2025-2-28T3:44:18Z</time></trkpt>
<trkpt lat="48.9150564" lon="2.6656072"><ele></ele><time>2025-2-28T3:44:21Z</time></trkpt>
<trkpt lat="48.9152260" lon="2.6657047"><ele></ele><time>2025-2-28T3:44:24Z</time></trkpt>
<trkpt lat="48.9154010" lon="2.6657978"><ele></ele><time>2025-2-28T3:44:27Z</time></trkpt>
<trkpt lat="48.9155687" lon="2.6659064"><ele></ele><time>2025-2-28T3:44:30Z</time></trkpt>
<trkpt lat="48.9157679" lon="2.6659585"><ele></ele><time>2025-2-28T3:44:33Z</time></trkpt>
<trkpt lat="48.9159554" lon="2.6659527"><ele></ele><time>2025-2-28T3:44:36Z</time></trkpt>
<trkpt lat="48.9161384" lon="2.6659750"><ele></ele><time>2025-2-28T3:44:39Z</time></trkpt>
<trkpt lat="48.9160964" lon="2.6662962"><ele></ele><time>2025-2-28T3:44:42Z</time></trkpt>
<trkpt lat="48.9160306" lon="2.6665589"><ele></ele><time>2025-2-28T3:44:45Z</time></trkpt>
<trkpt lat="48.9159479" lon="2.6668153"><ele></ele><time>2025-2-28T3:44:48Z</time></trkpt>
<trkpt lat="48.9158807" lon="2.6671106"><ele></ele><time>2025-2-28T3:44:51Z</time></trkpt>
<trkpt lat="48.9158016" lon="2.6673589"><ele></ele><time>2025-2-28T3:44:54Z</time></trkpt>
<trkpt lat="48.9157523" lon="2.6676495"><ele></ele><time>2025-2-28T3:44:57Z</time></trkpt>
<trkpt lat="48.9156548" lon="2.6678901"><ele></ele><time>2025-2-28T3:45:0Z</time></trkpt>
<trkpt lat="48.9155562" lon="2.6681604"><ele></ele><time>2025-2-28T3:45:3Z</time></trkpt>
<trkpt lat="48.9155013" lon="2.6684521"><ele></ele><time>2025-2-28T3:45:6Z</time></trkpt>
<trkpt lat="48.9154290" lon="2.6687421"><ele></ele><time>2025-2-28T3:45:9Z</time></trkpt>
<trkpt lat="48.9153623" lon="2.6690157"><ele></ele><time>2025-2-28T3:45:12Z</time></trkpt>
<trkpt lat="48.9153673" lon="2.6693205"><ele></ele><time>2025-2-28T3:45:15Z</time></trkpt>
<trkpt lat="48.9152780" lon="2.6696250"><ele></ele><time>2025-2-28T3:45:18Z</time></trkpt>
<trkpt lat="48.9151175" lon="2.6698028"><ele></ele><time>2025-2-28T3:45:21Z</time></trkpt>
<trkpt lat="48.9149496" lon="2.6700246"><ele></ele><time>2025-2-28T3:45:24Z</time></trkpt>
<trkpt lat="48.9148856" lon="2.6703035"><ele></ele><time>2025-2-28T3:45:27Z</time></trkpt>
<trkpt lat="48.9148057" lon="2.6706069"><ele></ele><time>2025-2-28T3:45:30Z</time></trkpt>
<trkpt lat="48.9147458" lon="2.6708741"><ele></ele><time>2025-2-28T3:45:33Z</time></trkpt>
<trkpt lat="48.9145618" lon="2.6709482"><ele></ele><time>2025-2-28T3:45:36Z</time></trkpt>
<trkpt lat="48.9143594" lon="2.6708881"><ele></ele><time>2025-2-28T3:45:39Z</time></trkpt>
<trkpt lat="48.9141536" lon="2.6708404"><ele></ele><time>2025-2-28T3:45:42Z</time></trkpt>
<trkpt lat="48.9139720" lon="2.6707291"><ele></ele><time>2025-2-28T3:45:45Z</time></trkpt>
<trkpt lat="48.9137801" lon="2.6706608"><ele></ele><time>2025-2-28T3:45:48Z</time></trkpt>
<trkpt lat="48.9135861" lon="2.6705619"><ele></ele><time>2025-2-28T3:45:51Z</time></trkpt>
<trkpt lat="48.9134225" lon="2.6704096"><ele></ele><time>2025-2-28T3:45:54Z</time></trkpt>
<trkpt lat="48.9132407" lon="2.6703086"><ele></ele><time>2025-2-28T3:45:57Z</time></trkpt>
<trkpt lat="48.9130557" lon="2.6701464"><ele></ele><time>2025-2-28T3:46:0Z</time></trkpt>
<trkpt lat="48.9128829" lon="2.6699587"><ele></ele><time>2025-2-28T3:46:3Z</time></trkpt>
<trkpt lat="48.9127518" lon="2.6697633"><ele></ele><time>2025-2-28T3:46:6Z</time></trkpt>
<trkpt lat="48.9126623" lon="2.6700314"><ele></ele><time>2025-2-28T3:46:9Z</time></trkpt>
<trkpt lat="48.9126758" lon="2.6703525"><ele></ele><time>2025-2-28T3:46:12Z</time></trkpt>
<trkpt lat="48.9126780" lon="2.6706721"><ele></ele><time>2025-2-28T3:46:15Z</time></trkpt>
<trkpt lat="48.9126888" lon="2.6709942"><ele></ele><time>2025-2-28T3:46:18Z</time></trkpt>
<trkpt lat="48.9127001" lon="2.6713353"><ele></ele><time>2025-2-28T3:46:21Z</time></trkpt>
<trkpt lat="48.9127133" lon="2.6716905"><ele></ele><time>2025-2-28T3:46:24Z</time></trkpt>
<trkpt lat="48.9127242" lon="2.6719712"><ele></ele><time>2025-2-28T3:46:27Z</time></trkpt>
<trkpt lat="48.9127209" lon="2.6722480"><ele></ele><time>2025-2-28T3:46:30Z</time></trkpt>
<trkpt lat="48.9127178" lon="2.6725316"><ele></ele><time>2025-2-28T3:46:33Z</time></trkpt>
<trkpt lat="48.9127228" lon="2.6728142"><ele></ele><time>2025-2-28T3:46:36Z</time></trkpt>
<trkpt lat="48.9127328" lon="2.6730981"><ele></ele><time>2025-2-28T3:46:39Z</time></trkpt>
<trkpt lat="48.9127511" lon="2.6733803"><ele></ele><time>2025-2-28T3:46:42Z</time></trkpt>
<trkpt lat="48.9127580" lon="2.6736730"><ele></ele><time>2025-2-28T3:46:45Z</time></trkpt>
<trkpt lat="48.9127677" lon="2.6739694"><ele></ele><time>2025-2-28T3:46:48Z</time></trkpt>
<trkpt lat="48.9127533" lon="2.6742621"><ele></ele><time>2025-2-28T3:46:51Z</time></trkpt>
<trkpt lat="48.9127616" lon="2.6745565"><ele></ele><time>2025-2-28T3:46:54Z</time></trkpt>
<trkpt lat="48.9127625" lon="2.6748672"><ele></ele><time>2025-2-28T3:46:57Z</time></trkpt>
<trkpt lat="48.9127492" lon="2.6751516"><ele></ele><time>2025-2-28T3:47:0Z</time></trkpt>
<trkpt lat="48.9126876" lon="2.6754991"><ele></ele><time>2025-2-28T3:47:3Z</time></trkpt>
<trkpt lat="48.9126191" lon="2.6758313"><ele></ele><time>2025-2-28T3:47:6Z</time></trkpt>
<trkpt lat="48.9125632" lon="2.6761436"><ele></ele><time>2025-2-28T3:47:9Z</time></trkpt>
<trkpt lat="48.9125154" lon="2.6764359"><ele></ele><time>2025-2-28T3:47:12Z</time></trkpt>
<trkpt lat="48.9124681" lon="2.6767077"><ele></ele><time>2025-2-28T3:47:15Z</time></trkpt>
<trkpt lat="48.9124146" lon="2.6770393"><ele></ele><time>2025-2-28T3:47:18Z</time></trkpt>
<trkpt lat="48.9123696" lon="2.6773241"><ele></ele><time>2025-2-28T3:47:21Z</time></trkpt>
<trkpt lat="48.9123273" lon="2.6776030"><ele></ele><time>2025-2-28T3:47:24Z</time></trkpt>
<trkpt lat="48.9122875" lon="2.6778765"><ele></ele><time>2025-2-28T3:47:27Z</time></trkpt>
<trkpt lat="48.9122330" lon="2.6781586"><ele></ele><time>2025-2-28T3:47:30Z</time></trkpt>
<trkpt lat="48.9121997" lon="2.6784603"><ele></ele><time>2025-2-28T3:47:33Z</time></trkpt>
<trkpt lat="48.9121622" lon="2.6787488"><ele></ele><time>2025-2-28T3:47:36Z</time></trkpt>
<trkpt lat="48.9121237" lon="2.6790301"><ele></ele><time>2025-2-28T3:47:39Z</time></trkpt>
<trkpt lat="48.9120595" lon="2.6792926"><ele></ele><time>2025-2-28T3:47:42Z</time></trkpt>
<trkpt lat="48.9119732" lon="2.6795480"><ele></ele><time>2025-2-28T3:47:45Z</time></trkpt>
<trkpt lat="48.9118847" lon="2.6797946"><ele></ele><time>2025-2-28T3:47:48Z</time></trkpt>
<trkpt lat="48.9118167" lon="2.6800978"><ele></ele><time>2025-2-28T3:47:51Z</time></trkpt>
<trkpt lat="48.9117673" lon="2.6803747"><ele></ele><time>2025-2-28T3:47:54Z</time></trkpt>
<trkpt lat="48.9117132" lon="2.6806680"><ele></ele><time>2025-2-28T3:47:57Z</time></trkpt>
<trkpt lat="48.9116467" lon="2.6809600"><ele></ele><time>2025-2-28T3:48:0Z</time></trkpt>
<trkpt lat="48.9115596" lon="2.6812749"><ele></ele><time>2025-2-28T3:48:3Z</time></trkpt>
<trkpt lat="48.9114768" lon="2.6815694"><ele></ele><time>2025-2-28T3:48:6Z</time></trkpt>
<trkpt lat="48.9113956" lon="2.6818633"><ele></ele><time>2025-2-28T3:48:9Z</time></trkpt>
<trkpt lat="48.9112836" lon="2.6821683"><ele></ele><time>2025-2-28T3:48:12Z</time></trkpt>
<trkpt lat="48.9111946" lon="2.6824197"><ele></ele><time>2025-2-28T3:48:15Z</time></trkpt>
<trkpt lat="48.9111169" lon="2.6826713"><ele></ele><time>2025-2-28T3:48:18Z</time></trkpt>
<trkpt lat="48.9110328" lon="2.6829779"><ele></ele><time>2025-2-28T3:48:21Z</time></trkpt>
<trkpt lat="48.9109584" lon="2.6832711"><ele></ele><time>2025-2-28T3:48:24Z</time></trkpt>
<trkpt lat="48.9108379" lon="2.6835124"><ele></ele><time>2025-2-28T3:48:27Z</time></trkpt>
<trkpt lat="48.9107025" lon="2.6837294"><ele></ele><time>2025-2-28T3:48:30Z</time></trkpt>
<trkpt lat="48.9105404" lon="2.6839119"><ele></ele><time>2025-2-28T3:48:33Z</time></trkpt>
<trkpt lat="48.9103604" lon="2.6841088"><ele></ele><time>2025-2-28T3:48:36Z</time></trkpt>
<trkpt lat="48.9102007" lon="2.6843202"><ele></ele><time>2025-2-28T3:48:39Z</time></trkpt>
<trkpt lat="48.9100304" lon="2.6844733"><ele></ele><time>2025-2-28T3:48:42Z</time></trkpt>
<trkpt lat="48.9098728" lon="2.6846859"><ele></ele><time>2025-2-28T3:48:45Z</time></trkpt>
<trkpt lat="48.9097227" lon="2.6849119"><ele></ele><time>2025-2-28T3:48:48Z</time></trkpt>
<trkpt lat="48.9095518" lon="2.6851118"><ele></ele><time>2025-2-28T3:48:51Z</time></trkpt>
<trkpt lat="48.9094079" lon="2.6853002"><ele></ele><time>2025-2-28T3:48:54Z</time></trkpt>
<trkpt lat="48.9092750" lon="2.6854855"><ele></ele><time>2025-2-28T3:48:57Z</time></trkpt>
<trkpt lat="48.9091380" lon="2.6856730"><ele></ele><time>2025-2-28T3:49:0Z</time></trkpt>
<trkpt lat="48.9089931" lon="2.6858659"><ele></ele><time>2025-2-28T3:49:3Z</time></trkpt>
<trkpt lat="48.9088551" lon="2.6860542"><ele></ele><time>2025-2-28T3:49:6Z</time></trkpt>
<trkpt lat="48.9086991" lon="2.6862701"><ele></ele><time>2025-2-28T3:49:9Z</time></trkpt>
<trkpt lat="48.9085576" lon="2.6864498"><ele></ele><time>2025-2-28T3:49:12Z</time></trkpt>
<trkpt lat="48.9084097" lon="2.6866648"><ele></ele><time>2025-2-28T3:49:15Z</time></trkpt>
<trkpt lat="48.9082602" lon="2.6869054"><ele></ele><time>2025-2-28T3:49:18Z</time></trkpt>
<trkpt lat="48.9080896" lon="2.6871290"><ele></ele><time>2025-2-28T3:49:21Z</time></trkpt>
<trkpt lat="48.9078930" lon="2.6873556"><ele></ele><time>2025-2-28T3:49:24Z</time></trkpt>
<trkpt lat="48.9077554" lon="2.6875793"><ele></ele><time>2025-2-28T3:49:27Z</time></trkpt>
<trkpt lat="48.9077251" lon="2.6878699"><ele></ele><time>2025-2-28T3:49:30Z</time></trkpt>
<trkpt lat="48.9077793" lon="2.6881469"><ele></ele><time>2025-2-28T3:49:33Z</time></trkpt>
<trkpt lat="48.9078282" lon="2.6884383"><ele></ele><time>2025-2-28T3:49:36Z</time></trkpt>
<trkpt lat="48.9078734" lon="2.6887631"><ele></ele><time>2025-2-28T3:49:39Z</time></trkpt>
<trkpt lat="48.9079442" lon="2.6890253"><ele></ele><time>2025-2-28T3:49:42Z</time></trkpt>
<trkpt lat="48.9077805" lon="2.6891452"><ele></ele><time>2025-2-28T3:49:45Z</time></trkpt>
<trkpt lat="48.9076210" lon="2.6893390"><ele></ele><time>2025-2-28T3:49:48Z</time></trkpt>
<trkpt lat="48.9074111" lon="2.6893805"><ele></ele><time>2025-2-28T3:49:51Z</time></trkpt>
<trkpt lat="48.9072272" lon="2.6895178"><ele></ele><time>2025-2-28T3:49:54Z</time></trkpt>
<trkpt lat="48.9070098" lon="2.6895123"><ele></ele><time>2025-2-28T3:49:57Z</time></trkpt>
<trkpt lat="48.9067776" lon="2.6895246"><ele></ele><time>2025-2-28T3:50:0Z</time></trkpt>
<trkpt lat="48.9065942" lon="2.6896417"><ele></ele><time>2025-2-28T3:50:3Z</time></trkpt>
<trkpt lat="48.9063972" lon="2.6896448"><ele></ele><time>2025-2-28T3:50:6Z</time></trkpt>
<trkpt lat="48.9062007" lon="2.6896117"><ele></ele><time>2025-2-28T3:50:9Z</time></trkpt>
<trkpt lat="48.9060180" lon="2.6896165"><ele></ele><time>2025-2-28T3:50:12Z</time></trkpt>
<trkpt lat="48.9058321" lon="2.6896825"><ele></ele><time>2025-2-28T3:50:15Z</time></trkpt>
<trkpt lat="48.9056438" lon="2.6897014"><ele></ele><time>2025-2-28T3:50:18Z</time></trkpt>
<trkpt lat="48.9054356" lon="2.6897605"><ele></ele><time>2025-2-28T3:50:21Z</time></trkpt>
<trkpt lat="48.9052359" lon="2.6898410"><ele></ele><time>2025-2-28T3:50:24Z</time></trkpt>
<trkpt lat="48.9050216" lon="2.6898692"><ele></ele><time>2025-2-28T3:50:27Z</time></trkpt>
<trkpt lat="48.9047981" lon="2.6899190"><ele></ele><time>2025-2-28T3:50:30Z</time></trkpt>
<trkpt lat="48.9046079" lon="2.6899764"><ele></ele><time>2025-2-28T3:50:33Z</time></trkpt>
<trkpt lat="48.9044148" lon="2.6901409"><ele></ele><time>2025-2-28T3:50:36Z</time></trkpt>
<trkpt lat="48.9042274" lon="2.6903500"><ele></ele><time>2025-2-28T3:50:39Z</time></trkpt>
<trkpt lat="48.9040930" lon="2.6905529"><ele></ele><time>2025-2-28T3:50:42Z</time></trkpt>
<trkpt lat="48.9038884" lon="2.6907352"><ele></ele><time>2025-2-28T3:50:45Z</time></trkpt>
<trkpt lat="48.9037098" lon="2.6909291"><ele></ele><time>2025-2-28T3:50:48Z</time></trkpt>
<trkpt lat="48.9035555" lon="2.6911768"><ele></ele><time>2025-2-28T3:50:51Z</time></trkpt>
<trkpt lat="48.9033865" lon="2.6913311"><ele></ele><time>2025-2-28T3:50:54Z</time></trkpt>
<trkpt lat="48.9032201" lon="2.6916147"><ele></ele><time>2025-2-28T3:50:57Z</time></trkpt>
<trkpt lat="48.9031274" lon="2.6918674"><ele></ele><time>2025-2-28T3:51:0Z</time></trkpt>
<trkpt lat="48.9029809" lon="2.6920958"><ele></ele><time>2025-2-28T3:51:3Z</time></trkpt>
<trkpt lat="48.9028210" lon="2.6923250"><ele></ele><time>2025-2-28T3:51:6Z</time></trkpt>
<trkpt lat="48.9026246" lon="2.6925650"><ele></ele><time>2025-2-28T3:51:9Z</time></trkpt>
<trkpt lat="48.9024586" lon="2.6927263"><ele></ele><time>2025-2-28T3:51:12Z</time></trkpt>
<trkpt lat="48.9022541" lon="2.6928954"><ele></ele><time>2025-2-28T3:51:15Z</time></trkpt>
<trkpt lat="48.9020390" lon="2.6929211"><ele></ele><time>2025-2-28T3:51:18Z</time></trkpt>
<trkpt lat="48.9018591" lon="2.6929113"><ele></ele><time>2025-2-28T3:51:21Z</time></trkpt>
<trkpt lat="48.9016446" lon="2.6928668"><ele></ele><time>2025-2-28T3:51:24Z</time></trkpt>
<trkpt lat="48.9014583" lon="2.6928177"><ele></ele><time>2025-2-28T3:51:27Z</time></trkpt>
<trkpt lat="48.9012468" lon="2.6928084"><ele></ele><time>2025-2-28T3:51:30Z</time></trkpt>
<trkpt lat="48.9010546" lon="2.6927775"><ele></ele><time>2025-2-28T3:51:33Z</time></trkpt>
<trkpt lat="48.9008562" lon="2.6927461"><ele></ele><time>2025-2-28T3:51:36Z</time></trkpt>
<trkpt lat="48.9006753" lon="2.6927423"><ele></ele><time>2025-2-28T3:51:39Z</time></trkpt>
<trkpt lat="48.9004732" lon="2.6927885"><ele></ele><time>2025-2-28T3:51:42Z</time></trkpt>
<trkpt lat="48.9002771" lon="2.6928757"><ele></ele><time>2025-2-28T3:51:45Z</time></trkpt>
<trkpt lat="48.9000565" lon="2.6928887"><ele></ele><time>2025-2-28T3:51:48Z</time></trkpt>
<trkpt lat="48.8998487" lon="2.6929322"><ele></ele><time>2025-2-28T3:51:51Z</time></trkpt>
<trkpt lat="48.8996323" lon="2.6929630"><ele></ele><time>2025-2-28T3:51:54Z</time></trkpt>
<trkpt lat="48.8994313" lon="2.6930250"><ele></ele><time>2025-2-28T3:51:57Z</time></trkpt>
<trkpt lat="48.8992180" lon="2.6930305"><ele></ele><time>2025-2-28T3:52:0Z</time></trkpt>
<trkpt lat="48.8990240" lon="2.6929972"><ele></ele><time>2025-2-28T3:52:3Z</time></trkpt>
<trkpt lat="48.8988378" lon="2.6929879"><ele></ele><time>2025-2-28T3:52:6Z</time></trkpt>
<trkpt lat="48.8986152" lon="2.6930172"><ele></ele><time>2025-2-28T3:52:9Z</time></trkpt>
<trkpt lat="48.8984294" lon="2.6929824"><ele></ele><time>2025-2-28T3:52:12Z</time></trkpt>
<trkpt lat="48.8982090" lon="2.6929980"><ele></ele><time>2025-2-28T3:52:15Z</time></trkpt>
<trkpt lat="48.8979877" lon="2.6930018"><ele></ele><time>2025-2-28T3:52:18Z</time></trkpt>
<trkpt lat="48.8978101" lon="2.6930497"><ele></ele><time>2025-2-28T3:52:21Z</time></trkpt>
<trkpt lat="48.8975949" lon="2.6930589"><ele></ele><time>2025-2-28T3:52:24Z</time></trkpt>
<trkpt lat="48.8973458" lon="2.6930982"><ele></ele><time>2025-2-28T3:52:27Z</time></trkpt>
<trkpt lat="48.8971409" lon="2.6931516"><ele></ele><time>2025-2-28T3:52:30Z</time></trkpt>
<trkpt lat="48.8969548" lon="2.6932138"><ele></ele><time>2025-2-28T3:52:33Z</time></trkpt>
<trkpt lat="48.8967570" lon="2.6932435"><ele></ele><time>2025-2-28T3:52:36Z</time></trkpt>
<trkpt lat="48.8965410" lon="2.6932914"><ele></ele><time>2025-2-28T3:52:39Z</time></trkpt>
<trkpt lat="48.8963359" lon="2.6933188"><ele></ele><time>2025-2-28T3:52:42Z</time></trkpt>
<trkpt lat="48.8961410" lon="2.6933390"><ele></ele><time>2025-2-28T3:52:45Z</time></trkpt>
<trkpt lat="48.8959600" lon="2.6933490"><ele></ele><time>2025-2-28T3:52:48Z</time></trkpt>
<trkpt lat="48.8957415" lon="2.6933856"><ele></ele><time>2025-2-28T3:52:51Z</time></trkpt>
<trkpt lat="48.8955591" lon="2.6934400"><ele></ele><time>2025-2-28T3:52:54Z</time></trkpt>
<trkpt lat="48.8953545" lon="2.6935359"><ele></ele><time>2025-2-28T3:52:57Z</time></trkpt>
<trkpt lat="48.8951810" lon="2.6936239"><ele></ele><time>2025-2-28T3:53:0Z</time></trkpt>
<trkpt lat="48.8949917" lon="2.6937339"><ele></ele><time>2025-2-28T3:53:3Z</time></trkpt>
<trkpt lat="48.8947992" lon="2.6938480"><ele></ele><time>2025-2-28T3:53:6Z</time></trkpt>
<trkpt lat="48.8946132" lon="2.6939664"><ele></ele><time>2025-2-28T3:53:9Z</time></trkpt>
<trkpt lat="48.8944262" lon="2.6940841"><ele></ele><time>2025-2-28T3:53:12Z</time></trkpt>
<trkpt lat="48.8942263" lon="2.6941776"><ele></ele><time>2025-2-28T3:53:15Z</time></trkpt>
<trkpt lat="48.8940305" lon="2.6942709"><ele></ele><time>2025-2-28T3:53:18Z</time></trkpt>
<trkpt lat="48.8938269" lon="2.6943837"><ele></ele><time>2025-2-28T3:53:21Z</time></trkpt>
<trkpt lat="48.8936119" lon="2.6945079"><ele></ele><time>2025-2-28T3:53:24Z</time></trkpt>
<trkpt lat="48.8934032" lon="2.6946272"><ele></ele><time>2025-2-28T3:53:27Z</time></trkpt>
<trkpt lat="48.8931839" lon="2.6947309"><ele></ele><time>2025-2-28T3:53:30Z</time></trkpt>
<trkpt lat="48.8929672" lon="2.6947890"><ele></ele><time>2025-2-28T3:53:33Z</time></trkpt>
<trkpt lat="48.8927654" lon="2.6948673"><ele></ele><time>2025-2-28T3:53:36Z</time></trkpt>
<trkpt lat="48.8925651" lon="2.6948842"><ele></ele><time>2025-2-28T3:53:39Z</time></trkpt>
<trkpt lat="48.8923728" lon="2.6949540"><ele></ele><time>2025-2-28T3:53:42Z</time></trkpt>
<trkpt lat="48.8921834" lon="2.6950849"><ele></ele><time>2025-2-28T3:53:45Z</time></trkpt>
<trkpt lat="48.8920246" lon="2.6953405"><ele></ele><time>2025-2-28T3:53:48Z</time></trkpt>
<trkpt lat="48.8919124" lon="2.6956422"><ele></ele><time>2025-2-28T3:53:51Z</time></trkpt>
<trkpt lat="48.8918116" lon="2.6959880"><ele></ele><time>2025-2-28T3:53:54Z</time></trkpt>
<trkpt lat="48.8917049" lon="2.6963517"><ele></ele><time>2025-2-28T3:53:57Z</time></trkpt>
<trkpt lat="48.8916314" lon="2.6966039"><ele></ele><time>2025-2-28T3:54:0Z</time></trkpt>
<trkpt lat="48.8915196" lon="2.6969767"><ele></ele><time>2025-2-28T3:54:3Z</time></trkpt>
<trkpt lat="48.8914422" lon="2.6972316"><ele></ele><time>2025-2-28T3:54:6Z</time></trkpt>
<trkpt lat="48.8913284" lon="2.6975855"><ele></ele><time>2025-2-28T3:54:9Z</time></trkpt>
<trkpt lat="48.8912279" lon="2.6979017"><ele></ele><time>2025-2-28T3:54:12Z</time></trkpt>
<trkpt lat="48.8911183" lon="2.6981886"><ele></ele><time>2025-2-28T3:54:15Z</time></trkpt>
<trkpt lat="48.8910212" lon="2.6984368"><ele></ele><time>2025-2-28T3:54:18Z</time></trkpt>
<trkpt lat="48.8909619" lon="2.6987148"><ele></ele><time>2025-2-28T3:54:21Z</time></trkpt>
<trkpt lat="48.8911625" lon="2.6987515"><ele></ele><time>2025-2-28T3:54:24Z</time></trkpt>
<trkpt lat="48.8913766" lon="2.6987591"><ele></ele><time>2025-2-28T3:54:27Z</time></trkpt>
<trkpt lat="48.8915847" lon="2.6988004"><ele></ele><time>2025-2-28T3:54:30Z</time></trkpt>
<trkpt lat="48.8917876" lon="2.6988395"><ele></ele><time>2025-2-28T3:54:33Z</time></trkpt>
<trkpt lat="48.8920062" lon="2.6988782"><ele></ele><time>2025-2-28T3:54:36Z</time></trkpt>
<trkpt lat="48.8922129" lon="2.6988918"><ele></ele><time>2025-2-28T3:54:39Z</time></trkpt>
<trkpt lat="48.8924192" lon="2.6988842"><ele></ele><time>2025-2-28T3:54:42Z</time></trkpt>
<trkpt lat="48.8926276" lon="2.6988633"><ele></ele><time>2025-2-28T3:54:45Z</time></trkpt>
<trkpt lat="48.8928170" lon="2.6989018"><ele></ele><time>2025-2-28T3:54:48Z</time></trkpt>
<trkpt lat="48.8928989" lon="2.6991565"><ele></ele><time>2025-2-28T3:54:51Z</time></trkpt>
<trkpt lat="48.8929380" lon="2.6994538"><ele></ele><time>2025-2-28T3:54:54Z</time></trkpt>
<trkpt lat="48.8929737" lon="2.6997418"><ele></ele><time>2025-2-28T3:54:57Z</time></trkpt>
<trkpt lat="48.8930067" lon="2.7000322"><ele></ele><time>2025-2-28T3:55:0Z</time></trkpt>
<trkpt lat="48.8930420" lon="2.7003085"><ele></ele><time>2025-2-28T3:55:3Z</time></trkpt>
<trkpt lat="48.8932451" lon="2.7004051"><ele></ele><time>2025-2-28T3:55:6Z</time></trkpt>
<trkpt lat="48.8934268" lon="2.7004001"><ele></ele><time>2025-2-28T3:55:9Z</time></trkpt>
<trkpt lat="48.8936253" lon="2.7003803"><ele></ele><time>2025-2-28T3:55:12Z</time></trkpt>
<trkpt lat="48.8938437" lon="2.7003533"><ele></ele><time>2025-2-28T3:55:15Z</time></trkpt>
<trkpt lat="48.8940753" lon="2.7003434"><ele></ele><time>2025-2-28T3:55:18Z</time></trkpt>
<trkpt lat="48.8942853" lon="2.7003506"><ele></ele><time>2025-2-28T3:55:21Z</time></trkpt>
<trkpt lat="48.8944278" lon="2.7005680"><ele></ele><time>2025-2-28T3:55:24Z</time></trkpt>
<trkpt lat="48.8946516" lon="2.7006006"><ele></ele><time>2025-2-28T3:55:27Z</time></trkpt>
<trkpt lat="48.8948245" lon="2.7004993"><ele></ele><time>2025-2-28T3:55:30Z</time></trkpt>
<trkpt lat="48.8949938" lon="2.7003724"><ele></ele><time>2025-2-28T3:55:33Z</time></trkpt>
<trkpt lat="48.8951638" lon="2.7002326"><ele></ele><time>2025-2-28T3:55:36Z</time></trkpt>
<trkpt lat="48.8953405" lon="2.7001367"><ele></ele><time>2025-2-28T3:55:39Z</time></trkpt>
<trkpt lat="48.8955167" lon="2.7000164"><ele></ele><time>2025-2-28T3:55:42Z</time></trkpt>
<trkpt lat="48.8956858" lon="2.6999004"><ele></ele><time>2025-2-28T3:55:45Z</time></trkpt>
<trkpt lat="48.8958505" lon="2.6997738"><ele></ele><time>2025-2-28T3:55:48Z</time></trkpt>
<trkpt lat="48.8960540" lon="2.6996301"><ele></ele><time>2025-2-28T3:55:51Z</time></trkpt>
<trkpt lat="48.8962452" lon="2.6994845"><ele></ele><time>2025-2-28T3:55:54Z</time></trkpt>
<trkpt lat="48.8964293" lon="2.6993516"><ele></ele><time>2025-2-28T3:55:57Z</time></trkpt>
<trkpt lat="48.8966302" lon="2.6992349"><ele></ele><time>2025-2-28T3:56:0Z</time></trkpt>
<trkpt lat="48.8967958" lon="2.6991077"><ele></ele><time>2025-2-28T3:56:3Z</time></trkpt>
<trkpt lat="48.8970077" lon="2.6989367"><ele></ele><time>2025-2-28T3:56:6Z</time></trkpt>
<trkpt lat="48.8972161" lon="2.6988069"><ele></ele><time>2025-2-28T3:56:9Z</time></trkpt>
<trkpt lat="48.8974033" lon="2.6986211"><ele></ele><time>2025-2-28T3:56:12Z</time></trkpt>
<trkpt lat="48.8975603" lon="2.6984742"><ele></ele><time>2025-2-28T3:56:15Z</time></trkpt>
<trkpt lat="48.8977274" lon="2.6983039"><ele></ele><time>2025-2-28T3:56:18Z</time></trkpt>
<trkpt lat="48.8978954" lon="2.6981777"><ele></ele><time>2025-2-28T3:56:21Z</time></trkpt>
<trkpt lat="48.8980937" lon="2.6982432"><ele></ele><time>2025-2-28T3:56:24Z</time></trkpt>
<trkpt lat="48.8982230" lon="2.6984858"><ele></ele><time>2025-2-28T3:56:27Z</time></trkpt>
<trkpt lat="48.8983512" lon="2.6987452"><ele></ele><time>2025-2-28T3:56:30Z</time></trkpt>
<trkpt lat="48.8984669" lon="2.6989814"><ele></ele><time>2025-2-28T3:56:33Z</time></trkpt>
<trkpt lat="48.8985924" lon="2.6992387"><ele></ele><time>2025-2-28T3:56:36Z</time></trkpt>
<trkpt lat="48.8987408" lon="2.6994263"><ele></ele><time>2025-2-28T3:56:39Z</time></trkpt>
<trkpt lat="48.8988358" lon="2.6996620"><ele></ele><time>2025-2-28T3:56:42Z</time></trkpt>
<trkpt lat="48.8989965" lon="2.6998518"><ele></ele><time>2025-2-28T3:56:45Z</time></trkpt>
<trkpt lat="48.8991634" lon="2.6999849"><ele></ele><time>2025-2-28T3:56:48Z</time></trkpt>
<trkpt lat="48.8993682" lon="2.7000048"><ele></ele><time>2025-2-28T3:56:51Z</time></trkpt>
<trkpt lat="48.8995516" lon="2.7000976"><ele></ele><time>2025-2-28T3:56:54Z</time></trkpt>
<trkpt lat="48.8996901" lon="2.7003138"><ele></ele><time>2025-2-28T3:56:57Z</time></trkpt>
<trkpt lat="48.8998629" lon="2.7005151"><ele></ele><time>2025-2-28T3:57:0Z</time></trkpt>
<trkpt lat="48.8999959" lon="2.7007447"><ele></ele><time>2025-2-28T3:57:3Z</time></trkpt>
<trkpt lat="48.8998407" lon="2.7009406"><ele></ele><time>2025-2-28T3:57:6Z</time></trkpt>
<trkpt lat="48.8996510" lon="2.7011077"><ele></ele><time>2025-2-28T3:57:9Z</time></trkpt>
<trkpt lat="48.8994826" lon="2.7012859"><ele></ele><time>2025-2-28T3:57:12Z</time></trkpt>
<trkpt lat="48.8993155" lon="2.7015020"><ele></ele><time>2025-2-28T3:57:15Z</time></trkpt>
<trkpt lat="48.8991694" lon="2.7016644"><ele></ele><time>2025-2-28T3:57:18Z</time></trkpt>
<trkpt lat="48.8990299" lon="2.7018570"><ele></ele><time>2025-2-28T3:57:21Z</time></trkpt>
<trkpt lat="48.8988744" lon="2.7020089"><ele></ele><time>2025-2-28T3:57:24Z</time></trkpt>
<trkpt lat="48.8986922" lon="2.7021112"><ele></ele><time>2025-2-28T3:57:27Z</time></trkpt>
<trkpt lat="48.8984918" lon="2.7022258"><ele></ele><time>2025-2-28T3:57:30Z</time></trkpt>
<trkpt lat="48.8983113" lon="2.7023524"><ele></ele><time>2025-2-28T3:57:33Z</time></trkpt>
<trkpt lat="48.8981691" lon="2.7025583"><ele></ele><time>2025-2-28T3:57:36Z</time></trkpt>
<trkpt lat="48.8980878" lon="2.7028311"><ele></ele><time>2025-2-28T3:57:39Z</time></trkpt>
<trkpt lat="48.8980901" lon="2.7031606"><ele></ele><time>2025-2-28T3:57:42Z</time></trkpt>
<trkpt lat="48.8980858" lon="2.7034982"><ele></ele><time>2025-2-28T3:57:45Z</time></trkpt>
<trkpt lat="48.8980840" lon="2.7038207"><ele></ele><time>2025-2-28T3:57:48Z</time></trkpt>
<trkpt lat="48.8980917" lon="2.7041360"><ele></ele><time>2025-2-28T3:57:51Z</time></trkpt>
<trkpt lat="48.8980875" lon="2.7044566"><ele></ele><time>2025-2-28T3:57:54Z</time></trkpt>
<trkpt lat="48.8981172" lon="2.7047772"><ele></ele><time>2025-2-28T3:57:57Z</time></trkpt>
<trkpt lat="48.8981949" lon="2.7050786"><ele></ele><time>2025-2-28T3:58:0Z</time></trkpt>
<trkpt lat="48.8982797" lon="2.7053678"><ele></ele><time>2025-2-28T3:58:3Z</time></trkpt>
<trkpt lat="48.8983620" lon="2.7056778"><ele></ele><time>2025-2-28T3:58:6Z</time></trkpt>
<trkpt lat="48.8984475" lon="2.7059714"><ele></ele><time>2025-2-28T3:58:9Z</time></trkpt>
<trkpt lat="48.8985067" lon="2.7062564"><ele></ele><time>2025-2-28T3:58:12Z</time></trkpt>
<trkpt lat="48.8986847" lon="2.7063892"><ele></ele><time>2025-2-28T3:58:15Z</time></trkpt>
<trkpt lat="48.8988641" lon="2.7063584"><ele></ele><time>2025-2-28T3:58:18Z</time></trkpt>
<trkpt lat="48.8990545" lon="2.7063286"><ele></ele><time>2025-2-28T3:58:21Z</time></trkpt>
<trkpt lat="48.8992424" lon="2.7062799"><ele></ele><time>2025-2-28T3:58:24Z</time></trkpt>
<trkpt lat="48.8994339" lon="2.7062301"><ele></ele><time>2025-2-28T3:58:27Z</time></trkpt>
<trkpt lat="48.8996357" lon="2.7061445"><ele></ele><time>2025-2-28T3:58:30Z</time></trkpt>
<trkpt lat="48.8998280" lon="2.7061001"><ele></ele><time>2025-2-28T3:58:33Z</time></trkpt>
<trkpt lat="48.9000146" lon="2.7060172"><ele></ele><time>2025-2-28T3:58:36Z</time></trkpt>
<trkpt lat="48.9001948" lon="2.7059692"><ele></ele><time>2025-2-28T3:58:39Z</time></trkpt>
<trkpt lat="48.9003763" lon="2.7059245"><ele></ele><time>2025-2-28T3:58:42Z</time></trkpt>
<trkpt lat="48.9005782" lon="2.7058216"><ele></ele><time>2025-2-28T3:58:45Z</time></trkpt>
<trkpt lat="48.9007488" lon="2.7057208"><ele></ele><time>2025-2-28T3:58:48Z</time></trkpt>
<trkpt lat="48.9009411" lon="2.7055799"><ele></ele><time>2025-2-28T3:58:51Z</time></trkpt>
<trkpt lat="48.9011326" lon="2.7055397"><ele></ele><time>2025-2-28T3:58:54Z</time></trkpt>
<trkpt lat="48.9012221" lon="2.7058146"><ele></ele><time>2025-2-28T3:58:57Z</time></trkpt>
<trkpt lat="48.9013141" lon="2.7060768"><ele></ele><time>2025-2-28T3:59:0Z</time></trkpt>
<trkpt lat="48.9014493" lon="2.7063189"><ele></ele><time>2025-2-28T3:59:3Z</time></trkpt>
<trkpt lat="48.9016388" lon="2.7065155"><ele></ele><time>2025-2-28T3:59:6Z</time></trkpt>
<trkpt lat="48.9018107" lon="2.7066460"><ele></ele><time>2025-2-28T3:59:9Z</time></trkpt>
<trkpt lat="48.9019809" lon="2.7067668"><ele></ele><time>2025-2-28T3:59:12Z</time></trkpt>
<trkpt lat="48.9021790" lon="2.7069119"><ele></ele><time>2025-2-28T3:59:15Z</time></trkpt>
<trkpt lat="48.9023286" lon="2.7070807"><ele></ele><time>2025-2-28T3:59:18Z</time></trkpt>
<trkpt lat="48.9025118" lon="2.7070475"><ele></ele><time>2025-2-28T3:59:21Z</time></trkpt>
<trkpt lat="48.9026312" lon="2.7073217"><ele></ele><time>2025-2-28T3:59:24Z</time></trkpt>
<trkpt lat="48.9028371" lon="2.7079161"><ele></ele><time>2025-2-28T3:59:27Z</time></trkpt>
<trkpt lat="48.9029632" lon="2.7081306"><ele></ele><time>2025-2-28T3:59:30Z</time></trkpt>
<trkpt lat="48.9031044" lon="2.7083819"><ele></ele><time>2025-2-28T3:59:33Z</time></trkpt>
<trkpt lat="48.9032017" lon="2.7086229"><ele></ele><time>2025-2-28T3:59:36Z</time></trkpt>
<trkpt lat="48.9033859" lon="2.7088909"><ele></ele><time>2025-2-28T3:59:39Z</time></trkpt>
<trkpt lat="48.9035324" lon="2.7090772"><ele></ele><time>2025-2-28T3:59:42Z</time></trkpt>
<trkpt lat="48.9037153" lon="2.7093553"><ele></ele><time>2025-2-28T3:59:45Z</time></trkpt>
<trkpt lat="48.9038179" lon="2.7097079"><ele></ele><time>2025-2-28T3:59:48Z</time></trkpt>
<trkpt lat="48.9038696" lon="2.7100196"><ele></ele><time>2025-2-28T3:59:51Z</time></trkpt>
<trkpt lat="48.9039388" lon="2.7102888"><ele></ele><time>2025-2-28T3:59:54Z</time></trkpt>
<trkpt lat="48.9039895" lon="2.7105540"><ele></ele><time>2025-2-28T3:59:57Z</time></trkpt>
<trkpt lat="48.9040342" lon="2.7108443"><ele></ele><time>2025-2-28T4:0:0Z</time></trkpt>
<trkpt lat="48.9040835" lon="2.7111613"><ele></ele><time>2025-2-28T4:0:3Z</time></trkpt>
<trkpt lat="48.9041363" lon="2.7115174"><ele></ele><time>2025-2-28T4:0:6Z</time></trkpt>
<trkpt lat="48.9041840" lon="2.7118880"><ele></ele><time>2025-2-28T4:0:9Z</time></trkpt>
<trkpt lat="48.9042372" lon="2.7122626"><ele></ele><time>2025-2-28T4:0:12Z</time></trkpt>
<trkpt lat="48.9042878" lon="2.7126510"><ele></ele><time>2025-2-28T4:0:15Z</time></trkpt>
<trkpt lat="48.9043421" lon="2.7130321"><ele></ele><time>2025-2-28T4:0:18Z</time></trkpt>
<trkpt lat="48.9043949" lon="2.7133631"><ele></ele><time>2025-2-28T4:0:21Z</time></trkpt>
<trkpt lat="48.9045849" lon="2.7134517"><ele></ele><time>2025-2-28T4:0:24Z</time></trkpt>
<trkpt lat="48.9047612" lon="2.7136329"><ele></ele><time>2025-2-28T4:0:27Z</time></trkpt>
<trkpt lat="48.9048446" lon="2.7138893"><ele></ele><time>2025-2-28T4:0:30Z</time></trkpt>
<trkpt lat="48.9048904" lon="2.7142268"><ele></ele><time>2025-2-28T4:0:33Z</time></trkpt>
<trkpt lat="48.9049529" lon="2.7145455"><ele></ele><time>2025-2-28T4:0:36Z</time></trkpt>
<trkpt lat="48.9050306" lon="2.7148122"><ele></ele><time>2025-2-28T4:0:39Z</time></trkpt>
<trkpt lat="48.9051087" lon="2.7150694"><ele></ele><time>2025-2-28T4:0:42Z</time></trkpt>
<trkpt lat="48.9052257" lon="2.7153728"><ele></ele><time>2025-2-28T4:0:45Z</time></trkpt>
<trkpt lat="48.9053750" lon="2.7156056"><ele></ele><time>2025-2-28T4:0:48Z</time></trkpt>
<trkpt lat="48.9053559" lon="2.7158980"><ele></ele><time>2025-2-28T4:0:51Z</time></trkpt>
<trkpt lat="48.9051590" lon="2.7158818"><ele></ele><time>2025-2-28T4:0:54Z</time></trkpt>
<trkpt lat="48.9051281" lon="2.7161682"><ele></ele><time>2025-2-28T4:0:57Z</time></trkpt>
<trkpt lat="48.9050218" lon="2.7164254"><ele></ele><time>2025-2-28T4:1:0Z</time></trkpt>
<trkpt lat="48.9049325" lon="2.7166896"><ele></ele><time>2025-2-28T4:1:3Z</time></trkpt>
<trkpt lat="48.9047970" lon="2.7168880"><ele></ele><time>2025-2-28T4:1:6Z</time></trkpt>
<trkpt lat="48.9046129" lon="2.7170403"><ele></ele><time>2025-2-28T4:1:9Z</time></trkpt>
<trkpt lat="48.9044216" lon="2.7171962"><ele></ele><time>2025-2-28T4:1:12Z</time></trkpt>
<trkpt lat="48.9042417" lon="2.7174081"><ele></ele><time>2025-2-28T4:1:15Z</time></trkpt>
<trkpt lat="48.9040797" lon="2.7176551"><ele></ele><time>2025-2-28T4:1:18Z</time></trkpt>
<trkpt lat="48.9039098" lon="2.7178652"><ele></ele><time>2025-2-28T4:1:21Z</time></trkpt>
<trkpt lat="48.9037385" lon="2.7181227"><ele></ele><time>2025-2-28T4:1:24Z</time></trkpt>
<trkpt lat="48.9035777" lon="2.7183230"><ele></ele><time>2025-2-28T4:1:27Z</time></trkpt>
<trkpt lat="48.9034195" lon="2.7185487"><ele></ele><time>2025-2-28T4:1:30Z</time></trkpt>
<trkpt lat="48.9032904" lon="2.7188115"><ele></ele><time>2025-2-28T4:1:33Z</time></trkpt>
<trkpt lat="48.9031679" lon="2.7190689"><ele></ele><time>2025-2-28T4:1:36Z</time></trkpt>
<trkpt lat="48.9030625" lon="2.7192944"><ele></ele><time>2025-2-28T4:1:39Z</time></trkpt>
<trkpt lat="48.9029423" lon="2.7195481"><ele></ele><time>2025-2-28T4:1:42Z</time></trkpt>
<trkpt lat="48.9028447" lon="2.7197815"><ele></ele><time>2025-2-28T4:1:45Z</time></trkpt>
<trkpt lat="48.9027690" lon="2.7200544"><ele></ele><time>2025-2-28T4:1:48Z</time></trkpt>
<trkpt lat="48.9026913" lon="2.7204059"><ele></ele><time>2025-2-28T4:1:51Z</time></trkpt>
<trkpt lat="48.9026088" lon="2.7207402"><ele></ele><time>2025-2-28T4:1:54Z</time></trkpt>
<trkpt lat="48.9025121" lon="2.7209825"><ele></ele><time>2025-2-28T4:1:57Z</time></trkpt>
<trkpt lat="48.9024409" lon="2.7212516"><ele></ele><time>2025-2-28T4:2:0Z</time></trkpt>
<trkpt lat="48.9024286" lon="2.7215245"><ele></ele><time>2025-2-28T4:2:3Z</time></trkpt>
<trkpt lat="48.9023870" lon="2.7218867"><ele></ele><time>2025-2-28T4:2:6Z</time></trkpt>
<trkpt lat="48.9023503" lon="2.7221582"><ele></ele><time>2025-2-28T4:2:9Z</time></trkpt>
<trkpt lat="48.9023097" lon="2.7225125"><ele></ele><time>2025-2-28T4:2:12Z</time></trkpt>
<trkpt lat="48.9023063" lon="2.7227960"><ele></ele><time>2025-2-28T4:2:15Z</time></trkpt>
<trkpt lat="48.9023326" lon="2.7230806"><ele></ele><time>2025-2-28T4:2:18Z</time></trkpt>
<trkpt lat="48.9023696" lon="2.7233692"><ele></ele><time>2025-2-28T4:2:21Z</time></trkpt>
<trkpt lat="48.9023840" lon="2.7237371"><ele></ele><time>2025-2-28T4:2:24Z</time></trkpt>
<trkpt lat="48.9024343" lon="2.7240694"><ele></ele><time>2025-2-28T4:2:27Z</time></trkpt>
<trkpt lat="48.9025039" lon="2.7244150"><ele></ele><time>2025-2-28T4:2:30Z</time></trkpt>
<trkpt lat="48.9024856" lon="2.7247744"><ele></ele><time>2025-2-28T4:2:33Z</time></trkpt>
<trkpt lat="48.9025145" lon="2.7251105"><ele></ele><time>2025-2-28T4:2:36Z</time></trkpt>
<trkpt lat="48.9025066" lon="2.7254282"><ele></ele><time>2025-2-28T4:2:39Z</time></trkpt>
<trkpt lat="48.9024512" lon="2.7257575"><ele></ele><time>2025-2-28T4:2:42Z</time></trkpt>
<trkpt lat="48.9024638" lon="2.7260484"><ele></ele><time>2025-2-28T4:2:45Z</time></trkpt>
<trkpt lat="48.9024342" lon="2.7263927"><ele></ele><time>2025-2-28T4:2:48Z</time></trkpt>
<trkpt lat="48.9024052" lon="2.7266838"><ele></ele><time>2025-2-28T4:2:51Z</time></trkpt>
<trkpt lat="48.9023837" lon="2.7269602"><ele></ele><time>2025-2-28T4:2:54Z</time></trkpt>
<trkpt lat="48.9023593" lon="2.7272560"><ele></ele><time>2025-2-28T4:2:57Z</time></trkpt>
<trkpt lat="48.9023459" lon="2.7275311"><ele></ele><time>2025-2-28T4:3:0Z</time></trkpt>
<trkpt lat="48.9023133" lon="2.7278013"><ele></ele><time>2025-2-28T4:3:3Z</time></trkpt>
<trkpt lat="48.9022809" lon="2.7280838"><ele></ele><time>2025-2-28T4:3:6Z</time></trkpt>
<trkpt lat="48.9022119" lon="2.7283438"><ele></ele><time>2025-2-28T4:3:9Z</time></trkpt>
<trkpt lat="48.9021497" lon="2.7286977"><ele></ele><time>2025-2-28T4:3:12Z</time></trkpt>
<trkpt lat="48.9021214" lon="2.7289764"><ele></ele><time>2025-2-28T4:3:15Z</time></trkpt>
<trkpt lat="48.9020624" lon="2.7292491"><ele></ele><time>2025-2-28T4:3:18Z</time></trkpt>
<trkpt lat="48.9019931" lon="2.7295254"><ele></ele><time>2025-2-28T4:3:21Z</time></trkpt>
<trkpt lat="48.9019343" lon="2.7298547"><ele></ele><time>2025-2-28T4:3:24Z</time></trkpt>
<trkpt lat="48.9018631" lon="2.7301248"><ele></ele><time>2025-2-28T4:3:27Z</time></trkpt>
<trkpt lat="48.9017779" lon="2.7303986"><ele></ele><time>2025-2-28T4:3:30Z</time></trkpt>
<trkpt lat="48.9016422" lon="2.7306879"><ele></ele><time>2025-2-28T4:3:33Z</time></trkpt>
<trkpt lat="48.9016125" lon="2.7309845"><ele></ele><time>2025-2-28T4:3:36Z</time></trkpt>
<trkpt lat="48.9015873" lon="2.7312853"><ele></ele><time>2025-2-28T4:3:39Z</time></trkpt>
<trkpt lat="48.9016268" lon="2.7315636"><ele></ele><time>2025-2-28T4:3:42Z</time></trkpt>
<trkpt lat="48.9016730" lon="2.7318643"><ele></ele><time>2025-2-28T4:3:45Z</time></trkpt>
<trkpt lat="48.9018159" lon="2.7321233"><ele></ele><time>2025-2-28T4:3:48Z</time></trkpt>
<trkpt lat="48.9018961" lon="2.7323691"><ele></ele><time>2025-2-28T4:3:51Z</time></trkpt>
<trkpt lat="48.9020236" lon="2.7326424"><ele></ele><time>2025-2-28T4:3:54Z</time></trkpt>
<trkpt lat="48.9021168" lon="2.7329344"><ele></ele><time>2025-2-28T4:3:57Z</time></trkpt>
<trkpt lat="48.9021259" lon="2.7332303"><ele></ele><time>2025-2-28T4:4:0Z</time></trkpt>
<trkpt lat="48.9021868" lon="2.7335099"><ele></ele><time>2025-2-28T4:4:3Z</time></trkpt>
<trkpt lat="48.9022583" lon="2.7337921"><ele></ele><time>2025-2-28T4:4:6Z</time></trkpt>
<trkpt lat="48.9023425" lon="2.7341274"><ele></ele><time>2025-2-28T4:4:9Z</time></trkpt>
<trkpt lat="48.9024008" lon="2.7343942"><ele></ele><time>2025-2-28T4:4:12Z</time></trkpt>
<trkpt lat="48.9024645" lon="2.7347204"><ele></ele><time>2025-2-28T4:4:15Z</time></trkpt>
<trkpt lat="48.9024707" lon="2.7350412"><ele></ele><time>2025-2-28T4:4:18Z</time></trkpt>
<trkpt lat="48.9025491" lon="2.7353601"><ele></ele><time>2025-2-28T4:4:21Z</time></trkpt>
<trkpt lat="48.9025911" lon="2.7357038"><ele></ele><time>2025-2-28T4:4:24Z</time></trkpt>
<trkpt lat="48.9026539" lon="2.7360171"><ele></ele><time>2025-2-28T4:4:27Z</time></trkpt>
<trkpt lat="48.9026885" lon="2.7362861"><ele></ele><time>2025-2-28T4:4:30Z</time></trkpt>
<trkpt lat="48.9027522" lon="2.7365937"><ele></ele><time>2025-2-28T4:4:33Z</time></trkpt>
<trkpt lat="48.9028207" lon="2.7369242"><ele></ele><time>2025-2-28T4:4:36Z</time></trkpt>
<trkpt lat="48.9028868" lon="2.7372472"><ele></ele><time>2025-2-28T4:4:39Z</time></trkpt>
<trkpt lat="48.9029457" lon="2.7375849"><ele></ele><time>2025-2-28T4:4:42Z</time></trkpt>
<trkpt lat="48.9029496" lon="2.7379352"><ele></ele><time>2025-2-28T4:4:45Z</time></trkpt>
<trkpt lat="48.9029893" lon="2.7382638"><ele></ele><time>2025-2-28T4:4:48Z</time></trkpt>
<trkpt lat="48.9029943" lon="2.7385499"><ele></ele><time>2025-2-28T4:4:51Z</time></trkpt>
<trkpt lat="48.9029849" lon="2.7388372"><ele></ele><time>2025-2-28T4:4:54Z</time></trkpt>
<trkpt lat="48.9029980" lon="2.7391433"><ele></ele><time>2025-2-28T4:4:57Z</time></trkpt>
<trkpt lat="48.9029447" lon="2.7394095"><ele></ele><time>2025-2-28T4:5:0Z</time></trkpt>
<trkpt lat="48.9028962" lon="2.7397198"><ele></ele><time>2025-2-28T4:5:3Z</time></trkpt>
<trkpt lat="48.9029128" lon="2.7399999"><ele></ele><time>2025-2-28T4:5:6Z</time></trkpt>
<trkpt lat="48.9030453" lon="2.7402656"><ele></ele><time>2025-2-28T4:5:9Z</time></trkpt>
<trkpt lat="48.9030957" lon="2.7405806"><ele></ele><time>2025-2-28T4:5:12Z</time></trkpt>
<trkpt lat="48.9031292" lon="2.7409185"><ele></ele><time>2025-2-28T4:5:15Z</time></trkpt>
<trkpt lat="48.9030980" lon="2.7412717"><ele></ele><time>2025-2-28T4:5:18Z</time></trkpt>
<trkpt lat="48.9030671" lon="2.7416268"><ele></ele><time>2025-2-28T4:5:21Z</time></trkpt>
<trkpt lat="48.9030477" lon="2.7419131"><ele></ele><time>2025-2-28T4:5:24Z</time></trkpt>
<trkpt lat="48.9030166" lon="2.7421878"><ele></ele><time>2025-2-28T4:5:27Z</time></trkpt>
<trkpt lat="48.9029896" lon="2.7425366"><ele></ele><time>2025-2-28T4:5:30Z</time></trkpt>
<trkpt lat="48.9029269" lon="2.7427980"><ele></ele><time>2025-2-28T4:5:33Z</time></trkpt>
<trkpt lat="48.9028417" lon="2.7431425"><ele></ele><time>2025-2-28T4:5:36Z</time></trkpt>
<trkpt lat="48.9027991" lon="2.7434862"><ele></ele><time>2025-2-28T4:5:39Z</time></trkpt>
<trkpt lat="48.9027815" lon="2.7438230"><ele></ele><time>2025-2-28T4:5:42Z</time></trkpt>
<trkpt lat="48.9028066" lon="2.7441064"><ele></ele><time>2025-2-28T4:5:45Z</time></trkpt>
<trkpt lat="48.9028206" lon="2.7443915"><ele></ele><time>2025-2-28T4:5:48Z</time></trkpt>
<trkpt lat="48.9028416" lon="2.7446724"><ele></ele><time>2025-2-28T4:5:51Z</time></trkpt>
<trkpt lat="48.9028825" lon="2.7450065"><ele></ele><time>2025-2-28T4:5:54Z</time></trkpt>
<trkpt lat="48.9029090" lon="2.7452779"><ele></ele><time>2025-2-28T4:5:57Z</time></trkpt>
<trkpt lat="48.9028896" lon="2.7456231"><ele></ele><time>2025-2-28T4:6:0Z</time></trkpt>
<trkpt lat="48.9028635" lon="2.7459661"><ele></ele><time>2025-2-28T4:6:3Z</time></trkpt>
<trkpt lat="48.9028249" lon="2.7462515"><ele></ele><time>2025-2-28T4:6:6Z</time></trkpt>
<trkpt lat="48.9028432" lon="2.7465444"><ele></ele><time>2025-2-28T4:6:9Z</time></trkpt>
<trkpt lat="48.9028644" lon="2.7469022"><ele></ele><time>2025-2-28T4:6:12Z</time></trkpt>
<trkpt lat="48.9028928" lon="2.7472609"><ele></ele><time>2025-2-28T4:6:15Z</time></trkpt>
<trkpt lat="48.9029077" lon="2.7475339"><ele></ele><time>2025-2-28T4:6:18Z</time></trkpt>
<trkpt lat="48.9029414" lon="2.7478822"><ele></ele><time>2025-2-28T4:6:21Z</time></trkpt>
<trkpt lat="48.9029571" lon="2.7482268"><ele></ele><time>2025-2-28T4:6:24Z</time></trkpt>
<trkpt lat="48.9030234" lon="2.7485707"><ele></ele><time>2025-2-28T4:6:27Z</time></trkpt>
<trkpt lat="48.9030453" lon="2.7488563"><ele></ele><time>2025-2-28T4:6:30Z</time></trkpt>
<trkpt lat="48.9030670" lon="2.7491957"><ele></ele><time>2025-2-28T4:6:33Z</time></trkpt>
<trkpt lat="48.9030636" lon="2.7495058"><ele></ele><time>2025-2-28T4:6:36Z</time></trkpt>
<trkpt lat="48.9030862" lon="2.7497967"><ele></ele><time>2025-2-28T4:6:39Z</time></trkpt>
<trkpt lat="48.9030760" lon="2.7500827"><ele></ele><time>2025-2-28T4:6:42Z</time></trkpt>
<trkpt lat="48.9031261" lon="2.7503532"><ele></ele><time>2025-2-28T4:6:45Z</time></trkpt>
<trkpt lat="48.9031550" lon="2.7506424"><ele></ele><time>2025-2-28T4:6:48Z</time></trkpt>
<trkpt lat="48.9031790" lon="2.7509766"><ele></ele><time>2025-2-28T4:6:51Z</time></trkpt>
<trkpt lat="48.9032166" lon="2.7513105"><ele></ele><time>2025-2-28T4:6:54Z</time></trkpt>
<trkpt lat="48.9032569" lon="2.7516529"><ele></ele><time>2025-2-28T4:6:57Z</time></trkpt>
<trkpt lat="48.9033064" lon="2.7519907"><ele></ele><time>2025-2-28T4:7:0Z</time></trkpt>
<trkpt lat="48.9033523" lon="2.7523223"><ele></ele><time>2025-2-28T4:7:3Z</time></trkpt>
<trkpt lat="48.9033959" lon="2.7526771"><ele></ele><time>2025-2-28T4:7:6Z</time></trkpt>
<trkpt lat="48.9034323" lon="2.7530248"><ele></ele><time>2025-2-28T4:7:9Z</time></trkpt>
<trkpt lat="48.9034653" lon="2.7533822"><ele></ele><time>2025-2-28T4:7:12Z</time></trkpt>
<trkpt lat="48.9035151" lon="2.7537308"><ele></ele><time>2025-2-28T4:7:15Z</time></trkpt>
<trkpt lat="48.9035447" lon="2.7540018"><ele></ele><time>2025-2-28T4:7:18Z</time></trkpt>
<trkpt lat="48.9035725" lon="2.7542739"><ele></ele><time>2025-2-28T4:7:21Z</time></trkpt>
<trkpt lat="48.9035965" lon="2.7546250"><ele></ele><time>2025-2-28T4:7:24Z</time></trkpt>
<trkpt lat="48.9036331" lon="2.7549578"><ele></ele><time>2025-2-28T4:7:27Z</time></trkpt>
<trkpt lat="48.9036658" lon="2.7552749"><ele></ele><time>2025-2-28T4:7:30Z</time></trkpt>
<trkpt lat="48.9037274" lon="2.7555826"><ele></ele><time>2025-2-28T4:7:33Z</time></trkpt>
<trkpt lat="48.9037621" lon="2.7559018"><ele></ele><time>2025-2-28T4:7:36Z</time></trkpt>
<trkpt lat="48.9038088" lon="2.7562334"><ele></ele><time>2025-2-28T4:7:39Z</time></trkpt>
<trkpt lat="48.9038401" lon="2.7565673"><ele></ele><time>2025-2-28T4:7:42Z</time></trkpt>
<trkpt lat="48.9038821" lon="2.7569064"><ele></ele><time>2025-2-28T4:7:45Z</time></trkpt>
<trkpt lat="48.9039020" lon="2.7572269"><ele></ele><time>2025-2-28T4:7:48Z</time></trkpt>
<trkpt lat="48.9039294" lon="2.7575321"><ele></ele><time>2025-2-28T4:7:51Z</time></trkpt>
<trkpt lat="48.9039459" lon="2.7578327"><ele></ele><time>2025-2-28T4:7:54Z</time></trkpt>
<trkpt lat="48.9039481" lon="2.7581241"><ele></ele><time>2025-2-28T4:7:57Z</time></trkpt>
<trkpt lat="48.9039554" lon="2.7584245"><ele></ele><time>2025-2-28T4:8:0Z</time></trkpt>
<trkpt lat="48.9039494" lon="2.7587172"><ele></ele><time>2025-2-28T4:8:3Z</time></trkpt>
<trkpt lat="48.9039226" lon="2.7590567"><ele></ele><time>2025-2-28T4:8:6Z</time></trkpt>
<trkpt lat="48.9039143" lon="2.7593736"><ele></ele><time>2025-2-28T4:8:9Z</time></trkpt>
<trkpt lat="48.9038972" lon="2.7596583"><ele></ele><time>2025-2-28T4:8:12Z</time></trkpt>
<trkpt lat="48.9038706" lon="2.7599519"><ele></ele><time>2025-2-28T4:8:15Z</time></trkpt>
<trkpt lat="48.9038350" lon="2.7602525"><ele></ele><time>2025-2-28T4:8:18Z</time></trkpt>
<trkpt lat="48.9037995" lon="2.7605951"><ele></ele><time>2025-2-28T4:8:21Z</time></trkpt>
<trkpt lat="48.9037637" lon="2.7608883"><ele></ele><time>2025-2-28T4:8:24Z</time></trkpt>
<trkpt lat="48.9037297" lon="2.7611947"><ele></ele><time>2025-2-28T4:8:27Z</time></trkpt>
<trkpt lat="48.9036782" lon="2.7614820"><ele></ele><time>2025-2-28T4:8:30Z</time></trkpt>
<trkpt lat="48.9036159" lon="2.7617408"><ele></ele><time>2025-2-28T4:8:33Z</time></trkpt>
<trkpt lat="48.9035516" lon="2.7620496"><ele></ele><time>2025-2-28T4:8:36Z</time></trkpt>
<trkpt lat="48.9034907" lon="2.7623482"><ele></ele><time>2025-2-28T4:8:39Z</time></trkpt>
<trkpt lat="48.9034385" lon="2.7626497"><ele></ele><time>2025-2-28T4:8:42Z</time></trkpt>
<trkpt lat="48.9033691" lon="2.7629507"><ele></ele><time>2025-2-28T4:8:45Z</time></trkpt>
<trkpt lat="48.9033070" lon="2.7632450"><ele></ele><time>2025-2-28T4:8:48Z</time></trkpt>
<trkpt lat="48.9032492" lon="2.7635199"><ele></ele><time>2025-2-28T4:8:51Z</time></trkpt>
<trkpt lat="48.9031812" lon="2.7638021"><ele></ele><time>2025-2-28T4:8:54Z</time></trkpt>
<trkpt lat="48.9031042" lon="2.7640712"><ele></ele><time>2025-2-28T4:8:57Z</time></trkpt>
<trkpt lat="48.9030273" lon="2.7643452"><ele></ele><time>2025-2-28T4:9:0Z</time></trkpt>
<trkpt lat="48.9029274" lon="2.7646096"><ele></ele><time>2025-2-28T4:9:3Z</time></trkpt>
<trkpt lat="48.9028316" lon="2.7648765"><ele></ele><time>2025-2-28T4:9:6Z</time></trkpt>
<trkpt lat="48.9027307" lon="2.7651241"><ele></ele><time>2025-2-28T4:9:9Z</time></trkpt>
<trkpt lat="48.9025961" lon="2.7654094"><ele></ele><time>2025-2-28T4:9:12Z</time></trkpt>
<trkpt lat="48.9024768" lon="2.7656715"><ele></ele><time>2025-2-28T4:9:15Z</time></trkpt>
<trkpt lat="48.9023677" lon="2.7659497"><ele></ele><time>2025-2-28T4:9:18Z</time></trkpt>
<trkpt lat="48.9022711" lon="2.7662433"><ele></ele><time>2025-2-28T4:9:21Z</time></trkpt>
<trkpt lat="48.9021742" lon="2.7665253"><ele></ele><time>2025-2-28T4:9:24Z</time></trkpt>
<trkpt lat="48.9020486" lon="2.7667737"><ele></ele><time>2025-2-28T4:9:27Z</time></trkpt>
<trkpt lat="48.9019036" lon="2.7669894"><ele></ele><time>2025-2-28T4:9:30Z</time></trkpt>
<trkpt lat="48.9017370" lon="2.7671567"><ele></ele><time>2025-2-28T4:9:33Z</time></trkpt>
<trkpt lat="48.9015436" lon="2.7672483"><ele></ele><time>2025-2-28T4:9:36Z</time></trkpt>
<trkpt lat="48.9013450" lon="2.7673119"><ele></ele><time>2025-2-28T4:9:39Z</time></trkpt>
<trkpt lat="48.9011209" lon="2.7673478"><ele></ele><time>2025-2-28T4:9:42Z</time></trkpt>
<trkpt lat="48.9009352" lon="2.7673668"><ele></ele><time>2025-2-28T4:9:45Z</time></trkpt>
<trkpt lat="48.9007490" lon="2.7673966"><ele></ele><time>2025-2-28T4:9:48Z</time></trkpt>
<trkpt lat="48.9005523" lon="2.7673913"><ele></ele><time>2025-2-28T4:9:51Z</time></trkpt>
<trkpt lat="48.9003784" lon="2.7673161"><ele></ele><time>2025-2-28T4:9:54Z</time></trkpt>
<trkpt lat="48.9002532" lon="2.7670772"><ele></ele><time>2025-2-28T4:9:57Z</time></trkpt>
<trkpt lat="48.9001614" lon="2.7667921"><ele></ele><time>2025-2-28T4:10:0Z</time></trkpt>
<trkpt lat="48.9000994" lon="2.7665083"><ele></ele><time>2025-2-28T4:10:3Z</time></trkpt>
<trkpt lat="48.9000355" lon="2.7662413"><ele></ele><time>2025-2-28T4:10:6Z</time></trkpt>
<trkpt lat="48.8999577" lon="2.7659525"><ele></ele><time>2025-2-28T4:10:9Z</time></trkpt>
<trkpt lat="48.8998576" lon="2.7656819"><ele></ele><time>2025-2-28T4:10:12Z</time></trkpt>
<trkpt lat="48.8997685" lon="2.7654262"><ele></ele><time>2025-2-28T4:10:15Z</time></trkpt>
<trkpt lat="48.8996879" lon="2.7651676"><ele></ele><time>2025-2-28T4:10:18Z</time></trkpt>
<trkpt lat="48.8995934" lon="2.7649069"><ele></ele><time>2025-2-28T4:10:21Z</time></trkpt>
<trkpt lat="48.8994897" lon="2.7646172"><ele></ele><time>2025-2-28T4:10:24Z</time></trkpt>
<trkpt lat="48.8993906" lon="2.7643743"><ele></ele><time>2025-2-28T4:10:27Z</time></trkpt>
<trkpt lat="48.8992895" lon="2.7640959"><ele></ele><time>2025-2-28T4:10:30Z</time></trkpt>
<trkpt lat="48.8992000" lon="2.7638511"><ele></ele><time>2025-2-28T4:10:33Z</time></trkpt>
<trkpt lat="48.8991039" lon="2.7636109"><ele></ele><time>2025-2-28T4:10:36Z</time></trkpt>
<trkpt lat="48.8989920" lon="2.7633698"><ele></ele><time>2025-2-28T4:10:39Z</time></trkpt>
<trkpt lat="48.8988652" lon="2.7631185"><ele></ele><time>2025-2-28T4:10:42Z</time></trkpt>
<trkpt lat="48.8987553" lon="2.7628826"><ele></ele><time>2025-2-28T4:10:45Z</time></trkpt>
<trkpt lat="48.8985849" lon="2.7627171"><ele></ele><time>2025-2-28T4:10:48Z</time></trkpt>
<trkpt lat="48.8984118" lon="2.7628123"><ele></ele><time>2025-2-28T4:10:51Z</time></trkpt>
<trkpt lat="48.8982710" lon="2.7630078"><ele></ele><time>2025-2-28T4:10:54Z</time></trkpt>
<trkpt lat="48.8980797" lon="2.7630131"><ele></ele><time>2025-2-28T4:10:57Z</time></trkpt>
<trkpt lat="48.8978922" lon="2.7629775"><ele></ele><time>2025-2-28T4:11:0Z</time></trkpt>
<trkpt lat="48.8978196" lon="2.7626916"><ele></ele><time>2025-2-28T4:11:3Z</time></trkpt>
<trkpt lat="48.8978874" lon="2.7624060"><ele></ele><time>2025-2-28T4:11:6Z</time></trkpt>
<trkpt lat="48.8980712" lon="2.7625060"><ele></ele><time>2025-2-28T4:11:9Z</time></trkpt>
<trkpt lat="48.8982216" lon="2.7626965"><ele></ele><time>2025-2-28T4:11:12Z</time></trkpt>
<trkpt lat="48.8983313" lon="2.7629563"><ele></ele><time>2025-2-28T4:11:15Z</time></trkpt>
<trkpt lat="48.8984433" lon="2.7631783"><ele></ele><time>2025-2-28T4:11:18Z</time></trkpt>
<trkpt lat="48.8985486" lon="2.7634233"><ele></ele><time>2025-2-28T4:11:21Z</time></trkpt>
<trkpt lat="48.8986502" lon="2.7636675"><ele></ele><time>2025-2-28T4:11:24Z</time></trkpt>
<trkpt lat="48.8987570" lon="2.7639320"><ele></ele><time>2025-2-28T4:11:27Z</time></trkpt>
<trkpt lat="48.8988631" lon="2.7641975"><ele></ele><time>2025-2-28T4:11:30Z</time></trkpt>
<trkpt lat="48.8989582" lon="2.7644666"><ele></ele><time>2025-2-28T4:11:33Z</time></trkpt>
<trkpt lat="48.8990437" lon="2.7647504"><ele></ele><time>2025-2-28T4:11:36Z</time></trkpt>
<trkpt lat="48.8991354" lon="2.7650495"><ele></ele><time>2025-2-28T4:11:39Z</time></trkpt>
<trkpt lat="48.8992272" lon="2.7653721"><ele></ele><time>2025-2-28T4:11:42Z</time></trkpt>
<trkpt lat="48.8992921" lon="2.7656362"><ele></ele><time>2025-2-28T4:11:45Z</time></trkpt>
<trkpt lat="48.8993606" lon="2.7659211"><ele></ele><time>2025-2-28T4:11:48Z</time></trkpt>
<trkpt lat="48.8994329" lon="2.7661792"><ele></ele><time>2025-2-28T4:11:51Z</time></trkpt>
<trkpt lat="48.8995061" lon="2.7665038"><ele></ele><time>2025-2-28T4:11:54Z</time></trkpt>
<trkpt lat="48.8995532" lon="2.7667775"><ele></ele><time>2025-2-28T4:11:57Z</time></trkpt>
<trkpt lat="48.8996081" lon="2.7671160"><ele></ele><time>2025-2-28T4:12:0Z</time></trkpt>
<trkpt lat="48.8996080" lon="2.7674355"><ele></ele><time>2025-2-28T4:12:3Z</time></trkpt>
<trkpt lat="48.8996588" lon="2.7677789"><ele></ele><time>2025-2-28T4:12:6Z</time></trkpt>
<trkpt lat="48.8997253" lon="2.7680530"><ele></ele><time>2025-2-28T4:12:9Z</time></trkpt>
<trkpt lat="48.8997842" lon="2.7683158"><ele></ele><time>2025-2-28T4:12:12Z</time></trkpt>
<trkpt lat="48.8998448" lon="2.7686381"><ele></ele><time>2025-2-28T4:12:15Z</time></trkpt>
<trkpt lat="48.8999116" lon="2.7689412"><ele></ele><time>2025-2-28T4:12:18Z</time></trkpt>
<trkpt lat="48.9000006" lon="2.7692133"><ele></ele><time>2025-2-28T4:12:21Z</time></trkpt>
<trkpt lat="48.9000561" lon="2.7695245"><ele></ele><time>2025-2-28T4:12:24Z</time></trkpt>
<trkpt lat="48.9001282" lon="2.7697824"><ele></ele><time>2025-2-28T4:12:27Z</time></trkpt>
<trkpt lat="48.9001598" lon="2.7700531"><ele></ele><time>2025-2-28T4:12:30Z</time></trkpt>
<trkpt lat="48.9001892" lon="2.7703280"><ele></ele><time>2025-2-28T4:12:33Z</time></trkpt>
<trkpt lat="48.9002094" lon="2.7706146"><ele></ele><time>2025-2-28T4:12:36Z</time></trkpt>
<trkpt lat="48.9000221" lon="2.7707978"><ele></ele><time>2025-2-28T4:12:39Z</time></trkpt>
<trkpt lat="48.8998438" lon="2.7709452"><ele></ele><time>2025-2-28T4:12:42Z</time></trkpt>
<trkpt lat="48.8996504" lon="2.7710585"><ele></ele><time>2025-2-28T4:12:45Z</time></trkpt>
<trkpt lat="48.8994680" lon="2.7711436"><ele></ele><time>2025-2-28T4:12:48Z</time></trkpt>
<trkpt lat="48.8992981" lon="2.7712451"><ele></ele><time>2025-2-28T4:12:51Z</time></trkpt>
<trkpt lat="48.8994776" lon="2.7712994"><ele></ele><time>2025-2-28T4:12:54Z</time></trkpt>
<trkpt lat="48.8996820" lon="2.7712763"><ele></ele><time>2025-2-28T4:12:57Z</time></trkpt>
<trkpt lat="48.8998742" lon="2.7712126"><ele></ele><time>2025-2-28T4:13:0Z</time></trkpt>
<trkpt lat="48.8997311" lon="2.7713964"><ele></ele><time>2025-2-28T4:13:3Z</time></trkpt>
<trkpt lat="48.8995255" lon="2.7714638"><ele></ele><time>2025-2-28T4:13:6Z</time></trkpt>
<trkpt lat="48.8993188" lon="2.7715178"><ele></ele><time>2025-2-28T4:13:9Z</time></trkpt>
<trkpt lat="48.8991241" lon="2.7715743"><ele></ele><time>2025-2-28T4:13:12Z</time></trkpt>
<trkpt lat="48.8989482" lon="2.7716423"><ele></ele><time>2025-2-28T4:13:15Z</time></trkpt>
<trkpt lat="48.8987642" lon="2.7717198"><ele></ele><time>2025-2-28T4:13:18Z</time></trkpt>
<trkpt lat="48.8985826" lon="2.7717433"><ele></ele><time>2025-2-28T4:13:21Z</time></trkpt>
<trkpt lat="48.8984125" lon="2.7718445"><ele></ele><time>2025-2-28T4:13:24Z</time></trkpt>
<trkpt lat="48.8982153" lon="2.7719369"><ele></ele><time>2025-2-28T4:13:27Z</time></trkpt>
<trkpt lat="48.8980374" lon="2.7721184"><ele></ele><time>2025-2-28T4:13:30Z</time></trkpt>
<trkpt lat="48.8979011" lon="2.7723217"><ele></ele><time>2025-2-28T4:13:33Z</time></trkpt>
<trkpt lat="48.8977672" lon="2.7725403"><ele></ele><time>2025-2-28T4:13:36Z</time></trkpt>
<trkpt lat="48.8976005" lon="2.7727363"><ele></ele><time>2025-2-28T4:13:39Z</time></trkpt>
<trkpt lat="48.8976496" lon="2.7730317"><ele></ele><time>2025-2-28T4:13:42Z</time></trkpt>
<trkpt lat="48.8977243" lon="2.7732858"><ele></ele><time>2025-2-28T4:13:45Z</time></trkpt>
<trkpt lat="48.8978060" lon="2.7735703"><ele></ele><time>2025-2-28T4:13:48Z</time></trkpt>
<trkpt lat="48.8978652" lon="2.7738441"><ele></ele><time>2025-2-28T4:13:51Z</time></trkpt>
<trkpt lat="48.8980227" lon="2.7739891"><ele></ele><time>2025-2-28T4:13:54Z</time></trkpt>
<trkpt lat="48.8982028" lon="2.7738030"><ele></ele><time>2025-2-28T4:13:57Z</time></trkpt>
<trkpt lat="48.8983657" lon="2.7736525"><ele></ele><time>2025-2-28T4:14:0Z</time></trkpt>
<trkpt lat="48.8985335" lon="2.7734707"><ele></ele><time>2025-2-28T4:14:3Z</time></trkpt>
<trkpt lat="48.8987109" lon="2.7732740"><ele></ele><time>2025-2-28T4:14:6Z</time></trkpt>
<trkpt lat="48.8989089" lon="2.7731222"><ele></ele><time>2025-2-28T4:14:9Z</time></trkpt>
<trkpt lat="48.8991322" lon="2.7729941"><ele></ele><time>2025-2-28T4:14:12Z</time></trkpt>
<trkpt lat="48.8993583" lon="2.7728777"><ele></ele><time>2025-2-28T4:14:15Z</time></trkpt>
<trkpt lat="48.8995317" lon="2.7727856"><ele></ele><time>2025-2-28T4:14:18Z</time></trkpt>
<trkpt lat="48.8997425" lon="2.7726599"><ele></ele><time>2025-2-28T4:14:21Z</time></trkpt>
<trkpt lat="48.8999442" lon="2.7725521"><ele></ele><time>2025-2-28T4:14:24Z</time></trkpt>
<trkpt lat="48.9000889" lon="2.7728150"><ele></ele><time>2025-2-28T4:14:27Z</time></trkpt>
<trkpt lat="48.9001643" lon="2.7731462"><ele></ele><time>2025-2-28T4:14:30Z</time></trkpt>
<trkpt lat="48.9002193" lon="2.7734731"><ele></ele><time>2025-2-28T4:14:33Z</time></trkpt>
<trkpt lat="48.9002426" lon="2.7737842"><ele></ele><time>2025-2-28T4:14:36Z</time></trkpt>
<trkpt lat="48.9003201" lon="2.7740490"><ele></ele><time>2025-2-28T4:14:39Z</time></trkpt>
<trkpt lat="48.9003838" lon="2.7743198"><ele></ele><time>2025-2-28T4:14:42Z</time></trkpt>
<trkpt lat="48.9005877" lon="2.7744981"><ele></ele><time>2025-2-28T4:14:45Z</time></trkpt>
<trkpt lat="48.9007989" lon="2.7745351"><ele></ele><time>2025-2-28T4:14:48Z</time></trkpt>
<trkpt lat="48.9006438" lon="2.7746823"><ele></ele><time>2025-2-28T4:14:51Z</time></trkpt>
<trkpt lat="48.9004701" lon="2.7747836"><ele></ele><time>2025-2-28T4:14:54Z</time></trkpt>
<trkpt lat="48.9002884" lon="2.7748726"><ele></ele><time>2025-2-28T4:14:57Z</time></trkpt>
<trkpt lat="48.9002239" lon="2.7751557"><ele></ele><time>2025-2-28T4:15:0Z</time></trkpt>
<trkpt lat="48.9002776" lon="2.7754530"><ele></ele><time>2025-2-28T4:15:3Z</time></trkpt>
<trkpt lat="48.9002833" lon="2.7757595"><ele></ele><time>2025-2-28T4:15:6Z</time></trkpt>
<trkpt lat="48.9003169" lon="2.7760534"><ele></ele><time>2025-2-28T4:15:9Z</time></trkpt>
<trkpt lat="48.9003313" lon="2.7763266"><ele></ele><time>2025-2-28T4:15:12Z</time></trkpt>
<trkpt lat="48.9003030" lon="2.7766453"><ele></ele><time>2025-2-28T4:15:15Z</time></trkpt>
<trkpt lat="48.9002248" lon="2.7769466"><ele></ele><time>2025-2-28T4:15:18Z</time></trkpt>
<trkpt lat="48.9000950" lon="2.7771907"><ele></ele><time>2025-2-28T4:15:21Z</time></trkpt>
<trkpt lat="48.8999811" lon="2.7774157"><ele></ele><time>2025-2-28T4:15:24Z</time></trkpt>
<trkpt lat="48.8998195" lon="2.7776255"><ele></ele><time>2025-2-28T4:15:27Z</time></trkpt>
<trkpt lat="48.8996162" lon="2.7774872"><ele></ele><time>2025-2-28T4:15:30Z</time></trkpt>
<trkpt lat="48.8994323" lon="2.7773644"><ele></ele><time>2025-2-28T4:15:33Z</time></trkpt>
<trkpt lat="48.8992757" lon="2.7775658"><ele></ele><time>2025-2-28T4:15:36Z</time></trkpt>
<trkpt lat="48.8991237" lon="2.7777596"><ele></ele><time>2025-2-28T4:15:39Z</time></trkpt>
<trkpt lat="48.8989475" lon="2.7779521"><ele></ele><time>2025-2-28T4:15:42Z</time></trkpt>
<trkpt lat="48.8987882" lon="2.7781251"><ele></ele><time>2025-2-28T4:15:45Z</time></trkpt>
<trkpt lat="48.8986309" lon="2.7782955"><ele></ele><time>2025-2-28T4:15:48Z</time></trkpt>
<trkpt lat="48.8984613" lon="2.7784463"><ele></ele><time>2025-2-28T4:15:51Z</time></trkpt>
<trkpt lat="48.8982892" lon="2.7785788"><ele></ele><time>2025-2-28T4:15:54Z</time></trkpt>
<trkpt lat="48.8981345" lon="2.7787531"><ele></ele><time>2025-2-28T4:15:57Z</time></trkpt>
<trkpt lat="48.8979753" lon="2.7790059"><ele></ele><time>2025-2-28T4:16:0Z</time></trkpt>
<trkpt lat="48.8978445" lon="2.7792091"><ele></ele><time>2025-2-28T4:16:3Z</time></trkpt>
<trkpt lat="48.8976805" lon="2.7794296"><ele></ele><time>2025-2-28T4:16:6Z</time></trkpt>
<trkpt lat="48.8975452" lon="2.7796421"><ele></ele><time>2025-2-28T4:16:9Z</time></trkpt>
<trkpt lat="48.8974347" lon="2.7798668"><ele></ele><time>2025-2-28T4:16:12Z</time></trkpt>
<trkpt lat="48.8973025" lon="2.7801014"><ele></ele><time>2025-2-28T4:16:15Z</time></trkpt>
<trkpt lat="48.8971722" lon="2.7803392"><ele></ele><time>2025-2-28T4:16:18Z</time></trkpt>
<trkpt lat="48.8970583" lon="2.7805698"><ele></ele><time>2025-2-28T4:16:21Z</time></trkpt>
<trkpt lat="48.8969242" lon="2.7808126"><ele></ele><time>2025-2-28T4:16:24Z</time></trkpt>
<trkpt lat="48.8967885" lon="2.7810267"><ele></ele><time>2025-2-28T4:16:27Z</time></trkpt>
<trkpt lat="48.8966325" lon="2.7812338"><ele></ele><time>2025-2-28T4:16:30Z</time></trkpt>
<trkpt lat="48.8964739" lon="2.7814506"><ele></ele><time>2025-2-28T4:16:33Z</time></trkpt>
<trkpt lat="48.8963610" lon="2.7817100"><ele></ele><time>2025-2-28T4:16:36Z</time></trkpt>
<trkpt lat="48.8961747" lon="2.7818600"><ele></ele><time>2025-2-28T4:16:39Z</time></trkpt>
<trkpt lat="48.8959762" lon="2.7819568"><ele></ele><time>2025-2-28T4:16:42Z</time></trkpt>
<trkpt lat="48.8958373" lon="2.7822048"><ele></ele><time>2025-2-28T4:16:45Z</time></trkpt>
<trkpt lat="48.8957320" lon="2.7824999"><ele></ele><time>2025-2-28T4:16:48Z</time></trkpt>
<trkpt lat="48.8956303" lon="2.7827929"><ele></ele><time>2025-2-28T4:16:51Z</time></trkpt>
<trkpt lat="48.8955393" lon="2.7830814"><ele></ele><time>2025-2-28T4:16:54Z</time></trkpt>
<trkpt lat="48.8954511" lon="2.7833677"><ele></ele><time>2025-2-28T4:16:57Z</time></trkpt>
<trkpt lat="48.8953961" lon="2.7836588"><ele></ele><time>2025-2-28T4:17:0Z</time></trkpt>
<trkpt lat="48.8953340" lon="2.7839586"><ele></ele><time>2025-2-28T4:17:3Z</time></trkpt>
<trkpt lat="48.8952736" lon="2.7842501"><ele></ele><time>2025-2-28T4:17:6Z</time></trkpt>
<trkpt lat="48.8951880" lon="2.7845451"><ele></ele><time>2025-2-28T4:17:9Z</time></trkpt>
<trkpt lat="48.8950996" lon="2.7848173"><ele></ele><time>2025-2-28T4:17:12Z</time></trkpt>
<trkpt lat="48.8950344" lon="2.7851155"><ele></ele><time>2025-2-28T4:17:15Z</time></trkpt>
<trkpt lat="48.8949772" lon="2.7854166"><ele></ele><time>2025-2-28T4:17:18Z</time></trkpt>
<trkpt lat="48.8949702" lon="2.7857404"><ele></ele><time>2025-2-28T4:17:21Z</time></trkpt>
<trkpt lat="48.8949789" lon="2.7860562"><ele></ele><time>2025-2-28T4:17:24Z</time></trkpt>
<trkpt lat="48.8949775" lon="2.7863790"><ele></ele><time>2025-2-28T4:17:27Z</time></trkpt>
<trkpt lat="48.8949569" lon="2.7866915"><ele></ele><time>2025-2-28T4:17:30Z</time></trkpt>
<trkpt lat="48.8949431" lon="2.7870354"><ele></ele><time>2025-2-28T4:17:33Z</time></trkpt>
<trkpt lat="48.8949482" lon="2.7873760"><ele></ele><time>2025-2-28T4:17:36Z</time></trkpt>
<trkpt lat="48.8949499" lon="2.7877078"><ele></ele><time>2025-2-28T4:17:39Z</time></trkpt>
<trkpt lat="48.8949583" lon="2.7880299"><ele></ele><time>2025-2-28T4:17:42Z</time></trkpt>
<trkpt lat="48.8949458" lon="2.7883457"><ele></ele><time>2025-2-28T4:17:45Z</time></trkpt>
<trkpt lat="48.8949428" lon="2.7886289"><ele></ele><time>2025-2-28T4:17:48Z</time></trkpt>
<trkpt lat="48.8949187" lon="2.7889054"><ele></ele><time>2025-2-28T4:17:51Z</time></trkpt>
<trkpt lat="48.8949283" lon="2.7892160"><ele></ele><time>2025-2-28T4:17:54Z</time></trkpt>
<trkpt lat="48.8949709" lon="2.7895390"><ele></ele><time>2025-2-28T4:17:57Z</time></trkpt>
<trkpt lat="48.8950410" lon="2.7898522"><ele></ele><time>2025-2-28T4:18:0Z</time></trkpt>
<trkpt lat="48.8951291" lon="2.7901211"><ele></ele><time>2025-2-28T4:18:3Z</time></trkpt>
<trkpt lat="48.8952310" lon="2.7903852"><ele></ele><time>2025-2-28T4:18:6Z</time></trkpt>
<trkpt lat="48.8953368" lon="2.7906343"><ele></ele><time>2025-2-28T4:18:9Z</time></trkpt>
<trkpt lat="48.8954003" lon="2.7909018"><ele></ele><time>2025-2-28T4:18:12Z</time></trkpt>
<trkpt lat="48.8954849" lon="2.7912048"><ele></ele><time>2025-2-28T4:18:15Z</time></trkpt>
<trkpt lat="48.8955856" lon="2.7914740"><ele></ele><time>2025-2-28T4:18:18Z</time></trkpt>
<trkpt lat="48.8956725" lon="2.7917695"><ele></ele><time>2025-2-28T4:18:21Z</time></trkpt>
<trkpt lat="48.8956918" lon="2.7920573"><ele></ele><time>2025-2-28T4:18:24Z</time></trkpt>
<trkpt lat="48.8959017" lon="2.7920275"><ele></ele><time>2025-2-28T4:18:27Z</time></trkpt>
<trkpt lat="48.8960801" lon="2.7919433"><ele></ele><time>2025-2-28T4:18:30Z</time></trkpt>
<trkpt lat="48.8960528" lon="2.7922336"><ele></ele><time>2025-2-28T4:18:33Z</time></trkpt>
<trkpt lat="48.8958832" lon="2.7923664"><ele></ele><time>2025-2-28T4:18:36Z</time></trkpt>
<trkpt lat="48.8957788" lon="2.7926540"><ele></ele><time>2025-2-28T4:18:39Z</time></trkpt>
<trkpt lat="48.8957072" lon="2.7929320"><ele></ele><time>2025-2-28T4:18:42Z</time></trkpt>
<trkpt lat="48.8956360" lon="2.7932708"><ele></ele><time>2025-2-28T4:18:45Z</time></trkpt>
<trkpt lat="48.8955884" lon="2.7935355"><ele></ele><time>2025-2-28T4:18:48Z</time></trkpt>
<trkpt lat="48.8955209" lon="2.7938515"><ele></ele><time>2025-2-28T4:18:51Z</time></trkpt>
<trkpt lat="48.8954470" lon="2.7941619"><ele></ele><time>2025-2-28T4:18:54Z</time></trkpt>
<trkpt lat="48.8953739" lon="2.7944752"><ele></ele><time>2025-2-28T4:18:57Z</time></trkpt>
<trkpt lat="48.8953027" lon="2.7947802"><ele></ele><time>2025-2-28T4:19:0Z</time></trkpt>
<trkpt lat="48.8952311" lon="2.7950870"><ele></ele><time>2025-2-28T4:19:3Z</time></trkpt>
<trkpt lat="48.8952072" lon="2.7954223"><ele></ele><time>2025-2-28T4:19:6Z</time></trkpt>
<trkpt lat="48.8952544" lon="2.7957454"><ele></ele><time>2025-2-28T4:19:9Z</time></trkpt>
<trkpt lat="48.8953631" lon="2.7960220"><ele></ele><time>2025-2-28T4:19:12Z</time></trkpt>
<trkpt lat="48.8955302" lon="2.7961484"><ele></ele><time>2025-2-28T4:19:15Z</time></trkpt>
<trkpt lat="48.8957255" lon="2.7962945"><ele></ele><time>2025-2-28T4:19:18Z</time></trkpt>
<trkpt lat="48.8958928" lon="2.7965205"><ele></ele><time>2025-2-28T4:19:21Z</time></trkpt>
<trkpt lat="48.8961038" lon="2.7966178"><ele></ele><time>2025-2-28T4:19:24Z</time></trkpt>
<trkpt lat="48.8963274" lon="2.7966144"><ele></ele><time>2025-2-28T4:19:27Z</time></trkpt>
<trkpt lat="48.8965105" lon="2.7966109"><ele></ele><time>2025-2-28T4:19:30Z</time></trkpt>
<trkpt lat="48.8966687" lon="2.7968043"><ele></ele><time>2025-2-28T4:19:33Z</time></trkpt>
<trkpt lat="48.8968426" lon="2.7968863"><ele></ele><time>2025-2-28T4:19:36Z</time></trkpt>
<trkpt lat="48.8966588" lon="2.7968345"><ele></ele><time>2025-2-28T4:19:39Z</time></trkpt>
<trkpt lat="48.8964457" lon="2.7968948"><ele></ele><time>2025-2-28T4:19:42Z</time></trkpt>
<trkpt lat="48.8962519" lon="2.7969700"><ele></ele><time>2025-2-28T4:19:45Z</time></trkpt>
<trkpt lat="48.8962537" lon="2.7972464"><ele></ele><time>2025-2-28T4:19:48Z</time></trkpt>
<trkpt lat="48.8962467" lon="2.7975446"><ele></ele><time>2025-2-28T4:19:51Z</time></trkpt>
<trkpt lat="48.8961994" lon="2.7978113"><ele></ele><time>2025-2-28T4:19:54Z</time></trkpt>
<trkpt lat="48.8962257" lon="2.7981283"><ele></ele><time>2025-2-28T4:19:57Z</time></trkpt>
<trkpt lat="48.8962342" lon="2.7984719"><ele></ele><time>2025-2-28T4:20:0Z</time></trkpt>
<trkpt lat="48.8962537" lon="2.7987489"><ele></ele><time>2025-2-28T4:20:3Z</time></trkpt>
<trkpt lat="48.8962749" lon="2.7990366"><ele></ele><time>2025-2-28T4:20:6Z</time></trkpt>
<trkpt lat="48.8962945" lon="2.7993179"><ele></ele><time>2025-2-28T4:20:9Z</time></trkpt>
<trkpt lat="48.8963258" lon="2.7996129"><ele></ele><time>2025-2-28T4:20:12Z</time></trkpt>
<trkpt lat="48.8963530" lon="2.7999061"><ele></ele><time>2025-2-28T4:20:15Z</time></trkpt>
<trkpt lat="48.8963779" lon="2.8002118"><ele></ele><time>2025-2-28T4:20:18Z</time></trkpt>
<trkpt lat="48.8964023" lon="2.8005247"><ele></ele><time>2025-2-28T4:20:21Z</time></trkpt>
<trkpt lat="48.8964277" lon="2.8008206"><ele></ele><time>2025-2-28T4:20:24Z</time></trkpt>
<trkpt lat="48.8964574" lon="2.8011112"><ele></ele><time>2025-2-28T4:20:27Z</time></trkpt>
<trkpt lat="48.8964740" lon="2.8013925"><ele></ele><time>2025-2-28T4:20:30Z</time></trkpt>
<trkpt lat="48.8965320" lon="2.8016707"><ele></ele><time>2025-2-28T4:20:33Z</time></trkpt>
<trkpt lat="48.8964593" lon="2.8019227"><ele></ele><time>2025-2-28T4:20:36Z</time></trkpt>
<trkpt lat="48.8965612" lon="2.8021507"><ele></ele><time>2025-2-28T4:20:39Z</time></trkpt>
<trkpt lat="48.8966243" lon="2.8024313"><ele></ele><time>2025-2-28T4:20:42Z</time></trkpt>
<trkpt lat="48.8966818" lon="2.8027105"><ele></ele><time>2025-2-28T4:20:45Z</time></trkpt>
<trkpt lat="48.8967392" lon="2.8029848"><ele></ele><time>2025-2-28T4:20:48Z</time></trkpt>
<trkpt lat="48.8967928" lon="2.8032639"><ele></ele><time>2025-2-28T4:20:51Z</time></trkpt>
<trkpt lat="48.8968425" lon="2.8035344"><ele></ele><time>2025-2-28T4:20:54Z</time></trkpt>
<trkpt lat="48.8968896" lon="2.8038034"><ele></ele><time>2025-2-28T4:20:57Z</time></trkpt>
<trkpt lat="48.8969494" lon="2.8040866"><ele></ele><time>2025-2-28T4:21:0Z</time></trkpt>
<trkpt lat="48.8970087" lon="2.8043731"><ele></ele><time>2025-2-28T4:21:3Z</time></trkpt>
<trkpt lat="48.8970652" lon="2.8046785"><ele></ele><time>2025-2-28T4:21:6Z</time></trkpt>
<trkpt lat="48.8971265" lon="2.8050004"><ele></ele><time>2025-2-28T4:21:9Z</time></trkpt>
<trkpt lat="48.8972035" lon="2.8053334"><ele></ele><time>2025-2-28T4:21:12Z</time></trkpt>
<trkpt lat="48.8972731" lon="2.8056393"><ele></ele><time>2025-2-28T4:21:15Z</time></trkpt>
<trkpt lat="48.8973219" lon="2.8059614"><ele></ele><time>2025-2-28T4:21:18Z</time></trkpt>
<trkpt lat="48.8973622" lon="2.8062635"><ele></ele><time>2025-2-28T4:21:21Z</time></trkpt>
<trkpt lat="48.8974239" lon="2.8065676"><ele></ele><time>2025-2-28T4:21:24Z</time></trkpt>
<trkpt lat="48.8974888" lon="2.8068909"><ele></ele><time>2025-2-28T4:21:27Z</time></trkpt>
<trkpt lat="48.8975545" lon="2.8072245"><ele></ele><time>2025-2-28T4:21:30Z</time></trkpt>
<trkpt lat="48.8976196" lon="2.8075791"><ele></ele><time>2025-2-28T4:21:33Z</time></trkpt>
<trkpt lat="48.8976776" lon="2.8078505"><ele></ele><time>2025-2-28T4:21:36Z</time></trkpt>
<trkpt lat="48.8977268" lon="2.8081233"><ele></ele><time>2025-2-28T4:21:39Z</time></trkpt>
<trkpt lat="48.8977827" lon="2.8083886"><ele></ele><time>2025-2-28T4:21:42Z</time></trkpt>
<trkpt lat="48.8978362" lon="2.8086579"><ele></ele><time>2025-2-28T4:21:45Z</time></trkpt>
<trkpt lat="48.8978984" lon="2.8089276"><ele></ele><time>2025-2-28T4:21:48Z</time></trkpt>
<trkpt lat="48.8979786" lon="2.8091966"><ele></ele><time>2025-2-28T4:21:51Z</time></trkpt>
<trkpt lat="48.8980703" lon="2.8094604"><ele></ele><time>2025-2-28T4:21:54Z</time></trkpt>
<trkpt lat="48.8981584" lon="2.8096996"><ele></ele><time>2025-2-28T4:21:57Z</time></trkpt>
<trkpt lat="48.8982909" lon="2.8099922"><ele></ele><time>2025-2-28T4:22:0Z</time></trkpt>
<trkpt lat="48.8983651" lon="2.8103076"><ele></ele><time>2025-2-28T4:22:3Z</time></trkpt>
<trkpt lat="48.8984628" lon="2.8105472"><ele></ele><time>2025-2-28T4:22:6Z</time></trkpt>
<trkpt lat="48.8985615" lon="2.8108280"><ele></ele><time>2025-2-28T4:22:9Z</time></trkpt>
<trkpt lat="48.8986696" lon="2.8111037"><ele></ele><time>2025-2-28T4:22:12Z</time></trkpt>
<trkpt lat="48.8987818" lon="2.8113179"><ele></ele><time>2025-2-28T4:22:15Z</time></trkpt>
<trkpt lat="48.8989829" lon="2.8112991"><ele></ele><time>2025-2-28T4:22:18Z</time></trkpt>
<trkpt lat="48.8991714" lon="2.8112298"><ele></ele><time>2025-2-28T4:22:21Z</time></trkpt>
<trkpt lat="48.8993063" lon="2.8114127"><ele></ele><time>2025-2-28T4:22:24Z</time></trkpt>
<trkpt lat="48.8993145" lon="2.8117549"><ele></ele><time>2025-2-28T4:22:27Z</time></trkpt>
<trkpt lat="48.8993633" lon="2.8120469"><ele></ele><time>2025-2-28T4:22:30Z</time></trkpt>
<trkpt lat="48.8994079" lon="2.8123376"><ele></ele><time>2025-2-28T4:22:33Z</time></trkpt>
<trkpt lat="48.8994528" lon="2.8126165"><ele></ele><time>2025-2-28T4:22:36Z</time></trkpt>
<trkpt lat="48.8994921" lon="2.8128847"><ele></ele><time>2025-2-28T4:22:39Z</time></trkpt>
<trkpt lat="48.8995332" lon="2.8132297"><ele></ele><time>2025-2-28T4:22:42Z</time></trkpt>
<trkpt lat="48.8995849" lon="2.8135744"><ele></ele><time>2025-2-28T4:22:45Z</time></trkpt>
<trkpt lat="48.8996200" lon="2.8139181"><ele></ele><time>2025-2-28T4:22:48Z</time></trkpt>
<trkpt lat="48.8996654" lon="2.8142492"><ele></ele><time>2025-2-28T4:22:51Z</time></trkpt>
<trkpt lat="48.8997189" lon="2.8145707"><ele></ele><time>2025-2-28T4:22:54Z</time></trkpt>
<trkpt lat="48.8997704" lon="2.8148890"><ele></ele><time>2025-2-28T4:22:57Z</time></trkpt>
<trkpt lat="48.8998247" lon="2.8152123"><ele></ele><time>2025-2-28T4:23:0Z</time></trkpt>
<trkpt lat="48.8998642" lon="2.8155305"><ele></ele><time>2025-2-28T4:23:3Z</time></trkpt>
<trkpt lat="48.8999044" lon="2.8158350"><ele></ele><time>2025-2-28T4:23:6Z</time></trkpt>
<trkpt lat="48.8999576" lon="2.8161423"><ele></ele><time>2025-2-28T4:23:9Z</time></trkpt>
<trkpt lat="48.9000013" lon="2.8164673"><ele></ele><time>2025-2-28T4:23:12Z</time></trkpt>
<trkpt lat="48.9000368" lon="2.8167768"><ele></ele><time>2025-2-28T4:23:15Z</time></trkpt>
<trkpt lat="48.9000918" lon="2.8170767"><ele></ele><time>2025-2-28T4:23:18Z</time></trkpt>
<trkpt lat="48.9001513" lon="2.8173915"><ele></ele><time>2025-2-28T4:23:21Z</time></trkpt>
<trkpt lat="48.9002137" lon="2.8176703"><ele></ele><time>2025-2-28T4:23:24Z</time></trkpt>
<trkpt lat="48.9002302" lon="2.8180103"><ele></ele><time>2025-2-28T4:23:27Z</time></trkpt>
<trkpt lat="48.9002501" lon="2.8182993"><ele></ele><time>2025-2-28T4:23:30Z</time></trkpt>
<trkpt lat="48.9002663" lon="2.8185903"><ele></ele><time>2025-2-28T4:23:33Z</time></trkpt>
<trkpt lat="48.9002879" lon="2.8188649"><ele></ele><time>2025-2-28T4:23:36Z</time></trkpt>
<trkpt lat="48.9003646" lon="2.8191817"><ele></ele><time>2025-2-28T4:23:39Z</time></trkpt>
<trkpt lat="48.9004357" lon="2.8195010"><ele></ele><time>2025-2-28T4:23:42Z</time></trkpt>
<trkpt lat="48.9004762" lon="2.8197849"><ele></ele><time>2025-2-28T4:23:45Z</time></trkpt>
<trkpt lat="48.9005520" lon="2.8200448"><ele></ele><time>2025-2-28T4:23:48Z</time></trkpt>
<trkpt lat="48.9005990" lon="2.8203767"><ele></ele><time>2025-2-28T4:23:51Z</time></trkpt>
<trkpt lat="48.9006179" lon="2.8206952"><ele></ele><time>2025-2-28T4:23:54Z</time></trkpt>
<trkpt lat="48.9006729" lon="2.8209959"><ele></ele><time>2025-2-28T4:23:57Z</time></trkpt>
<trkpt lat="48.9006903" lon="2.8212909"><ele></ele><time>2025-2-28T4:24:0Z</time></trkpt>
<trkpt lat="48.9007395" lon="2.8215812"><ele></ele><time>2025-2-28T4:24:3Z</time></trkpt>
<trkpt lat="48.9007968" lon="2.8218762"><ele></ele><time>2025-2-28T4:24:6Z</time></trkpt>
<trkpt lat="48.9008445" lon="2.8221776"><ele></ele><time>2025-2-28T4:24:9Z</time></trkpt>
<trkpt lat="48.9008853" lon="2.8224802"><ele></ele><time>2025-2-28T4:24:12Z</time></trkpt>
<trkpt lat="48.9009392" lon="2.8227979"><ele></ele><time>2025-2-28T4:24:15Z</time></trkpt>
<trkpt lat="48.9010056" lon="2.8230943"><ele></ele><time>2025-2-28T4:24:18Z</time></trkpt>
<trkpt lat="48.9010673" lon="2.8233736"><ele></ele><time>2025-2-28T4:24:21Z</time></trkpt>
<trkpt lat="48.9011162" lon="2.8236678"><ele></ele><time>2025-2-28T4:24:24Z</time></trkpt>
<trkpt lat="48.9011362" lon="2.8239589"><ele></ele><time>2025-2-28T4:24:27Z</time></trkpt>
<trkpt lat="48.9012110" lon="2.8242804"><ele></ele><time>2025-2-28T4:24:30Z</time></trkpt>
<trkpt lat="48.9012321" lon="2.8245571"><ele></ele><time>2025-2-28T4:24:33Z</time></trkpt>
<trkpt lat="48.9012491" lon="2.8248939"><ele></ele><time>2025-2-28T4:24:36Z</time></trkpt>
<trkpt lat="48.9012024" lon="2.8251887"><ele></ele><time>2025-2-28T4:24:39Z</time></trkpt>
<trkpt lat="48.9011763" lon="2.8254747"><ele></ele><time>2025-2-28T4:24:42Z</time></trkpt>
<trkpt lat="48.9011498" lon="2.8257734"><ele></ele><time>2025-2-28T4:24:45Z</time></trkpt>
<trkpt lat="48.9011026" lon="2.8261084"><ele></ele><time>2025-2-28T4:24:48Z</time></trkpt>
<trkpt lat="48.9010667" lon="2.8264118"><ele></ele><time>2025-2-28T4:24:51Z</time></trkpt>
<trkpt lat="48.9010094" lon="2.8267170"><ele></ele><time>2025-2-28T4:24:54Z</time></trkpt>
<trkpt lat="48.9009438" lon="2.8270569"><ele></ele><time>2025-2-28T4:24:57Z</time></trkpt>
<trkpt lat="48.9009091" lon="2.8273656"><ele></ele><time>2025-2-28T4:25:0Z</time></trkpt>
<trkpt lat="48.9008361" lon="2.8276524"><ele></ele><time>2025-2-28T4:25:3Z</time></trkpt>
<trkpt lat="48.9007260" lon="2.8278720"><ele></ele><time>2025-2-28T4:25:6Z</time></trkpt>
<trkpt lat="48.9006678" lon="2.8281701"><ele></ele><time>2025-2-28T4:25:9Z</time></trkpt>
<trkpt lat="48.9005935" lon="2.8284572"><ele></ele><time>2025-2-28T4:25:12Z</time></trkpt>
<trkpt lat="48.9004918" lon="2.8286844"><ele></ele><time>2025-2-28T4:25:15Z</time></trkpt>
<trkpt lat="48.9003847" lon="2.8289231"><ele></ele><time>2025-2-28T4:25:18Z</time></trkpt>
<trkpt lat="48.9002616" lon="2.8291471"><ele></ele><time>2025-2-28T4:25:21Z</time></trkpt>
<trkpt lat="48.9001361" lon="2.8294422"><ele></ele><time>2025-2-28T4:25:24Z</time></trkpt>
<trkpt lat="48.9000052" lon="2.8296857"><ele></ele><time>2025-2-28T4:25:27Z</time></trkpt>
<trkpt lat="48.8998902" lon="2.8299188"><ele></ele><time>2025-2-28T4:25:30Z</time></trkpt>
<trkpt lat="48.8997860" lon="2.8301668"><ele></ele><time>2025-2-28T4:25:33Z</time></trkpt>
<trkpt lat="48.8996951" lon="2.8304418"><ele></ele><time>2025-2-28T4:25:36Z</time></trkpt>
<trkpt lat="48.8996070" lon="2.8307285"><ele></ele><time>2025-2-28T4:25:39Z</time></trkpt>
<trkpt lat="48.8995043" lon="2.8310167"><ele></ele><time>2025-2-28T4:25:42Z</time></trkpt>
<trkpt lat="48.8994099" lon="2.8313210"><ele></ele><time>2025-2-28T4:25:45Z</time></trkpt>
<trkpt lat="48.8993546" lon="2.8316456"><ele></ele><time>2025-2-28T4:25:48Z</time></trkpt>
<trkpt lat="48.8993156" lon="2.8319644"><ele></ele><time>2025-2-28T4:25:51Z</time></trkpt>
<trkpt lat="48.8992817" lon="2.8322654"><ele></ele><time>2025-2-28T4:25:54Z</time></trkpt>
<trkpt lat="48.8991916" lon="2.8325281"><ele></ele><time>2025-2-28T4:25:57Z</time></trkpt>
<trkpt lat="48.8991370" lon="2.8327962"><ele></ele><time>2025-2-28T4:26:0Z</time></trkpt>
<trkpt lat="48.8990896" lon="2.8330619"><ele></ele><time>2025-2-28T4:26:3Z</time></trkpt>
<trkpt lat="48.8990613" lon="2.8333464"><ele></ele><time>2025-2-28T4:26:6Z</time></trkpt>
<trkpt lat="48.8990258" lon="2.8336657"><ele></ele><time>2025-2-28T4:26:9Z</time></trkpt>
<trkpt lat="48.8989949" lon="2.8339359"><ele></ele><time>2025-2-28T4:26:12Z</time></trkpt>
<trkpt lat="48.8989655" lon="2.8342107"><ele></ele><time>2025-2-28T4:26:15Z</time></trkpt>
<trkpt lat="48.8989414" lon="2.8345650"><ele></ele><time>2025-2-28T4:26:18Z</time></trkpt>
<trkpt lat="48.8989167" lon="2.8348376"><ele></ele><time>2025-2-28T4:26:21Z</time></trkpt>
<trkpt lat="48.8988805" lon="2.8351884"><ele></ele><time>2025-2-28T4:26:24Z</time></trkpt>
<trkpt lat="48.8988578" lon="2.8355141"><ele></ele><time>2025-2-28T4:26:27Z</time></trkpt>
<trkpt lat="48.8988452" lon="2.8358292"><ele></ele><time>2025-2-28T4:26:30Z</time></trkpt>
<trkpt lat="48.8988247" lon="2.8361626"><ele></ele><time>2025-2-28T4:26:33Z</time></trkpt>
<trkpt lat="48.8988522" lon="2.8364946"><ele></ele><time>2025-2-28T4:26:36Z</time></trkpt>
<trkpt lat="48.8988118" lon="2.8368488"><ele></ele><time>2025-2-28T4:26:39Z</time></trkpt>
<trkpt lat="48.8988837" lon="2.8371027"><ele></ele><time>2025-2-28T4:26:42Z</time></trkpt>
<trkpt lat="48.8989418" lon="2.8374266"><ele></ele><time>2025-2-28T4:26:45Z</time></trkpt>
<trkpt lat="48.8989680" lon="2.8377728"><ele></ele><time>2025-2-28T4:26:48Z</time></trkpt>
<trkpt lat="48.8989947" lon="2.8380956"><ele></ele><time>2025-2-28T4:26:51Z</time></trkpt>
<trkpt lat="48.8990479" lon="2.8383809"><ele></ele><time>2025-2-28T4:26:54Z</time></trkpt>
<trkpt lat="48.8990695" lon="2.8386857"><ele></ele><time>2025-2-28T4:26:57Z</time></trkpt>
<trkpt lat="48.8990691" lon="2.8389853"><ele></ele><time>2025-2-28T4:27:0Z</time></trkpt>
<trkpt lat="48.8991872" lon="2.8392650"><ele></ele><time>2025-2-28T4:27:3Z</time></trkpt>
<trkpt lat="48.8992574" lon="2.8395812"><ele></ele><time>2025-2-28T4:27:6Z</time></trkpt>
<trkpt lat="48.8993547" lon="2.8398979"><ele></ele><time>2025-2-28T4:27:9Z</time></trkpt>
<trkpt lat="48.8994390" lon="2.8402063"><ele></ele><time>2025-2-28T4:27:12Z</time></trkpt>
<trkpt lat="48.8995392" lon="2.8405094"><ele></ele><time>2025-2-28T4:27:15Z</time></trkpt>
<trkpt lat="48.8996321" lon="2.8408207"><ele></ele><time>2025-2-28T4:27:18Z</time></trkpt>
<trkpt lat="48.8997346" lon="2.8411267"><ele></ele><time>2025-2-28T4:27:21Z</time></trkpt>
<trkpt lat="48.8998415" lon="2.8414088"><ele></ele><time>2025-2-28T4:27:24Z</time></trkpt>
<trkpt lat="48.8999560" lon="2.8416971"><ele></ele><time>2025-2-28T4:27:27Z</time></trkpt>
<trkpt lat="48.9001015" lon="2.8419604"><ele></ele><time>2025-2-28T4:27:30Z</time></trkpt>
<trkpt lat="48.9002355" lon="2.8422270"><ele></ele><time>2025-2-28T4:27:33Z</time></trkpt>
<trkpt lat="48.9003926" lon="2.8424733"><ele></ele><time>2025-2-28T4:27:36Z</time></trkpt>
<trkpt lat="48.9005408" lon="2.8427190"><ele></ele><time>2025-2-28T4:27:39Z</time></trkpt>
<trkpt lat="48.9006783" lon="2.8429708"><ele></ele><time>2025-2-28T4:27:42Z</time></trkpt>
<trkpt lat="48.9008243" lon="2.8432064"><ele></ele><time>2025-2-28T4:27:45Z</time></trkpt>
<trkpt lat="48.9009655" lon="2.8434168"><ele></ele><time>2025-2-28T4:27:48Z</time></trkpt>
<trkpt lat="48.9010963" lon="2.8436222"><ele></ele><time>2025-2-28T4:27:51Z</time></trkpt>
<trkpt lat="48.9012497" lon="2.8438370"><ele></ele><time>2025-2-28T4:27:54Z</time></trkpt>
<trkpt lat="48.9014198" lon="2.8440355"><ele></ele><time>2025-2-28T4:27:57Z</time></trkpt>
<trkpt lat="48.9015782" lon="2.8442298"><ele></ele><time>2025-2-28T4:28:0Z</time></trkpt>
<trkpt lat="48.9017331" lon="2.8444272"><ele></ele><time>2025-2-28T4:28:3Z</time></trkpt>
<trkpt lat="48.9019087" lon="2.8445983"><ele></ele><time>2025-2-28T4:28:6Z</time></trkpt>
<trkpt lat="48.9020868" lon="2.8447602"><ele></ele><time>2025-2-28T4:28:9Z</time></trkpt>
<trkpt lat="48.9022645" lon="2.8448992"><ele></ele><time>2025-2-28T4:28:12Z</time></trkpt>
<trkpt lat="48.9024444" lon="2.8450434"><ele></ele><time>2025-2-28T4:28:15Z</time></trkpt>
<trkpt lat="48.9026323" lon="2.8451760"><ele></ele><time>2025-2-28T4:28:18Z</time></trkpt>
<trkpt lat="48.9028104" lon="2.8453216"><ele></ele><time>2025-2-28T4:28:21Z</time></trkpt>
<trkpt lat="48.9029969" lon="2.8454710"><ele></ele><time>2025-2-28T4:28:24Z</time></trkpt>
<trkpt lat="48.9031698" lon="2.8455942"><ele></ele><time>2025-2-28T4:28:27Z</time></trkpt>
<trkpt lat="48.9033413" lon="2.8457480"><ele></ele><time>2025-2-28T4:28:30Z</time></trkpt>
<trkpt lat="48.9034890" lon="2.8459108"><ele></ele><time>2025-2-28T4:28:33Z</time></trkpt>
<trkpt lat="48.9036970" lon="2.8460658"><ele></ele><time>2025-2-28T4:28:36Z</time></trkpt>
<trkpt lat="48.9038659" lon="2.8462086"><ele></ele><time>2025-2-28T4:28:39Z</time></trkpt>
<trkpt lat="48.9040383" lon="2.8462913"><ele></ele><time>2025-2-28T4:28:42Z</time></trkpt>
<trkpt lat="48.9042115" lon="2.8464519"><ele></ele><time>2025-2-28T4:28:45Z</time></trkpt>
<trkpt lat="48.9044166" lon="2.8466134"><ele></ele><time>2025-2-28T4:28:48Z</time></trkpt>
<trkpt lat="48.9045832" lon="2.8467624"><ele></ele><time>2025-2-28T4:28:51Z</time></trkpt>
<trkpt lat="48.9047788" lon="2.8469039"><ele></ele><time>2025-2-28T4:28:54Z</time></trkpt>
<trkpt lat="48.9049315" lon="2.8470488"><ele></ele><time>2025-2-28T4:28:57Z</time></trkpt>
<trkpt lat="48.9051319" lon="2.8471673"><ele></ele><time>2025-2-28T4:29:0Z</time></trkpt>
<trkpt lat="48.9052851" lon="2.8473314"><ele></ele><time>2025-2-28T4:29:3Z</time></trkpt>
<trkpt lat="48.9054877" lon="2.8474878"><ele></ele><time>2025-2-28T4:29:6Z</time></trkpt>
<trkpt lat="48.9056642" lon="2.8476024"><ele></ele><time>2025-2-28T4:29:9Z</time></trkpt>
<trkpt lat="48.9058299" lon="2.8477138"><ele></ele><time>2025-2-28T4:29:12Z</time></trkpt>
<trkpt lat="48.9059990" lon="2.8478406"><ele></ele><time>2025-2-28T4:29:15Z</time></trkpt>
<trkpt lat="48.9061861" lon="2.8479676"><ele></ele><time>2025-2-28T4:29:18Z</time></trkpt>
<trkpt lat="48.9063553" lon="2.8480967"><ele></ele><time>2025-2-28T4:29:21Z</time></trkpt>
<trkpt lat="48.9065282" lon="2.8482196"><ele></ele><time>2025-2-28T4:29:24Z</time></trkpt>
<trkpt lat="48.9067085" lon="2.8483351"><ele></ele><time>2025-2-28T4:29:27Z</time></trkpt>
<trkpt lat="48.9068821" lon="2.8484671"><ele></ele><time>2025-2-28T4:29:30Z</time></trkpt>
<trkpt lat="48.9070824" lon="2.8485623"><ele></ele><time>2025-2-28T4:29:33Z</time></trkpt>
<trkpt lat="48.9072890" lon="2.8485963"><ele></ele><time>2025-2-28T4:29:36Z</time></trkpt>
<trkpt lat="48.9074769" lon="2.8486419"><ele></ele><time>2025-2-28T4:29:39Z</time></trkpt>
<trkpt lat="48.9076485" lon="2.8487295"><ele></ele><time>2025-2-28T4:29:42Z</time></trkpt>
<trkpt lat="48.9078545" lon="2.8487877"><ele></ele><time>2025-2-28T4:29:45Z</time></trkpt>
<trkpt lat="48.9080348" lon="2.8488698"><ele></ele><time>2025-2-28T4:29:48Z</time></trkpt>
<trkpt lat="48.9082129" lon="2.8489188"><ele></ele><time>2025-2-28T4:29:51Z</time></trkpt>
<trkpt lat="48.9084317" lon="2.8489998"><ele></ele><time>2025-2-28T4:29:54Z</time></trkpt>
<trkpt lat="48.9086562" lon="2.8491295"><ele></ele><time>2025-2-28T4:29:57Z</time></trkpt>
<trkpt lat="48.9088345" lon="2.8491816"><ele></ele><time>2025-2-28T4:30:0Z</time></trkpt>
<trkpt lat="48.9090601" lon="2.8492797"><ele></ele><time>2025-2-28T4:30:3Z</time></trkpt>
<trkpt lat="48.9092808" lon="2.8493690"><ele></ele><time>2025-2-28T4:30:6Z</time></trkpt>
<trkpt lat="48.9094899" lon="2.8494508"><ele></ele><time>2025-2-28T4:30:9Z</time></trkpt>
<trkpt lat="48.9096932" lon="2.8495283"><ele></ele><time>2025-2-28T4:30:12Z</time></trkpt>
<trkpt lat="48.9099048" lon="2.8496063"><ele></ele><time>2025-2-28T4:30:15Z</time></trkpt>
<trkpt lat="48.9101331" lon="2.8496732"><ele></ele><time>2025-2-28T4:30:18Z</time></trkpt>
<trkpt lat="48.9103457" lon="2.8497435"><ele></ele><time>2025-2-28T4:30:21Z</time></trkpt>
<trkpt lat="48.9105567" lon="2.8498325"><ele></ele><time>2025-2-28T4:30:24Z</time></trkpt>
<trkpt lat="48.9107677" lon="2.8499130"><ele></ele><time>2025-2-28T4:30:27Z</time></trkpt>
<trkpt lat="48.9109739" lon="2.8499762"><ele></ele><time>2025-2-28T4:30:30Z</time></trkpt>
<trkpt lat="48.9111659" lon="2.8501019"><ele></ele><time>2025-2-28T4:30:33Z</time></trkpt>
<trkpt lat="48.9113766" lon="2.8501578"><ele></ele><time>2025-2-28T4:30:36Z</time></trkpt>
<trkpt lat="48.9115572" lon="2.8502492"><ele></ele><time>2025-2-28T4:30:39Z</time></trkpt>
<trkpt lat="48.9117713" lon="2.8503063"><ele></ele><time>2025-2-28T4:30:42Z</time></trkpt>
<trkpt lat="48.9120011" lon="2.8503866"><ele></ele><time>2025-2-28T4:30:45Z</time></trkpt>
<trkpt lat="48.9121943" lon="2.8504407"><ele></ele><time>2025-2-28T4:30:48Z</time></trkpt>
<trkpt lat="48.9123715" lon="2.8505054"><ele></ele><time>2025-2-28T4:30:51Z</time></trkpt>
<trkpt lat="48.9125559" lon="2.8505714"><ele></ele><time>2025-2-28T4:30:54Z</time></trkpt>
<trkpt lat="48.9127493" lon="2.8506412"><ele></ele><time>2025-2-28T4:30:57Z</time></trkpt>
<trkpt lat="48.9129219" lon="2.8507340"><ele></ele><time>2025-2-28T4:31:0Z</time></trkpt>
<trkpt lat="48.9131406" lon="2.8508257"><ele></ele><time>2025-2-28T4:31:3Z</time></trkpt>
<trkpt lat="48.9133364" lon="2.8508833"><ele></ele><time>2025-2-28T4:31:6Z</time></trkpt>
<trkpt lat="48.9135791" lon="2.8509537"><ele></ele><time>2025-2-28T4:31:9Z</time></trkpt>
<trkpt lat="48.9138116" lon="2.8510495"><ele></ele><time>2025-2-28T4:31:12Z</time></trkpt>
<trkpt lat="48.9140405" lon="2.8511366"><ele></ele><time>2025-2-28T4:31:15Z</time></trkpt>
<trkpt lat="48.9142749" lon="2.8512247"><ele></ele><time>2025-2-28T4:31:18Z</time></trkpt>
<trkpt lat="48.9144755" lon="2.8513063"><ele></ele><time>2025-2-28T4:31:21Z</time></trkpt>
<trkpt lat="48.9146998" lon="2.8513831"><ele></ele><time>2025-2-28T4:31:24Z</time></trkpt>
<trkpt lat="48.9149229" lon="2.8514525"><ele></ele><time>2025-2-28T4:31:27Z</time></trkpt>
<trkpt lat="48.9151284" lon="2.8515549"><ele></ele><time>2025-2-28T4:31:30Z</time></trkpt>
<trkpt lat="48.9153532" lon="2.8516178"><ele></ele><time>2025-2-28T4:31:33Z</time></trkpt>
<trkpt lat="48.9155759" lon="2.8516915"><ele></ele><time>2025-2-28T4:31:36Z</time></trkpt>
<trkpt lat="48.9158027" lon="2.8517469"><ele></ele><time>2025-2-28T4:31:39Z</time></trkpt>
<trkpt lat="48.9160220" lon="2.8518296"><ele></ele><time>2025-2-28T4:31:42Z</time></trkpt>
<trkpt lat="48.9162344" lon="2.8519284"><ele></ele><time>2025-2-28T4:31:45Z</time></trkpt>
<trkpt lat="48.9164606" lon="2.8520077"><ele></ele><time>2025-2-28T4:31:48Z</time></trkpt>
<trkpt lat="48.9166870" lon="2.8520869"><ele></ele><time>2025-2-28T4:31:51Z</time></trkpt>
<trkpt lat="48.9169019" lon="2.8521768"><ele></ele><time>2025-2-28T4:31:54Z</time></trkpt>
<trkpt lat="48.9171103" lon="2.8522638"><ele></ele><time>2025-2-28T4:31:57Z</time></trkpt>
<trkpt lat="48.9173268" lon="2.8523309"><ele></ele><time>2025-2-28T4:32:0Z</time></trkpt>
<trkpt lat="48.9175404" lon="2.8524161"><ele></ele><time>2025-2-28T4:32:3Z</time></trkpt>
<trkpt lat="48.9177427" lon="2.8525046"><ele></ele><time>2025-2-28T4:32:6Z</time></trkpt>
<trkpt lat="48.9179514" lon="2.8525675"><ele></ele><time>2025-2-28T4:32:9Z</time></trkpt>
<trkpt lat="48.9181675" lon="2.8526572"><ele></ele><time>2025-2-28T4:32:12Z</time></trkpt>
<trkpt lat="48.9183855" lon="2.8527345"><ele></ele><time>2025-2-28T4:32:15Z</time></trkpt>
<trkpt lat="48.9186089" lon="2.8528071"><ele></ele><time>2025-2-28T4:32:18Z</time></trkpt>
<trkpt lat="48.9188332" lon="2.8528886"><ele></ele><time>2025-2-28T4:32:21Z</time></trkpt>
<trkpt lat="48.9190529" lon="2.8529888"><ele></ele><time>2025-2-28T4:32:24Z</time></trkpt>
<trkpt lat="48.9192655" lon="2.8530552"><ele></ele><time>2025-2-28T4:32:27Z</time></trkpt>
<trkpt lat="48.9194474" lon="2.8530615"><ele></ele><time>2025-2-28T4:32:30Z</time></trkpt>
<trkpt lat="48.9196382" lon="2.8531243"><ele></ele><time>2025-2-28T4:32:33Z</time></trkpt>
<trkpt lat="48.9198234" lon="2.8532032"><ele></ele><time>2025-2-28T4:32:36Z</time></trkpt>
<trkpt lat="48.9200194" lon="2.8532767"><ele></ele><time>2025-2-28T4:32:39Z</time></trkpt>
<trkpt lat="48.9202157" lon="2.8533337"><ele></ele><time>2025-2-28T4:32:42Z</time></trkpt>
<trkpt lat="48.9203949" lon="2.8534076"><ele></ele><time>2025-2-28T4:32:45Z</time></trkpt>
<trkpt lat="48.9205758" lon="2.8534767"><ele></ele><time>2025-2-28T4:32:48Z</time></trkpt>
<trkpt lat="48.9207897" lon="2.8535661"><ele></ele><time>2025-2-28T4:32:51Z</time></trkpt>
<trkpt lat="48.9210000" lon="2.8536404"><ele></ele><time>2025-2-28T4:32:54Z</time></trkpt>
<trkpt lat="48.9212157" lon="2.8537203"><ele></ele><time>2025-2-28T4:32:57Z</time></trkpt>
<trkpt lat="48.9214235" lon="2.8537952"><ele></ele><time>2025-2-28T4:33:0Z</time></trkpt>
<trkpt lat="48.9216304" lon="2.8538687"><ele></ele><time>2025-2-28T4:33:3Z</time></trkpt>
<trkpt lat="48.9218328" lon="2.8539496"><ele></ele><time>2025-2-28T4:33:6Z</time></trkpt>
<trkpt lat="48.9220340" lon="2.8540252"><ele></ele><time>2025-2-28T4:33:9Z</time></trkpt>
<trkpt lat="48.9222434" lon="2.8541066"><ele></ele><time>2025-2-28T4:33:12Z</time></trkpt>
<trkpt lat="48.9224556" lon="2.8541722"><ele></ele><time>2025-2-28T4:33:15Z</time></trkpt>
<trkpt lat="48.9226793" lon="2.8542486"><ele></ele><time>2025-2-28T4:33:18Z</time></trkpt>
<trkpt lat="48.9228932" lon="2.8543308"><ele></ele><time>2025-2-28T4:33:21Z</time></trkpt>
<trkpt lat="48.9231078" lon="2.8544090"><ele></ele><time>2025-2-28T4:33:24Z</time></trkpt>
<trkpt lat="48.9233269" lon="2.8545004"><ele></ele><time>2025-2-28T4:33:27Z</time></trkpt>
<trkpt lat="48.9235528" lon="2.8545778"><ele></ele><time>2025-2-28T4:33:30Z</time></trkpt>
<trkpt lat="48.9237743" lon="2.8546550"><ele></ele><time>2025-2-28T4:33:33Z</time></trkpt>
<trkpt lat="48.9239926" lon="2.8547337"><ele></ele><time>2025-2-28T4:33:36Z</time></trkpt>
<trkpt lat="48.9242051" lon="2.8548184"><ele></ele><time>2025-2-28T4:33:39Z</time></trkpt>
<trkpt lat="48.9244288" lon="2.8549221"><ele></ele><time>2025-2-28T4:33:42Z</time></trkpt>
<trkpt lat="48.9246591" lon="2.8549875"><ele></ele><time>2025-2-28T4:33:45Z</time></trkpt>
<trkpt lat="48.9248680" lon="2.8550926"><ele></ele><time>2025-2-28T4:33:48Z</time></trkpt>
<trkpt lat="48.9250799" lon="2.8551735"><ele></ele><time>2025-2-28T4:33:51Z</time></trkpt>
<trkpt lat="48.9252684" lon="2.8552115"><ele></ele><time>2025-2-28T4:33:54Z</time></trkpt>
<trkpt lat="48.9254411" lon="2.8553107"><ele></ele><time>2025-2-28T4:33:57Z</time></trkpt>
<trkpt lat="48.9256200" lon="2.8554513"><ele></ele><time>2025-2-28T4:34:0Z</time></trkpt>
<trkpt lat="48.9258007" lon="2.8555565"><ele></ele><time>2025-2-28T4:34:3Z</time></trkpt>
<trkpt lat="48.9259864" lon="2.8556524"><ele></ele><time>2025-2-28T4:34:6Z</time></trkpt>
<trkpt lat="48.9261962" lon="2.8557829"><ele></ele><time>2025-2-28T4:34:9Z</time></trkpt>
<trkpt lat="48.9264081" lon="2.8558898"><ele></ele><time>2025-2-28T4:34:12Z</time></trkpt>
<trkpt lat="48.9265911" lon="2.8560083"><ele></ele><time>2025-2-28T4:34:15Z</time></trkpt>
<trkpt lat="48.9267689" lon="2.8561684"><ele></ele><time>2025-2-28T4:34:18Z</time></trkpt>
<trkpt lat="48.9269436" lon="2.8563324"><ele></ele><time>2025-2-28T4:34:21Z</time></trkpt>
<trkpt lat="48.9271262" lon="2.8564870"><ele></ele><time>2025-2-28T4:34:24Z</time></trkpt>
<trkpt lat="48.9273147" lon="2.8566628"><ele></ele><time>2025-2-28T4:34:27Z</time></trkpt>
<trkpt lat="48.9274956" lon="2.8567874"><ele></ele><time>2025-2-28T4:34:30Z</time></trkpt>
<trkpt lat="48.9276703" lon="2.8569422"><ele></ele><time>2025-2-28T4:34:33Z</time></trkpt>
<trkpt lat="48.9278122" lon="2.8571395"><ele></ele><time>2025-2-28T4:34:36Z</time></trkpt>
<trkpt lat="48.9279828" lon="2.8573160"><ele></ele><time>2025-2-28T4:34:39Z</time></trkpt>
<trkpt lat="48.9281718" lon="2.8574963"><ele></ele><time>2025-2-28T4:34:42Z</time></trkpt>
<trkpt lat="48.9283495" lon="2.8576647"><ele></ele><time>2025-2-28T4:34:45Z</time></trkpt>
<trkpt lat="48.9285024" lon="2.8578203"><ele></ele><time>2025-2-28T4:34:48Z</time></trkpt>
<trkpt lat="48.9286626" lon="2.8579578"><ele></ele><time>2025-2-28T4:34:51Z</time></trkpt>
<trkpt lat="48.9288110" lon="2.8581393"><ele></ele><time>2025-2-28T4:34:54Z</time></trkpt>
<trkpt lat="48.9289621" lon="2.8583316"><ele></ele><time>2025-2-28T4:34:57Z</time></trkpt>
<trkpt lat="48.9291277" lon="2.8585005"><ele></ele><time>2025-2-28T4:35:0Z</time></trkpt>
<trkpt lat="48.9292964" lon="2.8586272"><ele></ele><time>2025-2-28T4:35:3Z</time></trkpt>
<trkpt lat="48.9294499" lon="2.8588227"><ele></ele><time>2025-2-28T4:35:6Z</time></trkpt>
<trkpt lat="48.9296332" lon="2.8590064"><ele></ele><time>2025-2-28T4:35:9Z</time></trkpt>
<trkpt lat="48.9298190" lon="2.8591625"><ele></ele><time>2025-2-28T4:35:12Z</time></trkpt>
<trkpt lat="48.9299908" lon="2.8592585"><ele></ele><time>2025-2-28T4:35:15Z</time></trkpt>
<trkpt lat="48.9301208" lon="2.8594519"><ele></ele><time>2025-2-28T4:35:18Z</time></trkpt>
<trkpt lat="48.9302949" lon="2.8595248"><ele></ele><time>2025-2-28T4:35:21Z</time></trkpt>
<trkpt lat="48.9304293" lon="2.8597469"><ele></ele><time>2025-2-28T4:35:24Z</time></trkpt>
<trkpt lat="48.9305875" lon="2.8599374"><ele></ele><time>2025-2-28T4:35:27Z</time></trkpt>
<trkpt lat="48.9307617" lon="2.8600778"><ele></ele><time>2025-2-28T4:35:30Z</time></trkpt>
<trkpt lat="48.9309278" lon="2.8602244"><ele></ele><time>2025-2-28T4:35:33Z</time></trkpt>
<trkpt lat="48.9310924" lon="2.8604163"><ele></ele><time>2025-2-28T4:35:36Z</time></trkpt>
<trkpt lat="48.9312555" lon="2.8605521"><ele></ele><time>2025-2-28T4:35:39Z</time></trkpt>
<trkpt lat="48.9314291" lon="2.8606907"><ele></ele><time>2025-2-28T4:35:42Z</time></trkpt>
<trkpt lat="48.9315523" lon="2.8608934"><ele></ele><time>2025-2-28T4:35:45Z</time></trkpt>
<trkpt lat="48.9317064" lon="2.8610779"><ele></ele><time>2025-2-28T4:35:48Z</time></trkpt>
<trkpt lat="48.9318421" lon="2.8612648"><ele></ele><time>2025-2-28T4:35:51Z</time></trkpt>
<trkpt lat="48.9320000" lon="2.8613966"><ele></ele><time>2025-2-28T4:35:54Z</time></trkpt>
<trkpt lat="48.9321769" lon="2.8615138"><ele></ele><time>2025-2-28T4:35:57Z</time></trkpt>
<trkpt lat="48.9323276" lon="2.8616691"><ele></ele><time>2025-2-28T4:36:0Z</time></trkpt>
<trkpt lat="48.9324832" lon="2.8618067"><ele></ele><time>2025-2-28T4:36:3Z</time></trkpt>
<trkpt lat="48.9326174" lon="2.8619964"><ele></ele><time>2025-2-28T4:36:6Z</time></trkpt>
<trkpt lat="48.9327628" lon="2.8621683"><ele></ele><time>2025-2-28T4:36:9Z</time></trkpt>
<trkpt lat="48.9329484" lon="2.8623313"><ele></ele><time>2025-2-28T4:36:12Z</time></trkpt>
<trkpt lat="48.9331171" lon="2.8624729"><ele></ele><time>2025-2-28T4:36:15Z</time></trkpt>
<trkpt lat="48.9332819" lon="2.8626841"><ele></ele><time>2025-2-28T4:36:18Z</time></trkpt>
<trkpt lat="48.9334579" lon="2.8628328"><ele></ele><time>2025-2-28T4:36:21Z</time></trkpt>
<trkpt lat="48.9336134" lon="2.8629773"><ele></ele><time>2025-2-28T4:36:24Z</time></trkpt>
<trkpt lat="48.9337918" lon="2.8630813"><ele></ele><time>2025-2-28T4:36:27Z</time></trkpt>
<trkpt lat="48.9339500" lon="2.8632291"><ele></ele><time>2025-2-28T4:36:30Z</time></trkpt>
<trkpt lat="48.9340968" lon="2.8634060"><ele></ele><time>2025-2-28T4:36:33Z</time></trkpt>
<trkpt lat="48.9342508" lon="2.8635791"><ele></ele><time>2025-2-28T4:36:36Z</time></trkpt>
<trkpt lat="48.9344153" lon="2.8637098"><ele></ele><time>2025-2-28T4:36:39Z</time></trkpt>
<trkpt lat="48.9345857" lon="2.8638783"><ele></ele><time>2025-2-28T4:36:42Z</time></trkpt>
<trkpt lat="48.9347573" lon="2.8640442"><ele></ele><time>2025-2-28T4:36:45Z</time></trkpt>
<trkpt lat="48.9348830" lon="2.8642410"><ele></ele><time>2025-2-28T4:36:48Z</time></trkpt>
<trkpt lat="48.9350823" lon="2.8643951"><ele></ele><time>2025-2-28T4:36:51Z</time></trkpt>
<trkpt lat="48.9352733" lon="2.8645436"><ele></ele><time>2025-2-28T4:36:54Z</time></trkpt>
<trkpt lat="48.9354300" lon="2.8647334"><ele></ele><time>2025-2-28T4:36:57Z</time></trkpt>
<trkpt lat="48.9355987" lon="2.8648775"><ele></ele><time>2025-2-28T4:37:0Z</time></trkpt>
<trkpt lat="48.9357599" lon="2.8650262"><ele></ele><time>2025-2-28T4:37:3Z</time></trkpt>
<trkpt lat="48.9359110" lon="2.8652187"><ele></ele><time>2025-2-28T4:37:6Z</time></trkpt>
<trkpt lat="48.9360771" lon="2.8653869"><ele></ele><time>2025-2-28T4:37:9Z</time></trkpt>
<trkpt lat="48.9362511" lon="2.8654689"><ele></ele><time>2025-2-28T4:37:12Z</time></trkpt>
<trkpt lat="48.9363872" lon="2.8656481"><ele></ele><time>2025-2-28T4:37:15Z</time></trkpt>
<trkpt lat="48.9365561" lon="2.8658363"><ele></ele><time>2025-2-28T4:37:18Z</time></trkpt>
<trkpt lat="48.9367277" lon="2.8660286"><ele></ele><time>2025-2-28T4:37:21Z</time></trkpt>
<trkpt lat="48.9368714" lon="2.8661997"><ele></ele><time>2025-2-28T4:37:24Z</time></trkpt>
<trkpt lat="48.9370603" lon="2.8663528"><ele></ele><time>2025-2-28T4:37:27Z</time></trkpt>
<trkpt lat="48.9372261" lon="2.8665389"><ele></ele><time>2025-2-28T4:37:30Z</time></trkpt>
<trkpt lat="48.9373990" lon="2.8666561"><ele></ele><time>2025-2-28T4:37:33Z</time></trkpt>
<trkpt lat="48.9375594" lon="2.8668356"><ele></ele><time>2025-2-28T4:37:36Z</time></trkpt>
<trkpt lat="48.9377209" lon="2.8669811"><ele></ele><time>2025-2-28T4:37:39Z</time></trkpt>
<trkpt lat="48.9379044" lon="2.8671520"><ele></ele><time>2025-2-28T4:37:42Z</time></trkpt>
<trkpt lat="48.9380459" lon="2.8673396"><ele></ele><time>2025-2-28T4:37:45Z</time></trkpt>
<trkpt lat="48.9382124" lon="2.8674699"><ele></ele><time>2025-2-28T4:37:48Z</time></trkpt>
<trkpt lat="48.9383816" lon="2.8676267"><ele></ele><time>2025-2-28T4:37:51Z</time></trkpt>
<trkpt lat="48.9385584" lon="2.8677818"><ele></ele><time>2025-2-28T4:37:54Z</time></trkpt>
<trkpt lat="48.9387016" lon="2.8679787"><ele></ele><time>2025-2-28T4:37:57Z</time></trkpt>
<trkpt lat="48.9388704" lon="2.8681176"><ele></ele><time>2025-2-28T4:38:0Z</time></trkpt>
<trkpt lat="48.9390315" lon="2.8682774"><ele></ele><time>2025-2-28T4:38:3Z</time></trkpt>
<trkpt lat="48.9391896" lon="2.8684434"><ele></ele><time>2025-2-28T4:38:6Z</time></trkpt>
<trkpt lat="48.9393441" lon="2.8686062"><ele></ele><time>2025-2-28T4:38:9Z</time></trkpt>
<trkpt lat="48.9395083" lon="2.8687549"><ele></ele><time>2025-2-28T4:38:12Z</time></trkpt>
<trkpt lat="48.9396618" lon="2.8689093"><ele></ele><time>2025-2-28T4:38:15Z</time></trkpt>
<trkpt lat="48.9398269" lon="2.8690863"><ele></ele><time>2025-2-28T4:38:18Z</time></trkpt>
<trkpt lat="48.9399787" lon="2.8692480"><ele></ele><time>2025-2-28T4:38:21Z</time></trkpt>
<trkpt lat="48.9401397" lon="2.8693982"><ele></ele><time>2025-2-28T4:38:24Z</time></trkpt>
<trkpt lat="48.9403024" lon="2.8696011"><ele></ele><time>2025-2-28T4:38:27Z</time></trkpt>
<trkpt lat="48.9404845" lon="2.8697480"><ele></ele><time>2025-2-28T4:38:30Z</time></trkpt>
<trkpt lat="48.9406482" lon="2.8698951"><ele></ele><time>2025-2-28T4:38:33Z</time></trkpt>
<trkpt lat="48.9407998" lon="2.8700459"><ele></ele><time>2025-2-28T4:38:36Z</time></trkpt>
<trkpt lat="48.9409702" lon="2.8701519"><ele></ele><time>2025-2-28T4:38:39Z</time></trkpt>
<trkpt lat="48.9411220" lon="2.8703188"><ele></ele><time>2025-2-28T4:38:42Z</time></trkpt>
<trkpt lat="48.9412971" lon="2.8704749"><ele></ele><time>2025-2-28T4:38:45Z</time></trkpt>
<trkpt lat="48.9414705" lon="2.8706494"><ele></ele><time>2025-2-28T4:38:48Z</time></trkpt>
<trkpt lat="48.9416465" lon="2.8707976"><ele></ele><time>2025-2-28T4:38:51Z</time></trkpt>
<trkpt lat="48.9418215" lon="2.8710016"><ele></ele><time>2025-2-28T4:38:54Z</time></trkpt>
<trkpt lat="48.9419911" lon="2.8711960"><ele></ele><time>2025-2-28T4:38:57Z</time></trkpt>
<trkpt lat="48.9421508" lon="2.8713396"><ele></ele><time>2025-2-28T4:39:0Z</time></trkpt>
<trkpt lat="48.9423117" lon="2.8715107"><ele></ele><time>2025-2-28T4:39:3Z</time></trkpt>
<trkpt lat="48.9424704" lon="2.8716704"><ele></ele><time>2025-2-28T4:39:6Z</time></trkpt>
<trkpt lat="48.9426439" lon="2.8718504"><ele></ele><time>2025-2-28T4:39:9Z</time></trkpt>
<trkpt lat="48.9428190" lon="2.8720433"><ele></ele><time>2025-2-28T4:39:12Z</time></trkpt>
<trkpt lat="48.9429789" lon="2.8721955"><ele></ele><time>2025-2-28T4:39:15Z</time></trkpt>
<trkpt lat="48.9431539" lon="2.8723426"><ele></ele><time>2025-2-28T4:39:18Z</time></trkpt>
<trkpt lat="48.9433224" lon="2.8725190"><ele></ele><time>2025-2-28T4:39:21Z</time></trkpt>
<trkpt lat="48.9434815" lon="2.8726880"><ele></ele><time>2025-2-28T4:39:24Z</time></trkpt>
<trkpt lat="48.9436543" lon="2.8728615"><ele></ele><time>2025-2-28T4:39:27Z</time></trkpt>
<trkpt lat="48.9438307" lon="2.8730366"><ele></ele><time>2025-2-28T4:39:30Z</time></trkpt>
<trkpt lat="48.9439988" lon="2.8732035"><ele></ele><time>2025-2-28T4:39:33Z</time></trkpt>
<trkpt lat="48.9441636" lon="2.8733726"><ele></ele><time>2025-2-28T4:39:36Z</time></trkpt>
<trkpt lat="48.9443270" lon="2.8735333"><ele></ele><time>2025-2-28T4:39:39Z</time></trkpt>
<trkpt lat="48.9444917" lon="2.8736966"><ele></ele><time>2025-2-28T4:39:42Z</time></trkpt>
<trkpt lat="48.9446664" lon="2.8738475"><ele></ele><time>2025-2-28T4:39:45Z</time></trkpt>
<trkpt lat="48.9448406" lon="2.8740278"><ele></ele><time>2025-2-28T4:39:48Z</time></trkpt>
<trkpt lat="48.9450106" lon="2.8742157"><ele></ele><time>2025-2-28T4:39:51Z</time></trkpt>
<trkpt lat="48.9451774" lon="2.8743853"><ele></ele><time>2025-2-28T4:39:54Z</time></trkpt>
<trkpt lat="48.9453492" lon="2.8745575"><ele></ele><time>2025-2-28T4:39:57Z</time></trkpt>
<trkpt lat="48.9455300" lon="2.8747226"><ele></ele><time>2025-2-28T4:40:0Z</time></trkpt>
<trkpt lat="48.9457123" lon="2.8748895"><ele></ele><time>2025-2-28T4:40:3Z</time></trkpt>
<trkpt lat="48.9458802" lon="2.8750807"><ele></ele><time>2025-2-28T4:40:6Z</time></trkpt>
<trkpt lat="48.9460639" lon="2.8752581"><ele></ele><time>2025-2-28T4:40:9Z</time></trkpt>
<trkpt lat="48.9462364" lon="2.8754409"><ele></ele><time>2025-2-28T4:40:12Z</time></trkpt>
<trkpt lat="48.9464117" lon="2.8756078"><ele></ele><time>2025-2-28T4:40:15Z</time></trkpt>
<trkpt lat="48.9465929" lon="2.8757911"><ele></ele><time>2025-2-28T4:40:18Z</time></trkpt>
<trkpt lat="48.9467788" lon="2.8759789"><ele></ele><time>2025-2-28T4:40:21Z</time></trkpt>
<trkpt lat="48.9469428" lon="2.8761279"><ele></ele><time>2025-2-28T4:40:24Z</time></trkpt>
<trkpt lat="48.9471091" lon="2.8762769"><ele></ele><time>2025-2-28T4:40:27Z</time></trkpt>
<trkpt lat="48.9472836" lon="2.8764147"><ele></ele><time>2025-2-28T4:40:30Z</time></trkpt>
<trkpt lat="48.9474661" lon="2.8765331"><ele></ele><time>2025-2-28T4:40:33Z</time></trkpt>
<trkpt lat="48.9476502" lon="2.8766477"><ele></ele><time>2025-2-28T4:40:36Z</time></trkpt>
<trkpt lat="48.9478390" lon="2.8767455"><ele></ele><time>2025-2-28T4:40:39Z</time></trkpt>
<trkpt lat="48.9480109" lon="2.8768418"><ele></ele><time>2025-2-28T4:40:42Z</time></trkpt>
<trkpt lat="48.9481786" lon="2.8769441"><ele></ele><time>2025-2-28T4:40:45Z</time></trkpt>
<trkpt lat="48.9483689" lon="2.8770375"><ele></ele><time>2025-2-28T4:40:48Z</time></trkpt>
<trkpt lat="48.9485499" lon="2.8771301"><ele></ele><time>2025-2-28T4:40:51Z</time></trkpt>
<trkpt lat="48.9487341" lon="2.8772135"><ele></ele><time>2025-2-28T4:40:54Z</time></trkpt>
<trkpt lat="48.9489168" lon="2.8773040"><ele></ele><time>2025-2-28T4:40:57Z</time></trkpt>
<trkpt lat="48.9490971" lon="2.8773859"><ele></ele><time>2025-2-28T4:41:0Z</time></trkpt>
<trkpt lat="48.9492734" lon="2.8774547"><ele></ele><time>2025-2-28T4:41:3Z</time></trkpt>
<trkpt lat="48.9494531" lon="2.8775332"><ele></ele><time>2025-2-28T4:41:6Z</time></trkpt>
<trkpt lat="48.9496379" lon="2.8776358"><ele></ele><time>2025-2-28T4:41:9Z</time></trkpt>
<trkpt lat="48.9498075" lon="2.8777305"><ele></ele><time>2025-2-28T4:41:12Z</time></trkpt>
<trkpt lat="48.9499982" lon="2.8778318"><ele></ele><time>2025-2-28T4:41:15Z</time></trkpt>
<trkpt lat="48.9501992" lon="2.8779272"><ele></ele><time>2025-2-28T4:41:18Z</time></trkpt>
<trkpt lat="48.9503927" lon="2.8779938"><ele></ele><time>2025-2-28T4:41:21Z</time></trkpt>
<trkpt lat="48.9505817" lon="2.8780405"><ele></ele><time>2025-2-28T4:41:24Z</time></trkpt>
<trkpt lat="48.9507666" lon="2.8779602"><ele></ele><time>2025-2-28T4:41:27Z</time></trkpt>
<trkpt lat="48.9509397" lon="2.8781300"><ele></ele><time>2025-2-28T4:41:30Z</time></trkpt>
<trkpt lat="48.9510074" lon="2.8784235"><ele></ele><time>2025-2-28T4:41:33Z</time></trkpt>
<trkpt lat="48.9510485" lon="2.8787031"><ele></ele><time>2025-2-28T4:41:36Z</time></trkpt>
<trkpt lat="48.9511749" lon="2.8789163"><ele></ele><time>2025-2-28T4:41:39Z</time></trkpt>
<trkpt lat="48.9513220" lon="2.8791104"><ele></ele><time>2025-2-28T4:41:42Z</time></trkpt>
<trkpt lat="48.9514183" lon="2.8793468"><ele></ele><time>2025-2-28T4:41:45Z</time></trkpt>
<trkpt lat="48.9515967" lon="2.8794158"><ele></ele><time>2025-2-28T4:41:48Z</time></trkpt>
<trkpt lat="48.9514333" lon="2.8795419"><ele></ele><time>2025-2-28T4:41:51Z</time></trkpt>
<trkpt lat="48.9512432" lon="2.8795466"><ele></ele><time>2025-2-28T4:41:54Z</time></trkpt>
<trkpt lat="48.9510498" lon="2.8796172"><ele></ele><time>2025-2-28T4:41:57Z</time></trkpt>
<trkpt lat="48.9508627" lon="2.8796396"><ele></ele><time>2025-2-28T4:42:0Z</time></trkpt>
<trkpt lat="48.9506823" lon="2.8796879"><ele></ele><time>2025-2-28T4:42:3Z</time></trkpt>
<trkpt lat="48.9504899" lon="2.8796655"><ele></ele><time>2025-2-28T4:42:6Z</time></trkpt>
<trkpt lat="48.9503411" lon="2.8794364"><ele></ele><time>2025-2-28T4:42:9Z</time></trkpt>
<trkpt lat="48.9501373" lon="2.8793400"><ele></ele><time>2025-2-28T4:42:12Z</time></trkpt>
<trkpt lat="48.9499600" lon="2.8792624"><ele></ele><time>2025-2-28T4:42:15Z</time></trkpt>
<trkpt lat="48.9497799" lon="2.8791520"><ele></ele><time>2025-2-28T4:42:18Z</time></trkpt>
<trkpt lat="48.9495885" lon="2.8789841"><ele></ele><time>2025-2-28T4:42:21Z</time></trkpt>
<trkpt lat="48.9493785" lon="2.8788154"><ele></ele><time>2025-2-28T4:42:24Z</time></trkpt>
<trkpt lat="48.9491560" lon="2.8786174"><ele></ele><time>2025-2-28T4:42:27Z</time></trkpt>
<trkpt lat="48.9489278" lon="2.8783976"><ele></ele><time>2025-2-28T4:42:30Z</time></trkpt>
<trkpt lat="48.9487191" lon="2.8781372"><ele></ele><time>2025-2-28T4:42:33Z</time></trkpt>
<trkpt lat="48.9484961" lon="2.8779277"><ele></ele><time>2025-2-28T4:42:36Z</time></trkpt>
<trkpt lat="48.9482842" lon="2.8777295"><ele></ele><time>2025-2-28T4:42:39Z</time></trkpt>
<trkpt lat="48.9480680" lon="2.8775733"><ele></ele><time>2025-2-28T4:42:42Z</time></trkpt>
<trkpt lat="48.9478650" lon="2.8774594"><ele></ele><time>2025-2-28T4:42:45Z</time></trkpt>
<trkpt lat="48.9476761" lon="2.8773698"><ele></ele><time>2025-2-28T4:42:48Z</time></trkpt>
<trkpt lat="48.9475033" lon="2.8772894"><ele></ele><time>2025-2-28T4:42:51Z</time></trkpt>
<trkpt lat="48.9472802" lon="2.8771847"><ele></ele><time>2025-2-28T4:42:54Z</time></trkpt>
<trkpt lat="48.9470769" lon="2.8770457"><ele></ele><time>2025-2-28T4:42:57Z</time></trkpt>
<trkpt lat="48.9468911" lon="2.8768649"><ele></ele><time>2025-2-28T4:43:0Z</time></trkpt>
<trkpt lat="48.9467331" lon="2.8767274"><ele></ele><time>2025-2-28T4:43:3Z</time></trkpt>
<trkpt lat="48.9465439" lon="2.8765190"><ele></ele><time>2025-2-28T4:43:6Z</time></trkpt>
<trkpt lat="48.9463386" lon="2.8763396"><ele></ele><time>2025-2-28T4:43:9Z</time></trkpt>
<trkpt lat="48.9461413" lon="2.8761702"><ele></ele><time>2025-2-28T4:43:12Z</time></trkpt>
<trkpt lat="48.9459433" lon="2.8759985"><ele></ele><time>2025-2-28T4:43:15Z</time></trkpt>
<trkpt lat="48.9457380" lon="2.8758454"><ele></ele><time>2025-2-28T4:43:18Z</time></trkpt>
<trkpt lat="48.9455258" lon="2.8756830"><ele></ele><time>2025-2-28T4:43:21Z</time></trkpt>
<trkpt lat="48.9453103" lon="2.8755528"><ele></ele><time>2025-2-28T4:43:24Z</time></trkpt>
<trkpt lat="48.9451004" lon="2.8753975"><ele></ele><time>2025-2-28T4:43:27Z</time></trkpt>
<trkpt lat="48.9448959" lon="2.8752348"><ele></ele><time>2025-2-28T4:43:30Z</time></trkpt>
<trkpt lat="48.9446882" lon="2.8750994"><ele></ele><time>2025-2-28T4:43:33Z</time></trkpt>
<trkpt lat="48.9444992" lon="2.8749679"><ele></ele><time>2025-2-28T4:43:36Z</time></trkpt>
<trkpt lat="48.9443066" lon="2.8748218"><ele></ele><time>2025-2-28T4:43:39Z</time></trkpt>
<trkpt lat="48.9441126" lon="2.8746773"><ele></ele><time>2025-2-28T4:43:42Z</time></trkpt>
<trkpt lat="48.9439137" lon="2.8745171"><ele></ele><time>2025-2-28T4:43:45Z</time></trkpt>
<trkpt lat="48.9437438" lon="2.8743377"><ele></ele><time>2025-2-28T4:43:48Z</time></trkpt>
<trkpt lat="48.9435642" lon="2.8741720"><ele></ele><time>2025-2-28T4:43:51Z</time></trkpt>
<trkpt lat="48.9433748" lon="2.8740195"><ele></ele><time>2025-2-28T4:43:54Z</time></trkpt>
<trkpt lat="48.9431917" lon="2.8738474"><ele></ele><time>2025-2-28T4:43:57Z</time></trkpt>
<trkpt lat="48.9430026" lon="2.8736590"><ele></ele><time>2025-2-28T4:44:0Z</time></trkpt>
<trkpt lat="48.9428220" lon="2.8734856"><ele></ele><time>2025-2-28T4:44:3Z</time></trkpt>
<trkpt lat="48.9426490" lon="2.8733205"><ele></ele><time>2025-2-28T4:44:6Z</time></trkpt>
<trkpt lat="48.9424773" lon="2.8731636"><ele></ele><time>2025-2-28T4:44:9Z</time></trkpt>
<trkpt lat="48.9423155" lon="2.8729907"><ele></ele><time>2025-2-28T4:44:12Z</time></trkpt>
<trkpt lat="48.9421529" lon="2.8728600"><ele></ele><time>2025-2-28T4:44:15Z</time></trkpt>
<trkpt lat="48.9419878" lon="2.8726532"><ele></ele><time>2025-2-28T4:44:18Z</time></trkpt>
<trkpt lat="48.9418459" lon="2.8724794"><ele></ele><time>2025-2-28T4:44:21Z</time></trkpt>
<trkpt lat="48.9416760" lon="2.8722818"><ele></ele><time>2025-2-28T4:44:24Z</time></trkpt>
<trkpt lat="48.9415333" lon="2.8720682"><ele></ele><time>2025-2-28T4:44:27Z</time></trkpt>
<trkpt lat="48.9413747" lon="2.8718729"><ele></ele><time>2025-2-28T4:44:30Z</time></trkpt>
<trkpt lat="48.9412325" lon="2.8716892"><ele></ele><time>2025-2-28T4:44:33Z</time></trkpt>
<trkpt lat="48.9410905" lon="2.8715169"><ele></ele><time>2025-2-28T4:44:36Z</time></trkpt>
<trkpt lat="48.9409380" lon="2.8713461"><ele></ele><time>2025-2-28T4:44:39Z</time></trkpt>
<trkpt lat="48.9407932" lon="2.8711427"><ele></ele><time>2025-2-28T4:44:42Z</time></trkpt>
<trkpt lat="48.9406222" lon="2.8710218"><ele></ele><time>2025-2-28T4:44:45Z</time></trkpt>
<trkpt lat="48.9404578" lon="2.8708241"><ele></ele><time>2025-2-28T4:44:48Z</time></trkpt>
<trkpt lat="48.9403178" lon="2.8706340"><ele></ele><time>2025-2-28T4:44:51Z</time></trkpt>
<trkpt lat="48.9401565" lon="2.8704473"><ele></ele><time>2025-2-28T4:44:54Z</time></trkpt>
<trkpt lat="48.9400225" lon="2.8702423"><ele></ele><time>2025-2-28T4:44:57Z</time></trkpt>
<trkpt lat="48.9398728" lon="2.8700552"><ele></ele><time>2025-2-28T4:45:0Z</time></trkpt>
<trkpt lat="48.9397409" lon="2.8698492"><ele></ele><time>2025-2-28T4:45:3Z</time></trkpt>
<trkpt lat="48.9395920" lon="2.8696070"><ele></ele><time>2025-2-28T4:45:6Z</time></trkpt>
<trkpt lat="48.9394324" lon="2.8694693"><ele></ele><time>2025-2-28T4:45:9Z</time></trkpt>
<trkpt lat="48.9392858" lon="2.8692778"><ele></ele><time>2025-2-28T4:45:12Z</time></trkpt>
<trkpt lat="48.9391383" lon="2.8690902"><ele></ele><time>2025-2-28T4:45:15Z</time></trkpt>
<trkpt lat="48.9389690" lon="2.8689396"><ele></ele><time>2025-2-28T4:45:18Z</time></trkpt>
<trkpt lat="48.9387858" lon="2.8687844"><ele></ele><time>2025-2-28T4:45:21Z</time></trkpt>
<trkpt lat="48.9386127" lon="2.8686180"><ele></ele><time>2025-2-28T4:45:24Z</time></trkpt>
<trkpt lat="48.9384469" lon="2.8684555"><ele></ele><time>2025-2-28T4:45:27Z</time></trkpt>
<trkpt lat="48.9382774" lon="2.8683214"><ele></ele><time>2025-2-28T4:45:30Z</time></trkpt>
<trkpt lat="48.9380997" lon="2.8680826"><ele></ele><time>2025-2-28T4:45:33Z</time></trkpt>
<trkpt lat="48.9379459" lon="2.8679303"><ele></ele><time>2025-2-28T4:45:36Z</time></trkpt>
<trkpt lat="48.9377848" lon="2.8677632"><ele></ele><time>2025-2-28T4:45:39Z</time></trkpt>
<trkpt lat="48.9376287" lon="2.8675697"><ele></ele><time>2025-2-28T4:45:42Z</time></trkpt>
<trkpt lat="48.9374439" lon="2.8674413"><ele></ele><time>2025-2-28T4:45:45Z</time></trkpt>
<trkpt lat="48.9372597" lon="2.8672745"><ele></ele><time>2025-2-28T4:45:48Z</time></trkpt>
<trkpt lat="48.9370956" lon="2.8671295"><ele></ele><time>2025-2-28T4:45:51Z</time></trkpt>
<trkpt lat="48.9368775" lon="2.8668805"><ele></ele><time>2025-2-28T4:45:54Z</time></trkpt>
<trkpt lat="48.9367336" lon="2.8666897"><ele></ele><time>2025-2-28T4:45:57Z</time></trkpt>
<trkpt lat="48.9365536" lon="2.8665652"><ele></ele><time>2025-2-28T4:46:0Z</time></trkpt>
<trkpt lat="48.9363874" lon="2.8663700"><ele></ele><time>2025-2-28T4:46:3Z</time></trkpt>
<trkpt lat="48.9362201" lon="2.8662546"><ele></ele><time>2025-2-28T4:46:6Z</time></trkpt>
<trkpt lat="48.9361282" lon="2.8659926"><ele></ele><time>2025-2-28T4:46:9Z</time></trkpt>
<trkpt lat="48.9359167" lon="2.8659681"><ele></ele><time>2025-2-28T4:46:12Z</time></trkpt>
<trkpt lat="48.9357527" lon="2.8658372"><ele></ele><time>2025-2-28T4:46:15Z</time></trkpt>
<trkpt lat="48.9356009" lon="2.8656887"><ele></ele><time>2025-2-28T4:46:18Z</time></trkpt>
<trkpt lat="48.9354364" lon="2.8655179"><ele></ele><time>2025-2-28T4:46:21Z</time></trkpt>
<trkpt lat="48.9352628" lon="2.8653627"><ele></ele><time>2025-2-28T4:46:24Z</time></trkpt>
<trkpt lat="48.9350864" lon="2.8651967"><ele></ele><time>2025-2-28T4:46:27Z</time></trkpt>
<trkpt lat="48.9349066" lon="2.8650102"><ele></ele><time>2025-2-28T4:46:30Z</time></trkpt>
<trkpt lat="48.9347589" lon="2.8648529"><ele></ele><time>2025-2-28T4:46:33Z</time></trkpt>
<trkpt lat="48.9345584" lon="2.8646711"><ele></ele><time>2025-2-28T4:46:36Z</time></trkpt>
<trkpt lat="48.9343611" lon="2.8644820"><ele></ele><time>2025-2-28T4:46:39Z</time></trkpt>
<trkpt lat="48.9342024" lon="2.8643231"><ele></ele><time>2025-2-28T4:46:42Z</time></trkpt>
<trkpt lat="48.9340037" lon="2.8641270"><ele></ele><time>2025-2-28T4:46:45Z</time></trkpt>
<trkpt lat="48.9338041" lon="2.8639442"><ele></ele><time>2025-2-28T4:46:48Z</time></trkpt>
<trkpt lat="48.9336106" lon="2.8637798"><ele></ele><time>2025-2-28T4:46:51Z</time></trkpt>
<trkpt lat="48.9334019" lon="2.8636659"><ele></ele><time>2025-2-28T4:46:54Z</time></trkpt>
<trkpt lat="48.9332343" lon="2.8635066"><ele></ele><time>2025-2-28T4:46:57Z</time></trkpt>
<trkpt lat="48.9331500" lon="2.8632475"><ele></ele><time>2025-2-28T4:47:0Z</time></trkpt>
<trkpt lat="48.9330074" lon="2.8630605"><ele></ele><time>2025-2-28T4:47:3Z</time></trkpt>
<trkpt lat="48.9328085" lon="2.8629352"><ele></ele><time>2025-2-28T4:47:6Z</time></trkpt>
<trkpt lat="48.9326394" lon="2.8627315"><ele></ele><time>2025-2-28T4:47:9Z</time></trkpt>
<trkpt lat="48.9324499" lon="2.8625262"><ele></ele><time>2025-2-28T4:47:12Z</time></trkpt>
<trkpt lat="48.9322889" lon="2.8623669"><ele></ele><time>2025-2-28T4:47:15Z</time></trkpt>
<trkpt lat="48.9321253" lon="2.8621981"><ele></ele><time>2025-2-28T4:47:18Z</time></trkpt>
<trkpt lat="48.9319554" lon="2.8620394"><ele></ele><time>2025-2-28T4:47:21Z</time></trkpt>
<trkpt lat="48.9317784" lon="2.8618740"><ele></ele><time>2025-2-28T4:47:24Z</time></trkpt>
<trkpt lat="48.9316142" lon="2.8616851"><ele></ele><time>2025-2-28T4:47:27Z</time></trkpt>
<trkpt lat="48.9314288" lon="2.8615239"><ele></ele><time>2025-2-28T4:47:30Z</time></trkpt>
<trkpt lat="48.9312472" lon="2.8613537"><ele></ele><time>2025-2-28T4:47:33Z</time></trkpt>
<trkpt lat="48.9310932" lon="2.8611694"><ele></ele><time>2025-2-28T4:47:36Z</time></trkpt>
<trkpt lat="48.9308857" lon="2.8609743"><ele></ele><time>2025-2-28T4:47:39Z</time></trkpt>
<trkpt lat="48.9307146" lon="2.8608443"><ele></ele><time>2025-2-28T4:47:42Z</time></trkpt>
<trkpt lat="48.9305532" lon="2.8606699"><ele></ele><time>2025-2-28T4:47:45Z</time></trkpt>
<trkpt lat="48.9304006" lon="2.8605064"><ele></ele><time>2025-2-28T4:47:48Z</time></trkpt>
<trkpt lat="48.9302578" lon="2.8603318"><ele></ele><time>2025-2-28T4:47:51Z</time></trkpt>
<trkpt lat="48.9300958" lon="2.8601655"><ele></ele><time>2025-2-28T4:47:54Z</time></trkpt>
<trkpt lat="48.9299297" lon="2.8600249"><ele></ele><time>2025-2-28T4:47:57Z</time></trkpt>
<trkpt lat="48.9297584" lon="2.8598915"><ele></ele><time>2025-2-28T4:48:0Z</time></trkpt>
<trkpt lat="48.9295968" lon="2.8597570"><ele></ele><time>2025-2-28T4:48:3Z</time></trkpt>
<trkpt lat="48.9294496" lon="2.8595966"><ele></ele><time>2025-2-28T4:48:6Z</time></trkpt>
<trkpt lat="48.9292797" lon="2.8594664"><ele></ele><time>2025-2-28T4:48:9Z</time></trkpt>
<trkpt lat="48.9291307" lon="2.8593108"><ele></ele><time>2025-2-28T4:48:12Z</time></trkpt>
<trkpt lat="48.9289268" lon="2.8591350"><ele></ele><time>2025-2-28T4:48:15Z</time></trkpt>
<trkpt lat="48.9287389" lon="2.8589296"><ele></ele><time>2025-2-28T4:48:18Z</time></trkpt>
<trkpt lat="48.9285657" lon="2.8587101"><ele></ele><time>2025-2-28T4:48:21Z</time></trkpt>
<trkpt lat="48.9283970" lon="2.8585278"><ele></ele><time>2025-2-28T4:48:24Z</time></trkpt>
<trkpt lat="48.9282388" lon="2.8583590"><ele></ele><time>2025-2-28T4:48:27Z</time></trkpt>
<trkpt lat="48.9280710" lon="2.8581871"><ele></ele><time>2025-2-28T4:48:30Z</time></trkpt>
<trkpt lat="48.9279146" lon="2.8580336"><ele></ele><time>2025-2-28T4:48:33Z</time></trkpt>
<trkpt lat="48.9277560" lon="2.8578734"><ele></ele><time>2025-2-28T4:48:36Z</time></trkpt>
<trkpt lat="48.9275985" lon="2.8577019"><ele></ele><time>2025-2-28T4:48:39Z</time></trkpt>
<trkpt lat="48.9274517" lon="2.8575393"><ele></ele><time>2025-2-28T4:48:42Z</time></trkpt>
<trkpt lat="48.9272825" lon="2.8574028"><ele></ele><time>2025-2-28T4:48:45Z</time></trkpt>
<trkpt lat="48.9271240" lon="2.8571662"><ele></ele><time>2025-2-28T4:48:48Z</time></trkpt>
<trkpt lat="48.9269573" lon="2.8569867"><ele></ele><time>2025-2-28T4:48:51Z</time></trkpt>
<trkpt lat="48.9267844" lon="2.8568328"><ele></ele><time>2025-2-28T4:48:54Z</time></trkpt>
<trkpt lat="48.9266040" lon="2.8566820"><ele></ele><time>2025-2-28T4:48:57Z</time></trkpt>
<trkpt lat="48.9264132" lon="2.8565489"><ele></ele><time>2025-2-28T4:49:0Z</time></trkpt>
<trkpt lat="48.9262246" lon="2.8564292"><ele></ele><time>2025-2-28T4:49:3Z</time></trkpt>
<trkpt lat="48.9260417" lon="2.8562948"><ele></ele><time>2025-2-28T4:49:6Z</time></trkpt>
<trkpt lat="48.9258551" lon="2.8561839"><ele></ele><time>2025-2-28T4:49:9Z</time></trkpt>
<trkpt lat="48.9256871" lon="2.8560572"><ele></ele><time>2025-2-28T4:49:12Z</time></trkpt>
<trkpt lat="48.9255184" lon="2.8559439"><ele></ele><time>2025-2-28T4:49:15Z</time></trkpt>
<trkpt lat="48.9253319" lon="2.8559033"><ele></ele><time>2025-2-28T4:49:18Z</time></trkpt>
<trkpt lat="48.9251468" lon="2.8557760"><ele></ele><time>2025-2-28T4:49:21Z</time></trkpt>
<trkpt lat="48.9249369" lon="2.8557338"><ele></ele><time>2025-2-28T4:49:24Z</time></trkpt>
<trkpt lat="48.9247523" lon="2.8556996"><ele></ele><time>2025-2-28T4:49:27Z</time></trkpt>
<trkpt lat="48.9249412" lon="2.8557579"><ele></ele><time>2025-2-28T4:49:30Z</time></trkpt>
<trkpt lat="48.9251394" lon="2.8558154"><ele></ele><time>2025-2-28T4:49:33Z</time></trkpt>
<trkpt lat="48.9252649" lon="2.8560156"><ele></ele><time>2025-2-28T4:49:36Z</time></trkpt>
<trkpt lat="48.9251858" lon="2.8562833"><ele></ele><time>2025-2-28T4:49:39Z</time></trkpt>
<trkpt lat="48.9251128" lon="2.8565883"><ele></ele><time>2025-2-28T4:49:42Z</time></trkpt>
<trkpt lat="48.9249676" lon="2.8567680"><ele></ele><time>2025-2-28T4:49:45Z</time></trkpt>
<trkpt lat="48.9247779" lon="2.8566765"><ele></ele><time>2025-2-28T4:49:48Z</time></trkpt>
<trkpt lat="48.9246056" lon="2.8565790"><ele></ele><time>2025-2-28T4:49:51Z</time></trkpt>
<trkpt lat="48.9244871" lon="2.8563675"><ele></ele><time>2025-2-28T4:49:54Z</time></trkpt>
<trkpt lat="48.9243377" lon="2.8561280"><ele></ele><time>2025-2-28T4:49:57Z</time></trkpt>
<trkpt lat="48.9244691" lon="2.8563172"><ele></ele><time>2025-2-28T4:50:0Z</time></trkpt>
<trkpt lat="48.9245928" lon="2.8565625"><ele></ele><time>2025-2-28T4:50:3Z</time></trkpt>
<trkpt lat="48.9247624" lon="2.8566633"><ele></ele><time>2025-2-28T4:50:6Z</time></trkpt>
<trkpt lat="48.9249588" lon="2.8567590"><ele></ele><time>2025-2-28T4:50:9Z</time></trkpt>
<trkpt lat="48.9250438" lon="2.8570420"><ele></ele><time>2025-2-28T4:50:12Z</time></trkpt>
<trkpt lat="48.9250013" lon="2.8573163"><ele></ele><time>2025-2-28T4:50:15Z</time></trkpt>
<trkpt lat="48.9249306" lon="2.8575953"><ele></ele><time>2025-2-28T4:50:18Z</time></trkpt>
<trkpt lat="48.9247238" lon="2.8575025"><ele></ele><time>2025-2-28T4:50:21Z</time></trkpt>
<trkpt lat="48.9245439" lon="2.8573710"><ele></ele><time>2025-2-28T4:50:24Z</time></trkpt>
<trkpt lat="48.9243391" lon="2.8572464"><ele></ele><time>2025-2-28T4:50:27Z</time></trkpt>
<trkpt lat="48.9241321" lon="2.8571157"><ele></ele><time>2025-2-28T4:50:30Z</time></trkpt>
<trkpt lat="48.9239151" lon="2.8570349"><ele></ele><time>2025-2-28T4:50:33Z</time></trkpt>
<trkpt lat="48.9237386" lon="2.8569561"><ele></ele><time>2025-2-28T4:50:36Z</time></trkpt>
<trkpt lat="48.9235558" lon="2.8568973"><ele></ele><time>2025-2-28T4:50:39Z</time></trkpt>
<trkpt lat="48.9233799" lon="2.8568116"><ele></ele><time>2025-2-28T4:50:42Z</time></trkpt>
<trkpt lat="48.9231606" lon="2.8567503"><ele></ele><time>2025-2-28T4:50:45Z</time></trkpt>
<trkpt lat="48.9229437" lon="2.8566809"><ele></ele><time>2025-2-28T4:50:48Z</time></trkpt>
<trkpt lat="48.9227638" lon="2.8566284"><ele></ele><time>2025-2-28T4:50:51Z</time></trkpt>
<trkpt lat="48.9225796" lon="2.8565399"><ele></ele><time>2025-2-28T4:50:54Z</time></trkpt>
<trkpt lat="48.9223889" lon="2.8564716"><ele></ele><time>2025-2-28T4:50:57Z</time></trkpt>
<trkpt lat="48.9221769" lon="2.8563966"><ele></ele><time>2025-2-28T4:51:0Z</time></trkpt>
<trkpt lat="48.9219835" lon="2.8563137"><ele></ele><time>2025-2-28T4:51:3Z</time></trkpt>
<trkpt lat="48.9217864" lon="2.8562518"><ele></ele><time>2025-2-28T4:51:6Z</time></trkpt>
<trkpt lat="48.9216116" lon="2.8561859"><ele></ele><time>2025-2-28T4:51:9Z</time></trkpt>
<trkpt lat="48.9214161" lon="2.8560999"><ele></ele><time>2025-2-28T4:51:12Z</time></trkpt>
<trkpt lat="48.9212311" lon="2.8560453"><ele></ele><time>2025-2-28T4:51:15Z</time></trkpt>
<trkpt lat="48.9210394" lon="2.8559568"><ele></ele><time>2025-2-28T4:51:18Z</time></trkpt>
<trkpt lat="48.9208476" lon="2.8558968"><ele></ele><time>2025-2-28T4:51:21Z</time></trkpt>
<trkpt lat="48.9206416" lon="2.8557983"><ele></ele><time>2025-2-28T4:51:24Z</time></trkpt>
<trkpt lat="48.9204739" lon="2.8556988"><ele></ele><time>2025-2-28T4:51:27Z</time></trkpt>
<trkpt lat="48.9202780" lon="2.8555713"><ele></ele><time>2025-2-28T4:51:30Z</time></trkpt>
<trkpt lat="48.9200910" lon="2.8554325"><ele></ele><time>2025-2-28T4:51:33Z</time></trkpt>
<trkpt lat="48.9199218" lon="2.8552946"><ele></ele><time>2025-2-28T4:51:36Z</time></trkpt>
<trkpt lat="48.9197445" lon="2.8551822"><ele></ele><time>2025-2-28T4:51:39Z</time></trkpt>
<trkpt lat="48.9195575" lon="2.8550517"><ele></ele><time>2025-2-28T4:51:42Z</time></trkpt>
<trkpt lat="48.9193426" lon="2.8549426"><ele></ele><time>2025-2-28T4:51:45Z</time></trkpt>
<trkpt lat="48.9191661" lon="2.8548707"><ele></ele><time>2025-2-28T4:51:48Z</time></trkpt>
<trkpt lat="48.9189747" lon="2.8548215"><ele></ele><time>2025-2-28T4:51:51Z</time></trkpt>
<trkpt lat="48.9187876" lon="2.8547708"><ele></ele><time>2025-2-28T4:51:54Z</time></trkpt>
<trkpt lat="48.9185885" lon="2.8547330"><ele></ele><time>2025-2-28T4:51:57Z</time></trkpt>
<trkpt lat="48.9183902" lon="2.8546815"><ele></ele><time>2025-2-28T4:52:0Z</time></trkpt>
<trkpt lat="48.9181896" lon="2.8546240"><ele></ele><time>2025-2-28T4:52:3Z</time></trkpt>
<trkpt lat="48.9179777" lon="2.8545676"><ele></ele><time>2025-2-28T4:52:6Z</time></trkpt>
<trkpt lat="48.9177763" lon="2.8545187"><ele></ele><time>2025-2-28T4:52:9Z</time></trkpt>
<trkpt lat="48.9175808" lon="2.8544786"><ele></ele><time>2025-2-28T4:52:12Z</time></trkpt>
<trkpt lat="48.9173862" lon="2.8544399"><ele></ele><time>2025-2-28T4:52:15Z</time></trkpt>
<trkpt lat="48.9171889" lon="2.8544068"><ele></ele><time>2025-2-28T4:52:18Z</time></trkpt>
<trkpt lat="48.9170089" lon="2.8543751"><ele></ele><time>2025-2-28T4:52:21Z</time></trkpt>
<trkpt lat="48.9168498" lon="2.8542014"><ele></ele><time>2025-2-28T4:52:24Z</time></trkpt>
<trkpt lat="48.9169414" lon="2.8539592"><ele></ele><time>2025-2-28T4:52:27Z</time></trkpt>
<trkpt lat="48.9171359" lon="2.8538592"><ele></ele><time>2025-2-28T4:52:30Z</time></trkpt>
<trkpt lat="48.9173232" lon="2.8538102"><ele></ele><time>2025-2-28T4:52:33Z</time></trkpt>
<trkpt lat="48.9175015" lon="2.8537251"><ele></ele><time>2025-2-28T4:52:36Z</time></trkpt>
<trkpt lat="48.9176179" lon="2.8534948"><ele></ele><time>2025-2-28T4:52:39Z</time></trkpt>
<trkpt lat="48.9176676" lon="2.8532297"><ele></ele><time>2025-2-28T4:52:42Z</time></trkpt>
<trkpt lat="48.9176826" lon="2.8529567"><ele></ele><time>2025-2-28T4:52:45Z</time></trkpt>
<trkpt lat="48.9177473" lon="2.8526559"><ele></ele><time>2025-2-28T4:52:48Z</time></trkpt>
<trkpt lat="48.9178037" lon="2.8523653"><ele></ele><time>2025-2-28T4:52:51Z</time></trkpt>
<trkpt lat="48.9178497" lon="2.8520815"><ele></ele><time>2025-2-28T4:52:54Z</time></trkpt>
<trkpt lat="48.9178341" lon="2.8518065"><ele></ele><time>2025-2-28T4:52:57Z</time></trkpt>
<trkpt lat="48.9178124" lon="2.8520930"><ele></ele><time>2025-2-28T4:53:0Z</time></trkpt>
<trkpt lat="48.9178019" lon="2.8523811"><ele></ele><time>2025-2-28T4:53:3Z</time></trkpt>
<trkpt lat="48.9177640" lon="2.8526496"><ele></ele><time>2025-2-28T4:53:6Z</time></trkpt>
<trkpt lat="48.9176348" lon="2.8528717"><ele></ele><time>2025-2-28T4:53:9Z</time></trkpt>
<trkpt lat="48.9176228" lon="2.8531879"><ele></ele><time>2025-2-28T4:53:12Z</time></trkpt>
<trkpt lat="48.9175595" lon="2.8534513"><ele></ele><time>2025-2-28T4:53:15Z</time></trkpt>
<trkpt lat="48.9174194" lon="2.8536537"><ele></ele><time>2025-2-28T4:53:18Z</time></trkpt>
<trkpt lat="48.9171764" lon="2.8537637"><ele></ele><time>2025-2-28T4:53:21Z</time></trkpt>
<trkpt lat="48.9169116" lon="2.8539713"><ele></ele><time>2025-2-28T4:53:24Z</time></trkpt>
<trkpt lat="48.9167925" lon="2.8542026"><ele></ele><time>2025-2-28T4:53:27Z</time></trkpt>
<trkpt lat="48.9166126" lon="2.8543245"><ele></ele><time>2025-2-28T4:53:30Z</time></trkpt>
<trkpt lat="48.9163985" lon="2.8542859"><ele></ele><time>2025-2-28T4:53:33Z</time></trkpt>
<trkpt lat="48.9161929" lon="2.8541913"><ele></ele><time>2025-2-28T4:53:36Z</time></trkpt>
<trkpt lat="48.9159675" lon="2.8541317"><ele></ele><time>2025-2-28T4:53:39Z</time></trkpt>
<trkpt lat="48.9157485" lon="2.8540875"><ele></ele><time>2025-2-28T4:53:42Z</time></trkpt>
<trkpt lat="48.9155196" lon="2.8540502"><ele></ele><time>2025-2-28T4:53:45Z</time></trkpt>
<trkpt lat="48.9152931" lon="2.8540047"><ele></ele><time>2025-2-28T4:53:48Z</time></trkpt>
<trkpt lat="48.9150600" lon="2.8539530"><ele></ele><time>2025-2-28T4:53:51Z</time></trkpt>
<trkpt lat="48.9148801" lon="2.8539124"><ele></ele><time>2025-2-28T4:53:54Z</time></trkpt>
<trkpt lat="48.9147003" lon="2.8538573"><ele></ele><time>2025-2-28T4:53:57Z</time></trkpt>
<trkpt lat="48.9145123" lon="2.8537992"><ele></ele><time>2025-2-28T4:54:0Z</time></trkpt>
<trkpt lat="48.9143357" lon="2.8537406"><ele></ele><time>2025-2-28T4:54:3Z</time></trkpt>
<trkpt lat="48.9141511" lon="2.8536919"><ele></ele><time>2025-2-28T4:54:6Z</time></trkpt>
<trkpt lat="48.9139630" lon="2.8536353"><ele></ele><time>2025-2-28T4:54:9Z</time></trkpt>
<trkpt lat="48.9137797" lon="2.8535802"><ele></ele><time>2025-2-28T4:54:12Z</time></trkpt>
<trkpt lat="48.9135967" lon="2.8535311"><ele></ele><time>2025-2-28T4:54:15Z</time></trkpt>
<trkpt lat="48.9134118" lon="2.8534714"><ele></ele><time>2025-2-28T4:54:18Z</time></trkpt>
<trkpt lat="48.9132340" lon="2.8534085"><ele></ele><time>2025-2-28T4:54:21Z</time></trkpt>
<trkpt lat="48.9129990" lon="2.8533818"><ele></ele><time>2025-2-28T4:54:24Z</time></trkpt>
<trkpt lat="48.9127596" lon="2.8533427"><ele></ele><time>2025-2-28T4:54:27Z</time></trkpt>
<trkpt lat="48.9125744" lon="2.8533086"><ele></ele><time>2025-2-28T4:54:30Z</time></trkpt>
<trkpt lat="48.9123914" lon="2.8532793"><ele></ele><time>2025-2-28T4:54:33Z</time></trkpt>
<trkpt lat="48.9122118" lon="2.8532384"><ele></ele><time>2025-2-28T4:54:36Z</time></trkpt>
<trkpt lat="48.9120331" lon="2.8531967"><ele></ele><time>2025-2-28T4:54:39Z</time></trkpt>
<trkpt lat="48.9118538" lon="2.8531699"><ele></ele><time>2025-2-28T4:54:42Z</time></trkpt>
<trkpt lat="48.9116232" lon="2.8531292"><ele></ele><time>2025-2-28T4:54:45Z</time></trkpt>
<trkpt lat="48.9114079" lon="2.8530858"><ele></ele><time>2025-2-28T4:54:48Z</time></trkpt>
<trkpt lat="48.9111926" lon="2.8530407"><ele></ele><time>2025-2-28T4:54:51Z</time></trkpt>
<trkpt lat="48.9110131" lon="2.8530163"><ele></ele><time>2025-2-28T4:54:54Z</time></trkpt>
<trkpt lat="48.9107916" lon="2.8529765"><ele></ele><time>2025-2-28T4:54:57Z</time></trkpt>
<trkpt lat="48.9105620" lon="2.8529428"><ele></ele><time>2025-2-28T4:55:0Z</time></trkpt>
<trkpt lat="48.9103389" lon="2.8528829"><ele></ele><time>2025-2-28T4:55:3Z</time></trkpt>
<trkpt lat="48.9101337" lon="2.8528594"><ele></ele><time>2025-2-28T4:55:6Z</time></trkpt>
<trkpt lat="48.9099284" lon="2.8528220"><ele></ele><time>2025-2-28T4:55:9Z</time></trkpt>
<trkpt lat="48.9097353" lon="2.8527646"><ele></ele><time>2025-2-28T4:55:12Z</time></trkpt>
<trkpt lat="48.9095288" lon="2.8527092"><ele></ele><time>2025-2-28T4:55:15Z</time></trkpt>
<trkpt lat="48.9093219" lon="2.8526365"><ele></ele><time>2025-2-28T4:55:18Z</time></trkpt>
<trkpt lat="48.9091160" lon="2.8525575"><ele></ele><time>2025-2-28T4:55:21Z</time></trkpt>
<trkpt lat="48.9089109" lon="2.8524760"><ele></ele><time>2025-2-28T4:55:24Z</time></trkpt>
<trkpt lat="48.9087019" lon="2.8523912"><ele></ele><time>2025-2-28T4:55:27Z</time></trkpt>
<trkpt lat="48.9085029" lon="2.8523206"><ele></ele><time>2025-2-28T4:55:30Z</time></trkpt>
<trkpt lat="48.9083119" lon="2.8522055"><ele></ele><time>2025-2-28T4:55:33Z</time></trkpt>
<trkpt lat="48.9081292" lon="2.8520351"><ele></ele><time>2025-2-28T4:55:36Z</time></trkpt>
<trkpt lat="48.9079611" lon="2.8518302"><ele></ele><time>2025-2-28T4:55:39Z</time></trkpt>
<trkpt lat="48.9077826" lon="2.8516379"><ele></ele><time>2025-2-28T4:55:42Z</time></trkpt>
<trkpt lat="48.9076182" lon="2.8514233"><ele></ele><time>2025-2-28T4:55:45Z</time></trkpt>
<trkpt lat="48.9074470" lon="2.8512359"><ele></ele><time>2025-2-28T4:55:48Z</time></trkpt>
<trkpt lat="48.9072771" lon="2.8510597"><ele></ele><time>2025-2-28T4:55:51Z</time></trkpt>
<trkpt lat="48.9071166" lon="2.8509083"><ele></ele><time>2025-2-28T4:55:54Z</time></trkpt>
<trkpt lat="48.9069174" lon="2.8508147"><ele></ele><time>2025-2-28T4:55:57Z</time></trkpt>
<trkpt lat="48.9067445" lon="2.8506295"><ele></ele><time>2025-2-28T4:56:0Z</time></trkpt>
<trkpt lat="48.9065764" lon="2.8504262"><ele></ele><time>2025-2-28T4:56:3Z</time></trkpt>
<trkpt lat="48.9064166" lon="2.8502392"><ele></ele><time>2025-2-28T4:56:6Z</time></trkpt>
<trkpt lat="48.9062282" lon="2.8500552"><ele></ele><time>2025-2-28T4:56:9Z</time></trkpt>
<trkpt lat="48.9060515" lon="2.8499293"><ele></ele><time>2025-2-28T4:56:12Z</time></trkpt>
<trkpt lat="48.9058680" lon="2.8498043"><ele></ele><time>2025-2-28T4:56:15Z</time></trkpt>
<trkpt lat="48.9056801" lon="2.8496851"><ele></ele><time>2025-2-28T4:56:18Z</time></trkpt>
<trkpt lat="48.9055002" lon="2.8495596"><ele></ele><time>2025-2-28T4:56:21Z</time></trkpt>
<trkpt lat="48.9053265" lon="2.8494397"><ele></ele><time>2025-2-28T4:56:24Z</time></trkpt>
<trkpt lat="48.9051682" lon="2.8493046"><ele></ele><time>2025-2-28T4:56:27Z</time></trkpt>
<trkpt lat="48.9049847" lon="2.8491280"><ele></ele><time>2025-2-28T4:56:30Z</time></trkpt>
<trkpt lat="48.9047954" lon="2.8490168"><ele></ele><time>2025-2-28T4:56:33Z</time></trkpt>
<trkpt lat="48.9046227" lon="2.8488593"><ele></ele><time>2025-2-28T4:56:36Z</time></trkpt>
<trkpt lat="48.9044230" lon="2.8487313"><ele></ele><time>2025-2-28T4:56:39Z</time></trkpt>
<trkpt lat="48.9042693" lon="2.8485474"><ele></ele><time>2025-2-28T4:56:42Z</time></trkpt>
<trkpt lat="48.9041213" lon="2.8483793"><ele></ele><time>2025-2-28T4:56:45Z</time></trkpt>
<trkpt lat="48.9039623" lon="2.8482196"><ele></ele><time>2025-2-28T4:56:48Z</time></trkpt>
<trkpt lat="48.9037861" lon="2.8481067"><ele></ele><time>2025-2-28T4:56:51Z</time></trkpt>
<trkpt lat="48.9036242" lon="2.8478836"><ele></ele><time>2025-2-28T4:56:54Z</time></trkpt>
<trkpt lat="48.9034287" lon="2.8477767"><ele></ele><time>2025-2-28T4:56:57Z</time></trkpt>
<trkpt lat="48.9032301" lon="2.8476532"><ele></ele><time>2025-2-28T4:57:0Z</time></trkpt>
<trkpt lat="48.9030765" lon="2.8474524"><ele></ele><time>2025-2-28T4:57:3Z</time></trkpt>
<trkpt lat="48.9028901" lon="2.8472867"><ele></ele><time>2025-2-28T4:57:6Z</time></trkpt>
<trkpt lat="48.9027371" lon="2.8471388"><ele></ele><time>2025-2-28T4:57:9Z</time></trkpt>
<trkpt lat="48.9026085" lon="2.8468996"><ele></ele><time>2025-2-28T4:57:12Z</time></trkpt>
<trkpt lat="48.9024466" lon="2.8466984"><ele></ele><time>2025-2-28T4:57:15Z</time></trkpt>
<trkpt lat="48.9022902" lon="2.8465446"><ele></ele><time>2025-2-28T4:57:18Z</time></trkpt>
<trkpt lat="48.9021247" lon="2.8463506"><ele></ele><time>2025-2-28T4:57:21Z</time></trkpt>
<trkpt lat="48.9019320" lon="2.8461271"><ele></ele><time>2025-2-28T4:57:24Z</time></trkpt>
<trkpt lat="48.9017929" lon="2.8459371"><ele></ele><time>2025-2-28T4:57:27Z</time></trkpt>
<trkpt lat="48.9016372" lon="2.8457158"><ele></ele><time>2025-2-28T4:57:30Z</time></trkpt>
<trkpt lat="48.9015032" lon="2.8454768"><ele></ele><time>2025-2-28T4:57:33Z</time></trkpt>
<trkpt lat="48.9013600" lon="2.8452865"><ele></ele><time>2025-2-28T4:57:36Z</time></trkpt>
<trkpt lat="48.9012353" lon="2.8450438"><ele></ele><time>2025-2-28T4:57:39Z</time></trkpt>
<trkpt lat="48.9010898" lon="2.8448772"><ele></ele><time>2025-2-28T4:57:42Z</time></trkpt>
<trkpt lat="48.9009800" lon="2.8446377"><ele></ele><time>2025-2-28T4:57:45Z</time></trkpt>
<trkpt lat="48.9008762" lon="2.8444024"><ele></ele><time>2025-2-28T4:57:48Z</time></trkpt>
<trkpt lat="48.9007247" lon="2.8441635"><ele></ele><time>2025-2-28T4:57:51Z</time></trkpt>
<trkpt lat="48.9006333" lon="2.8438147"><ele></ele><time>2025-2-28T4:57:54Z</time></trkpt>
<trkpt lat="48.9005403" lon="2.8435216"><ele></ele><time>2025-2-28T4:57:57Z</time></trkpt>
<trkpt lat="48.9004104" lon="2.8432904"><ele></ele><time>2025-2-28T4:58:0Z</time></trkpt>
<trkpt lat="48.9002949" lon="2.8430601"><ele></ele><time>2025-2-28T4:58:3Z</time></trkpt>
<trkpt lat="48.9001651" lon="2.8428165"><ele></ele><time>2025-2-28T4:58:6Z</time></trkpt>
<trkpt lat="48.9000519" lon="2.8425727"><ele></ele><time>2025-2-28T4:58:9Z</time></trkpt>
<trkpt lat="48.8999331" lon="2.8423203"><ele></ele><time>2025-2-28T4:58:12Z</time></trkpt>
<trkpt lat="48.8998070" lon="2.8420387"><ele></ele><time>2025-2-28T4:58:15Z</time></trkpt>
<trkpt lat="48.8996742" lon="2.8417683"><ele></ele><time>2025-2-28T4:58:18Z</time></trkpt>
<trkpt lat="48.8995729" lon="2.8415365"><ele></ele><time>2025-2-28T4:58:21Z</time></trkpt>
<trkpt lat="48.8994778" lon="2.8412711"><ele></ele><time>2025-2-28T4:58:24Z</time></trkpt>
<trkpt lat="48.8993884" lon="2.8410069"><ele></ele><time>2025-2-28T4:58:27Z</time></trkpt>
<trkpt lat="48.8993002" lon="2.8406912"><ele></ele><time>2025-2-28T4:58:30Z</time></trkpt>
<trkpt lat="48.8992259" lon="2.8403978"><ele></ele><time>2025-2-28T4:58:33Z</time></trkpt>
<trkpt lat="48.8991429" lon="2.8401504"><ele></ele><time>2025-2-28T4:58:36Z</time></trkpt>
<trkpt lat="48.8990697" lon="2.8398428"><ele></ele><time>2025-2-28T4:58:39Z</time></trkpt>
<trkpt lat="48.8990028" lon="2.8395140"><ele></ele><time>2025-2-28T4:58:42Z</time></trkpt>
<trkpt lat="48.8989258" lon="2.8391908"><ele></ele><time>2025-2-28T4:58:45Z</time></trkpt>
<trkpt lat="48.8988606" lon="2.8388677"><ele></ele><time>2025-2-28T4:58:48Z</time></trkpt>
<trkpt lat="48.8988218" lon="2.8385694"><ele></ele><time>2025-2-28T4:58:51Z</time></trkpt>
<trkpt lat="48.8987902" lon="2.8382748"><ele></ele><time>2025-2-28T4:58:54Z</time></trkpt>
<trkpt lat="48.8987463" lon="2.8379197"><ele></ele><time>2025-2-28T4:58:57Z</time></trkpt>
<trkpt lat="48.8987027" lon="2.8376428"><ele></ele><time>2025-2-28T4:59:0Z</time></trkpt>
<trkpt lat="48.8986832" lon="2.8373315"><ele></ele><time>2025-2-28T4:59:3Z</time></trkpt>
<trkpt lat="48.8986648" lon="2.8370007"><ele></ele><time>2025-2-28T4:59:6Z</time></trkpt>
<trkpt lat="48.8986245" lon="2.8366618"><ele></ele><time>2025-2-28T4:59:9Z</time></trkpt>
<trkpt lat="48.8986099" lon="2.8363329"><ele></ele><time>2025-2-28T4:59:12Z</time></trkpt>
<trkpt lat="48.8985776" lon="2.8360575"><ele></ele><time>2025-2-28T4:59:15Z</time></trkpt>
<trkpt lat="48.8985694" lon="2.8357298"><ele></ele><time>2025-2-28T4:59:18Z</time></trkpt>
<trkpt lat="48.8985750" lon="2.8354231"><ele></ele><time>2025-2-28T4:59:21Z</time></trkpt>
<trkpt lat="48.8985960" lon="2.8350936"><ele></ele><time>2025-2-28T4:59:24Z</time></trkpt>
<trkpt lat="48.8986097" lon="2.8348070"><ele></ele><time>2025-2-28T4:59:27Z</time></trkpt>
<trkpt lat="48.8986259" lon="2.8345144"><ele></ele><time>2025-2-28T4:59:30Z</time></trkpt>
<trkpt lat="48.8986507" lon="2.8342080"><ele></ele><time>2025-2-28T4:59:33Z</time></trkpt>
<trkpt lat="48.8986699" lon="2.8339116"><ele></ele><time>2025-2-28T4:59:36Z</time></trkpt>
<trkpt lat="48.8987054" lon="2.8335717"><ele></ele><time>2025-2-28T4:59:39Z</time></trkpt>
<trkpt lat="48.8987383" lon="2.8332901"><ele></ele><time>2025-2-28T4:59:42Z</time></trkpt>
<trkpt lat="48.8987651" lon="2.8330081"><ele></ele><time>2025-2-28T4:59:45Z</time></trkpt>
<trkpt lat="48.8987964" lon="2.8326736"><ele></ele><time>2025-2-28T4:59:48Z</time></trkpt>
<trkpt lat="48.8988313" lon="2.8323648"><ele></ele><time>2025-2-28T4:59:51Z</time></trkpt>
<trkpt lat="48.8988580" lon="2.8320932"><ele></ele><time>2025-2-28T4:59:54Z</time></trkpt>
<trkpt lat="48.8988965" lon="2.8318150"><ele></ele><time>2025-2-28T4:59:57Z</time></trkpt>
<trkpt lat="48.8989962" lon="2.8315856"><ele></ele><time>2025-2-28T5:0:0Z</time></trkpt>
<trkpt lat="48.8990868" lon="2.8313029"><ele></ele><time>2025-2-28T5:0:3Z</time></trkpt>
<trkpt lat="48.8991702" lon="2.8310140"><ele></ele><time>2025-2-28T5:0:6Z</time></trkpt>
<trkpt lat="48.8992519" lon="2.8307524"><ele></ele><time>2025-2-28T5:0:9Z</time></trkpt>
<trkpt lat="48.8993436" lon="2.8305058"><ele></ele><time>2025-2-28T5:0:12Z</time></trkpt>
<trkpt lat="48.8994585" lon="2.8302838"><ele></ele><time>2025-2-28T5:0:15Z</time></trkpt>
<trkpt lat="48.8996005" lon="2.8301007"><ele></ele><time>2025-2-28T5:0:18Z</time></trkpt>
<trkpt lat="48.8997077" lon="2.8298755"><ele></ele><time>2025-2-28T5:0:21Z</time></trkpt>
<trkpt lat="48.8997990" lon="2.8296249"><ele></ele><time>2025-2-28T5:0:24Z</time></trkpt>
<trkpt lat="48.8998693" lon="2.8293415"><ele></ele><time>2025-2-28T5:0:27Z</time></trkpt>
<trkpt lat="48.8999764" lon="2.8290702"><ele></ele><time>2025-2-28T5:0:30Z</time></trkpt>
<trkpt lat="48.9000893" lon="2.8287939"><ele></ele><time>2025-2-28T5:0:33Z</time></trkpt>
<trkpt lat="48.9001914" lon="2.8285083"><ele></ele><time>2025-2-28T5:0:36Z</time></trkpt>
<trkpt lat="48.9003064" lon="2.8282291"><ele></ele><time>2025-2-28T5:0:39Z</time></trkpt>
<trkpt lat="48.9004137" lon="2.8278815"><ele></ele><time>2025-2-28T5:0:42Z</time></trkpt>
<trkpt lat="48.9004838" lon="2.8275513"><ele></ele><time>2025-2-28T5:0:45Z</time></trkpt>
<trkpt lat="48.9005724" lon="2.8272818"><ele></ele><time>2025-2-28T5:0:48Z</time></trkpt>
<trkpt lat="48.9006205" lon="2.8269938"><ele></ele><time>2025-2-28T5:0:51Z</time></trkpt>
<trkpt lat="48.9007011" lon="2.8267338"><ele></ele><time>2025-2-28T5:0:54Z</time></trkpt>
<trkpt lat="48.9007788" lon="2.8264254"><ele></ele><time>2025-2-28T5:0:57Z</time></trkpt>
<trkpt lat="48.9008066" lon="2.8261120"><ele></ele><time>2025-2-28T5:1:0Z</time></trkpt>
<trkpt lat="48.9008423" lon="2.8257796"><ele></ele><time>2025-2-28T5:1:3Z</time></trkpt>
<trkpt lat="48.9008452" lon="2.8254408"><ele></ele><time>2025-2-28T5:1:6Z</time></trkpt>
<trkpt lat="48.9008469" lon="2.8250831"><ele></ele><time>2025-2-28T5:1:9Z</time></trkpt>
<trkpt lat="48.9008192" lon="2.8247393"><ele></ele><time>2025-2-28T5:1:12Z</time></trkpt>
<trkpt lat="48.9008082" lon="2.8244180"><ele></ele><time>2025-2-28T5:1:15Z</time></trkpt>
<trkpt lat="48.9007788" lon="2.8241218"><ele></ele><time>2025-2-28T5:1:18Z</time></trkpt>
<trkpt lat="48.9007366" lon="2.8238280"><ele></ele><time>2025-2-28T5:1:21Z</time></trkpt>
<trkpt lat="48.9007121" lon="2.8234935"><ele></ele><time>2025-2-28T5:1:24Z</time></trkpt>
<trkpt lat="48.9006487" lon="2.8231730"><ele></ele><time>2025-2-28T5:1:27Z</time></trkpt>
<trkpt lat="48.9006163" lon="2.8228441"><ele></ele><time>2025-2-28T5:1:30Z</time></trkpt>
<trkpt lat="48.9005801" lon="2.8225364"><ele></ele><time>2025-2-28T5:1:33Z</time></trkpt>
<trkpt lat="48.9005244" lon="2.8222188"><ele></ele><time>2025-2-28T5:1:36Z</time></trkpt>
<trkpt lat="48.9004703" lon="2.8218967"><ele></ele><time>2025-2-28T5:1:39Z</time></trkpt>
<trkpt lat="48.9004259" lon="2.8215721"><ele></ele><time>2025-2-28T5:1:42Z</time></trkpt>
<trkpt lat="48.9003790" lon="2.8212437"><ele></ele><time>2025-2-28T5:1:45Z</time></trkpt>
<trkpt lat="48.9003571" lon="2.8209443"><ele></ele><time>2025-2-28T5:1:48Z</time></trkpt>
<trkpt lat="48.9003263" lon="2.8206256"><ele></ele><time>2025-2-28T5:1:51Z</time></trkpt>
<trkpt lat="48.9002378" lon="2.8201812"><ele></ele><time>2025-2-28T5:1:54Z</time></trkpt>
<trkpt lat="48.9001614" lon="2.8199064"><ele></ele><time>2025-2-28T5:1:57Z</time></trkpt>
<trkpt lat="48.9001470" lon="2.8195894"><ele></ele><time>2025-2-28T5:2:0Z</time></trkpt>
<trkpt lat="48.9001173" lon="2.8192490"><ele></ele><time>2025-2-28T5:2:3Z</time></trkpt>
<trkpt lat="48.9001147" lon="2.8189702"><ele></ele><time>2025-2-28T5:2:6Z</time></trkpt>
<trkpt lat="48.9000431" lon="2.8186752"><ele></ele><time>2025-2-28T5:2:9Z</time></trkpt>
<trkpt lat="48.8999682" lon="2.8183726"><ele></ele><time>2025-2-28T5:2:12Z</time></trkpt>
<trkpt lat="48.8999135" lon="2.8180754"><ele></ele><time>2025-2-28T5:2:15Z</time></trkpt>
<trkpt lat="48.8998418" lon="2.8177928"><ele></ele><time>2025-2-28T5:2:18Z</time></trkpt>
<trkpt lat="48.9000104" lon="2.8176204"><ele></ele><time>2025-2-28T5:2:21Z</time></trkpt>
<trkpt lat="48.9002029" lon="2.8175754"><ele></ele><time>2025-2-28T5:2:24Z</time></trkpt>
<trkpt lat="48.9001483" lon="2.8173109"><ele></ele><time>2025-2-28T5:2:27Z</time></trkpt>
<trkpt lat="48.9000860" lon="2.8169651"><ele></ele><time>2025-2-28T5:2:30Z</time></trkpt>
<trkpt lat="48.9000437" lon="2.8166684"><ele></ele><time>2025-2-28T5:2:33Z</time></trkpt>
<trkpt lat="48.9000008" lon="2.8163805"><ele></ele><time>2025-2-28T5:2:36Z</time></trkpt>
<trkpt lat="48.8999684" lon="2.8161006"><ele></ele><time>2025-2-28T5:2:39Z</time></trkpt>
<trkpt lat="48.8999203" lon="2.8158276"><ele></ele><time>2025-2-28T5:2:42Z</time></trkpt>
<trkpt lat="48.8998793" lon="2.8155454"><ele></ele><time>2025-2-28T5:2:45Z</time></trkpt>
<trkpt lat="48.8998402" lon="2.8152700"><ele></ele><time>2025-2-28T5:2:48Z</time></trkpt>
<trkpt lat="48.8998030" lon="2.8149791"><ele></ele><time>2025-2-28T5:2:51Z</time></trkpt>
<trkpt lat="48.8997651" lon="2.8146977"><ele></ele><time>2025-2-28T5:2:54Z</time></trkpt>
<trkpt lat="48.8997143" lon="2.8144130"><ele></ele><time>2025-2-28T5:2:57Z</time></trkpt>
<trkpt lat="48.8996753" lon="2.8141432"><ele></ele><time>2025-2-28T5:3:0Z</time></trkpt>
<trkpt lat="48.8996302" lon="2.8138730"><ele></ele><time>2025-2-28T5:3:3Z</time></trkpt>
<trkpt lat="48.8995915" lon="2.8136044"><ele></ele><time>2025-2-28T5:3:6Z</time></trkpt>
<trkpt lat="48.8995500" lon="2.8132388"><ele></ele><time>2025-2-28T5:3:9Z</time></trkpt>
<trkpt lat="48.8995089" lon="2.8129724"><ele></ele><time>2025-2-28T5:3:12Z</time></trkpt>
<trkpt lat="48.8994601" lon="2.8126232"><ele></ele><time>2025-2-28T5:3:15Z</time></trkpt>
<trkpt lat="48.8994110" lon="2.8122620"><ele></ele><time>2025-2-28T5:3:18Z</time></trkpt>
<trkpt lat="48.8993692" lon="2.8119305"><ele></ele><time>2025-2-28T5:3:21Z</time></trkpt>
<trkpt lat="48.8993138" lon="2.8116172"><ele></ele><time>2025-2-28T5:3:24Z</time></trkpt>
<trkpt lat="48.8993264" lon="2.8113351"><ele></ele><time>2025-2-28T5:3:27Z</time></trkpt>
<trkpt lat="48.8993318" lon="2.8110516"><ele></ele><time>2025-2-28T5:3:30Z</time></trkpt>
<trkpt lat="48.8993098" lon="2.8106979"><ele></ele><time>2025-2-28T5:3:33Z</time></trkpt>
<trkpt lat="48.8992290" lon="2.8103935"><ele></ele><time>2025-2-28T5:3:36Z</time></trkpt>
<trkpt lat="48.8991818" lon="2.8100891"><ele></ele><time>2025-2-28T5:3:39Z</time></trkpt>
<trkpt lat="48.8991339" lon="2.8097414"><ele></ele><time>2025-2-28T5:3:42Z</time></trkpt>
<trkpt lat="48.8990970" lon="2.8094446"><ele></ele><time>2025-2-28T5:3:45Z</time></trkpt>
<trkpt lat="48.8990694" lon="2.8091498"><ele></ele><time>2025-2-28T5:3:48Z</time></trkpt>
<trkpt lat="48.8990237" lon="2.8088702"><ele></ele><time>2025-2-28T5:3:51Z</time></trkpt>
<trkpt lat="48.8989906" lon="2.8085837"><ele></ele><time>2025-2-28T5:3:54Z</time></trkpt>
<trkpt lat="48.8989741" lon="2.8082996"><ele></ele><time>2025-2-28T5:3:57Z</time></trkpt>
<trkpt lat="48.8989637" lon="2.8080201"><ele></ele><time>2025-2-28T5:4:0Z</time></trkpt>
<trkpt lat="48.8989062" lon="2.8077433"><ele></ele><time>2025-2-28T5:4:3Z</time></trkpt>
<trkpt lat="48.8988811" lon="2.8074380"><ele></ele><time>2025-2-28T5:4:6Z</time></trkpt>
<trkpt lat="48.8988371" lon="2.8071311"><ele></ele><time>2025-2-28T5:4:9Z</time></trkpt>
<trkpt lat="48.8988407" lon="2.8068072"><ele></ele><time>2025-2-28T5:4:12Z</time></trkpt>
<trkpt lat="48.8988171" lon="2.8064868"><ele></ele><time>2025-2-28T5:4:15Z</time></trkpt>
<trkpt lat="48.8987633" lon="2.8062083"><ele></ele><time>2025-2-28T5:4:18Z</time></trkpt>
<trkpt lat="48.8987906" lon="2.8064827"><ele></ele><time>2025-2-28T5:4:21Z</time></trkpt>
<trkpt lat="48.8988290" lon="2.8067678"><ele></ele><time>2025-2-28T5:4:24Z</time></trkpt>
<trkpt lat="48.8988723" lon="2.8070605"><ele></ele><time>2025-2-28T5:4:27Z</time></trkpt>
<trkpt lat="48.8989188" lon="2.8073810"><ele></ele><time>2025-2-28T5:4:30Z</time></trkpt>
<trkpt lat="48.8989643" lon="2.8077062"><ele></ele><time>2025-2-28T5:4:33Z</time></trkpt>
<trkpt lat="48.8990130" lon="2.8080255"><ele></ele><time>2025-2-28T5:4:36Z</time></trkpt>
<trkpt lat="48.8990582" lon="2.8083371"><ele></ele><time>2025-2-28T5:4:39Z</time></trkpt>
<trkpt lat="48.8991013" lon="2.8086458"><ele></ele><time>2025-2-28T5:4:42Z</time></trkpt>
<trkpt lat="48.8991414" lon="2.8089646"><ele></ele><time>2025-2-28T5:4:45Z</time></trkpt>
<trkpt lat="48.8991832" lon="2.8092890"><ele></ele><time>2025-2-28T5:4:48Z</time></trkpt>
<trkpt lat="48.8992274" lon="2.8096102"><ele></ele><time>2025-2-28T5:4:51Z</time></trkpt>
<trkpt lat="48.8992582" lon="2.8099169"><ele></ele><time>2025-2-28T5:4:54Z</time></trkpt>
<trkpt lat="48.8992738" lon="2.8102133"><ele></ele><time>2025-2-28T5:4:57Z</time></trkpt>
<trkpt lat="48.8993040" lon="2.8104954"><ele></ele><time>2025-2-28T5:5:0Z</time></trkpt>
<trkpt lat="48.8993237" lon="2.8107858"><ele></ele><time>2025-2-28T5:5:3Z</time></trkpt>
<trkpt lat="48.8993172" lon="2.8110751"><ele></ele><time>2025-2-28T5:5:6Z</time></trkpt>
<trkpt lat="48.8991462" lon="2.8112462"><ele></ele><time>2025-2-28T5:5:9Z</time></trkpt>
<trkpt lat="48.8989524" lon="2.8113174"><ele></ele><time>2025-2-28T5:5:12Z</time></trkpt>
<trkpt lat="48.8987344" lon="2.8112818"><ele></ele><time>2025-2-28T5:5:15Z</time></trkpt>
<trkpt lat="48.8986151" lon="2.8109865"><ele></ele><time>2025-2-28T5:5:18Z</time></trkpt>
<trkpt lat="48.8985201" lon="2.8106812"><ele></ele><time>2025-2-28T5:5:21Z</time></trkpt>
<trkpt lat="48.8984186" lon="2.8103665"><ele></ele><time>2025-2-28T5:5:24Z</time></trkpt>
<trkpt lat="48.8983200" lon="2.8100620"><ele></ele><time>2025-2-28T5:5:27Z</time></trkpt>
<trkpt lat="48.8982338" lon="2.8097590"><ele></ele><time>2025-2-28T5:5:30Z</time></trkpt>
<trkpt lat="48.8981368" lon="2.8094978"><ele></ele><time>2025-2-28T5:5:33Z</time></trkpt>
<trkpt lat="48.8980480" lon="2.8092203"><ele></ele><time>2025-2-28T5:5:36Z</time></trkpt>
<trkpt lat="48.8979514" lon="2.8089132"><ele></ele><time>2025-2-28T5:5:39Z</time></trkpt>
<trkpt lat="48.8978878" lon="2.8086557"><ele></ele><time>2025-2-28T5:5:42Z</time></trkpt>
<trkpt lat="48.8978367" lon="2.8083891"><ele></ele><time>2025-2-28T5:5:45Z</time></trkpt>
<trkpt lat="48.8977807" lon="2.8081071"><ele></ele><time>2025-2-28T5:5:48Z</time></trkpt>
<trkpt lat="48.8977320" lon="2.8078212"><ele></ele><time>2025-2-28T5:5:51Z</time></trkpt>
<trkpt lat="48.8976765" lon="2.8075332"><ele></ele><time>2025-2-28T5:5:54Z</time></trkpt>
<trkpt lat="48.8976117" lon="2.8072516"><ele></ele><time>2025-2-28T5:5:57Z</time></trkpt>
<trkpt lat="48.8975590" lon="2.8069626"><ele></ele><time>2025-2-28T5:6:0Z</time></trkpt>
<trkpt lat="48.8975079" lon="2.8066795"><ele></ele><time>2025-2-28T5:6:3Z</time></trkpt>
<trkpt lat="48.8974526" lon="2.8063784"><ele></ele><time>2025-2-28T5:6:6Z</time></trkpt>
<trkpt lat="48.8973862" lon="2.8060537"><ele></ele><time>2025-2-28T5:6:9Z</time></trkpt>
<trkpt lat="48.8973053" lon="2.8057247"><ele></ele><time>2025-2-28T5:6:12Z</time></trkpt>
<trkpt lat="48.8972517" lon="2.8054569"><ele></ele><time>2025-2-28T5:6:15Z</time></trkpt>
<trkpt lat="48.8972059" lon="2.8051155"><ele></ele><time>2025-2-28T5:6:18Z</time></trkpt>
<trkpt lat="48.8971604" lon="2.8047691"><ele></ele><time>2025-2-28T5:6:21Z</time></trkpt>
<trkpt lat="48.8971036" lon="2.8044432"><ele></ele><time>2025-2-28T5:6:24Z</time></trkpt>
<trkpt lat="48.8970453" lon="2.8041253"><ele></ele><time>2025-2-28T5:6:27Z</time></trkpt>
<trkpt lat="48.8969794" lon="2.8038026"><ele></ele><time>2025-2-28T5:6:30Z</time></trkpt>
<trkpt lat="48.8969186" lon="2.8034723"><ele></ele><time>2025-2-28T5:6:33Z</time></trkpt>
<trkpt lat="48.8968459" lon="2.8031565"><ele></ele><time>2025-2-28T5:6:36Z</time></trkpt>
<trkpt lat="48.8967694" lon="2.8028703"><ele></ele><time>2025-2-28T5:6:39Z</time></trkpt>
<trkpt lat="48.8967070" lon="2.8025722"><ele></ele><time>2025-2-28T5:6:42Z</time></trkpt>
<trkpt lat="48.8966520" lon="2.8022776"><ele></ele><time>2025-2-28T5:6:45Z</time></trkpt>
<trkpt lat="48.8966078" lon="2.8019812"><ele></ele><time>2025-2-28T5:6:48Z</time></trkpt>
<trkpt lat="48.8966241" lon="2.8016922"><ele></ele><time>2025-2-28T5:6:51Z</time></trkpt>
<trkpt lat="48.8965303" lon="2.8013686"><ele></ele><time>2025-2-28T5:6:54Z</time></trkpt>
<trkpt lat="48.8965058" lon="2.8010877"><ele></ele><time>2025-2-28T5:6:57Z</time></trkpt>
<trkpt lat="48.8964795" lon="2.8008030"><ele></ele><time>2025-2-28T5:7:0Z</time></trkpt>
<trkpt lat="48.8964417" lon="2.8004626"><ele></ele><time>2025-2-28T5:7:3Z</time></trkpt>
<trkpt lat="48.8964126" lon="2.8001225"><ele></ele><time>2025-2-28T5:7:6Z</time></trkpt>
<trkpt lat="48.8963892" lon="2.7997975"><ele></ele><time>2025-2-28T5:7:9Z</time></trkpt>
<trkpt lat="48.8963635" lon="2.7994684"><ele></ele><time>2025-2-28T5:7:12Z</time></trkpt>
<trkpt lat="48.8963363" lon="2.7991576"><ele></ele><time>2025-2-28T5:7:15Z</time></trkpt>
<trkpt lat="48.8963099" lon="2.7988433"><ele></ele><time>2025-2-28T5:7:18Z</time></trkpt>
<trkpt lat="48.8962881" lon="2.7985300"><ele></ele><time>2025-2-28T5:7:21Z</time></trkpt>
<trkpt lat="48.8962757" lon="2.7982030"><ele></ele><time>2025-2-28T5:7:24Z</time></trkpt>
<trkpt lat="48.8962563" lon="2.7978828"><ele></ele><time>2025-2-28T5:7:27Z</time></trkpt>
<trkpt lat="48.8962433" lon="2.7975631"><ele></ele><time>2025-2-28T5:7:30Z</time></trkpt>
<trkpt lat="48.8962158" lon="2.7972614"><ele></ele><time>2025-2-28T5:7:33Z</time></trkpt>
<trkpt lat="48.8961635" lon="2.7969929"><ele></ele><time>2025-2-28T5:7:36Z</time></trkpt>
<trkpt lat="48.8961073" lon="2.7966738"><ele></ele><time>2025-2-28T5:7:39Z</time></trkpt>
<trkpt lat="48.8959481" lon="2.7965041"><ele></ele><time>2025-2-28T5:7:42Z</time></trkpt>
<trkpt lat="48.8957760" lon="2.7963243"><ele></ele><time>2025-2-28T5:7:45Z</time></trkpt>
<trkpt lat="48.8956271" lon="2.7961429"><ele></ele><time>2025-2-28T5:7:48Z</time></trkpt>
<trkpt lat="48.8954626" lon="2.7960265"><ele></ele><time>2025-2-28T5:7:51Z</time></trkpt>
<trkpt lat="48.8953683" lon="2.7957919"><ele></ele><time>2025-2-28T5:7:54Z</time></trkpt>
<trkpt lat="48.8953107" lon="2.7955209"><ele></ele><time>2025-2-28T5:7:57Z</time></trkpt>
<trkpt lat="48.8952912" lon="2.7952375"><ele></ele><time>2025-2-28T5:8:0Z</time></trkpt>
<trkpt lat="48.8953094" lon="2.7949249"><ele></ele><time>2025-2-28T5:8:3Z</time></trkpt>
<trkpt lat="48.8953764" lon="2.7946475"><ele></ele><time>2025-2-28T5:8:6Z</time></trkpt>
<trkpt lat="48.8954396" lon="2.7943847"><ele></ele><time>2025-2-28T5:8:9Z</time></trkpt>
<trkpt lat="48.8955137" lon="2.7941012"><ele></ele><time>2025-2-28T5:8:12Z</time></trkpt>
<trkpt lat="48.8955171" lon="2.7938210"><ele></ele><time>2025-2-28T5:8:15Z</time></trkpt>
<trkpt lat="48.8955802" lon="2.7935156"><ele></ele><time>2025-2-28T5:8:18Z</time></trkpt>
<trkpt lat="48.8956423" lon="2.7932278"><ele></ele><time>2025-2-28T5:8:21Z</time></trkpt>
<trkpt lat="48.8957094" lon="2.7929501"><ele></ele><time>2025-2-28T5:8:24Z</time></trkpt>
<trkpt lat="48.8958012" lon="2.7926732"><ele></ele><time>2025-2-28T5:8:27Z</time></trkpt>
<trkpt lat="48.8958971" lon="2.7924044"><ele></ele><time>2025-2-28T5:8:30Z</time></trkpt>
<trkpt lat="48.8960330" lon="2.7922027"><ele></ele><time>2025-2-28T5:8:33Z</time></trkpt>
<trkpt lat="48.8959843" lon="2.7919387"><ele></ele><time>2025-2-28T5:8:36Z</time></trkpt>
<trkpt lat="48.8961536" lon="2.7918393"><ele></ele><time>2025-2-28T5:8:39Z</time></trkpt>
<trkpt lat="48.8959856" lon="2.7919603"><ele></ele><time>2025-2-28T5:8:42Z</time></trkpt>
<trkpt lat="48.8957970" lon="2.7920835"><ele></ele><time>2025-2-28T5:8:45Z</time></trkpt>
<trkpt lat="48.8956134" lon="2.7921968"><ele></ele><time>2025-2-28T5:8:48Z</time></trkpt>
<trkpt lat="48.8956756" lon="2.7919033"><ele></ele><time>2025-2-28T5:8:51Z</time></trkpt>
<trkpt lat="48.8956411" lon="2.7916235"><ele></ele><time>2025-2-28T5:8:54Z</time></trkpt>
<trkpt lat="48.8955539" lon="2.7913405"><ele></ele><time>2025-2-28T5:8:57Z</time></trkpt>
<trkpt lat="48.8954657" lon="2.7910798"><ele></ele><time>2025-2-28T5:9:0Z</time></trkpt>
<trkpt lat="48.8953928" lon="2.7908296"><ele></ele><time>2025-2-28T5:9:3Z</time></trkpt>
<trkpt lat="48.8953121" lon="2.7905426"><ele></ele><time>2025-2-28T5:9:6Z</time></trkpt>
<trkpt lat="48.8952209" lon="2.7902965"><ele></ele><time>2025-2-28T5:9:9Z</time></trkpt>
<trkpt lat="48.8951215" lon="2.7900240"><ele></ele><time>2025-2-28T5:9:12Z</time></trkpt>
<trkpt lat="48.8950305" lon="2.7897423"><ele></ele><time>2025-2-28T5:9:15Z</time></trkpt>
<trkpt lat="48.8949737" lon="2.7894356"><ele></ele><time>2025-2-28T5:9:18Z</time></trkpt>
<trkpt lat="48.8949498" lon="2.7891114"><ele></ele><time>2025-2-28T5:9:21Z</time></trkpt>
<trkpt lat="48.8949515" lon="2.7887976"><ele></ele><time>2025-2-28T5:9:24Z</time></trkpt>
<trkpt lat="48.8949631" lon="2.7884852"><ele></ele><time>2025-2-28T5:9:27Z</time></trkpt>
<trkpt lat="48.8949814" lon="2.7881703"><ele></ele><time>2025-2-28T5:9:30Z</time></trkpt>
<trkpt lat="48.8949871" lon="2.7878344"><ele></ele><time>2025-2-28T5:9:33Z</time></trkpt>
<trkpt lat="48.8949687" lon="2.7875167"><ele></ele><time>2025-2-28T5:9:36Z</time></trkpt>
<trkpt lat="48.8949682" lon="2.7871974"><ele></ele><time>2025-2-28T5:9:39Z</time></trkpt>
<trkpt lat="48.8949813" lon="2.7869028"><ele></ele><time>2025-2-28T5:9:42Z</time></trkpt>
<trkpt lat="48.8950132" lon="2.7866161"><ele></ele><time>2025-2-28T5:9:45Z</time></trkpt>
<trkpt lat="48.8950222" lon="2.7863120"><ele></ele><time>2025-2-28T5:9:48Z</time></trkpt>
<trkpt lat="48.8950129" lon="2.7859815"><ele></ele><time>2025-2-28T5:9:51Z</time></trkpt>
<trkpt lat="48.8949929" lon="2.7856733"><ele></ele><time>2025-2-28T5:9:54Z</time></trkpt>
<trkpt lat="48.8950285" lon="2.7853544"><ele></ele><time>2025-2-28T5:9:57Z</time></trkpt>
<trkpt lat="48.8950936" lon="2.7850540"><ele></ele><time>2025-2-28T5:10:0Z</time></trkpt>
<trkpt lat="48.8951592" lon="2.7847326"><ele></ele><time>2025-2-28T5:10:3Z</time></trkpt>
<trkpt lat="48.8952273" lon="2.7844255"><ele></ele><time>2025-2-28T5:10:6Z</time></trkpt>
<trkpt lat="48.8953109" lon="2.7841249"><ele></ele><time>2025-2-28T5:10:9Z</time></trkpt>
<trkpt lat="48.8953811" lon="2.7838179"><ele></ele><time>2025-2-28T5:10:12Z</time></trkpt>
<trkpt lat="48.8954335" lon="2.7835531"><ele></ele><time>2025-2-28T5:10:15Z</time></trkpt>
<trkpt lat="48.8955120" lon="2.7832371"><ele></ele><time>2025-2-28T5:10:18Z</time></trkpt>
<trkpt lat="48.8956012" lon="2.7829554"><ele></ele><time>2025-2-28T5:10:21Z</time></trkpt>
<trkpt lat="48.8956880" lon="2.7826662"><ele></ele><time>2025-2-28T5:10:24Z</time></trkpt>
<trkpt lat="48.8957908" lon="2.7823970"><ele></ele><time>2025-2-28T5:10:27Z</time></trkpt>
<trkpt lat="48.8959124" lon="2.7821295"><ele></ele><time>2025-2-28T5:10:30Z</time></trkpt>
<trkpt lat="48.8960487" lon="2.7819185"><ele></ele><time>2025-2-28T5:10:33Z</time></trkpt>
<trkpt lat="48.8962406" lon="2.7818428"><ele></ele><time>2025-2-28T5:10:36Z</time></trkpt>
<trkpt lat="48.8963939" lon="2.7816380"><ele></ele><time>2025-2-28T5:10:39Z</time></trkpt>
<trkpt lat="48.8965048" lon="2.7813863"><ele></ele><time>2025-2-28T5:10:42Z</time></trkpt>
<trkpt lat="48.8966598" lon="2.7811710"><ele></ele><time>2025-2-28T5:10:45Z</time></trkpt>
<trkpt lat="48.8968154" lon="2.7809644"><ele></ele><time>2025-2-28T5:10:48Z</time></trkpt>
<trkpt lat="48.8969652" lon="2.7807269"><ele></ele><time>2025-2-28T5:10:51Z</time></trkpt>
<trkpt lat="48.8971034" lon="2.7804829"><ele></ele><time>2025-2-28T5:10:54Z</time></trkpt>
<trkpt lat="48.8972305" lon="2.7802236"><ele></ele><time>2025-2-28T5:10:57Z</time></trkpt>
<trkpt lat="48.8973613" lon="2.7799922"><ele></ele><time>2025-2-28T5:11:0Z</time></trkpt>
<trkpt lat="48.8975003" lon="2.7797660"><ele></ele><time>2025-2-28T5:11:3Z</time></trkpt>
<trkpt lat="48.8976393" lon="2.7795388"><ele></ele><time>2025-2-28T5:11:6Z</time></trkpt>
<trkpt lat="48.8977780" lon="2.7793194"><ele></ele><time>2025-2-28T5:11:9Z</time></trkpt>
<trkpt lat="48.8979271" lon="2.7790963"><ele></ele><time>2025-2-28T5:11:12Z</time></trkpt>
<trkpt lat="48.8980669" lon="2.7788763"><ele></ele><time>2025-2-28T5:11:15Z</time></trkpt>
<trkpt lat="48.8982145" lon="2.7786597"><ele></ele><time>2025-2-28T5:11:18Z</time></trkpt>
<trkpt lat="48.8983692" lon="2.7785045"><ele></ele><time>2025-2-28T5:11:21Z</time></trkpt>
<trkpt lat="48.8985339" lon="2.7783688"><ele></ele><time>2025-2-28T5:11:24Z</time></trkpt>
<trkpt lat="48.8986876" lon="2.7782175"><ele></ele><time>2025-2-28T5:11:27Z</time></trkpt>
<trkpt lat="48.8988409" lon="2.7780623"><ele></ele><time>2025-2-28T5:11:30Z</time></trkpt>
<trkpt lat="48.8990181" lon="2.7778673"><ele></ele><time>2025-2-28T5:11:33Z</time></trkpt>
<trkpt lat="48.8991929" lon="2.7776715"><ele></ele><time>2025-2-28T5:11:36Z</time></trkpt>
<trkpt lat="48.8993688" lon="2.7774560"><ele></ele><time>2025-2-28T5:11:39Z</time></trkpt>
<trkpt lat="48.8995426" lon="2.7773665"><ele></ele><time>2025-2-28T5:11:42Z</time></trkpt>
<trkpt lat="48.8997064" lon="2.7775309"><ele></ele><time>2025-2-28T5:11:45Z</time></trkpt>
<trkpt lat="48.8998883" lon="2.7776144"><ele></ele><time>2025-2-28T5:11:48Z</time></trkpt>
<trkpt lat="48.9000354" lon="2.7773994"><ele></ele><time>2025-2-28T5:11:51Z</time></trkpt>
<trkpt lat="48.9001711" lon="2.7771694"><ele></ele><time>2025-2-28T5:11:54Z</time></trkpt>
<trkpt lat="48.9002723" lon="2.7769305"><ele></ele><time>2025-2-28T5:11:57Z</time></trkpt>
<trkpt lat="48.9003582" lon="2.7766566"><ele></ele><time>2025-2-28T5:12:0Z</time></trkpt>
<trkpt lat="48.9003947" lon="2.7763575"><ele></ele><time>2025-2-28T5:12:3Z</time></trkpt>
<trkpt lat="48.9003718" lon="2.7760806"><ele></ele><time>2025-2-28T5:12:6Z</time></trkpt>
<trkpt lat="48.9003187" lon="2.7758018"><ele></ele><time>2025-2-28T5:12:9Z</time></trkpt>
<trkpt lat="48.9002486" lon="2.7755261"><ele></ele><time>2025-2-28T5:12:12Z</time></trkpt>
<trkpt lat="48.9002378" lon="2.7752513"><ele></ele><time>2025-2-28T5:12:15Z</time></trkpt>
<trkpt lat="48.9002549" lon="2.7749582"><ele></ele><time>2025-2-28T5:12:18Z</time></trkpt>
<trkpt lat="48.9004362" lon="2.7748220"><ele></ele><time>2025-2-28T5:12:21Z</time></trkpt>
<trkpt lat="48.9006215" lon="2.7747273"><ele></ele><time>2025-2-28T5:12:24Z</time></trkpt>
<trkpt lat="48.9008159" lon="2.7747168"><ele></ele><time>2025-2-28T5:12:27Z</time></trkpt>
<trkpt lat="48.9006865" lon="2.7745176"><ele></ele><time>2025-2-28T5:12:30Z</time></trkpt>
<trkpt lat="48.9005043" lon="2.7745463"><ele></ele><time>2025-2-28T5:12:33Z</time></trkpt>
<trkpt lat="48.9003926" lon="2.7743241"><ele></ele><time>2025-2-28T5:12:36Z</time></trkpt>
<trkpt lat="48.9003206" lon="2.7740547"><ele></ele><time>2025-2-28T5:12:39Z</time></trkpt>
<trkpt lat="48.9002714" lon="2.7737762"><ele></ele><time>2025-2-28T5:12:42Z</time></trkpt>
<trkpt lat="48.9002025" lon="2.7735134"><ele></ele><time>2025-2-28T5:12:45Z</time></trkpt>
<trkpt lat="48.9001511" lon="2.7732243"><ele></ele><time>2025-2-28T5:12:48Z</time></trkpt>
<trkpt lat="48.9001076" lon="2.7729371"><ele></ele><time>2025-2-28T5:12:51Z</time></trkpt>
<trkpt lat="48.9000517" lon="2.7726719"><ele></ele><time>2025-2-28T5:12:54Z</time></trkpt>
<trkpt lat="48.8999919" lon="2.7723947"><ele></ele><time>2025-2-28T5:12:57Z</time></trkpt>
<trkpt lat="48.8999781" lon="2.7721145"><ele></ele><time>2025-2-28T5:13:0Z</time></trkpt>
<trkpt lat="48.9000273" lon="2.7718439"><ele></ele><time>2025-2-28T5:13:3Z</time></trkpt>
<trkpt lat="48.9000809" lon="2.7715649"><ele></ele><time>2025-2-28T5:13:6Z</time></trkpt>
<trkpt lat="48.8999836" lon="2.7712618"><ele></ele><time>2025-2-28T5:13:9Z</time></trkpt>
<trkpt lat="48.8997949" lon="2.7712612"><ele></ele><time>2025-2-28T5:13:12Z</time></trkpt>
<trkpt lat="48.8995615" lon="2.7713151"><ele></ele><time>2025-2-28T5:13:15Z</time></trkpt>
<trkpt lat="48.8993656" lon="2.7712463"><ele></ele><time>2025-2-28T5:13:18Z</time></trkpt>
<trkpt lat="48.8992017" lon="2.7711287"><ele></ele><time>2025-2-28T5:13:21Z</time></trkpt>
<trkpt lat="48.8989706" lon="2.7711002"><ele></ele><time>2025-2-28T5:13:24Z</time></trkpt>
<trkpt lat="48.8987892" lon="2.7710477"><ele></ele><time>2025-2-28T5:13:27Z</time></trkpt>
<trkpt lat="48.8986878" lon="2.7708164"><ele></ele><time>2025-2-28T5:13:30Z</time></trkpt>
<trkpt lat="48.8988302" lon="2.7706410"><ele></ele><time>2025-2-28T5:13:33Z</time></trkpt>
<trkpt lat="48.8989512" lon="2.7704385"><ele></ele><time>2025-2-28T5:13:36Z</time></trkpt>
<trkpt lat="48.8990039" lon="2.7701254"><ele></ele><time>2025-2-28T5:13:39Z</time></trkpt>
<trkpt lat="48.8988830" lon="2.7698858"><ele></ele><time>2025-2-28T5:13:42Z</time></trkpt>
<trkpt lat="48.8986826" lon="2.7698295"><ele></ele><time>2025-2-28T5:13:45Z</time></trkpt>
<trkpt lat="48.8984612" lon="2.7697724"><ele></ele><time>2025-2-28T5:13:48Z</time></trkpt>
<trkpt lat="48.8982335" lon="2.7697203"><ele></ele><time>2025-2-28T5:13:51Z</time></trkpt>
<trkpt lat="48.8980223" lon="2.7696571"><ele></ele><time>2025-2-28T5:13:54Z</time></trkpt>
<trkpt lat="48.8978206" lon="2.7695985"><ele></ele><time>2025-2-28T5:13:57Z</time></trkpt>
<trkpt lat="48.8976114" lon="2.7695356"><ele></ele><time>2025-2-28T5:14:0Z</time></trkpt>
<trkpt lat="48.8973942" lon="2.7694640"><ele></ele><time>2025-2-28T5:14:3Z</time></trkpt>
<trkpt lat="48.8971711" lon="2.7693834"><ele></ele><time>2025-2-28T5:14:6Z</time></trkpt>
<trkpt lat="48.8969703" lon="2.7692833"><ele></ele><time>2025-2-28T5:14:9Z</time></trkpt>
<trkpt lat="48.8967502" lon="2.7692080"><ele></ele><time>2025-2-28T5:14:12Z</time></trkpt>
<trkpt lat="48.8965085" lon="2.7691264"><ele></ele><time>2025-2-28T5:14:15Z</time></trkpt>
<trkpt lat="48.8962935" lon="2.7690625"><ele></ele><time>2025-2-28T5:14:18Z</time></trkpt>
<trkpt lat="48.8960958" lon="2.7690109"><ele></ele><time>2025-2-28T5:14:21Z</time></trkpt>
<trkpt lat="48.8959024" lon="2.7689591"><ele></ele><time>2025-2-28T5:14:24Z</time></trkpt>
<trkpt lat="48.8956700" lon="2.7689459"><ele></ele><time>2025-2-28T5:14:27Z</time></trkpt>
<trkpt lat="48.8954965" lon="2.7688540"><ele></ele><time>2025-2-28T5:14:30Z</time></trkpt>
<trkpt lat="48.8952699" lon="2.7687871"><ele></ele><time>2025-2-28T5:14:33Z</time></trkpt>
<trkpt lat="48.8950594" lon="2.7687554"><ele></ele><time>2025-2-28T5:14:36Z</time></trkpt>
<trkpt lat="48.8948702" lon="2.7687025"><ele></ele><time>2025-2-28T5:14:39Z</time></trkpt>
<trkpt lat="48.8946711" lon="2.7686573"><ele></ele><time>2025-2-28T5:14:42Z</time></trkpt>
<trkpt lat="48.8944716" lon="2.7686122"><ele></ele><time>2025-2-28T5:14:45Z</time></trkpt>
<trkpt lat="48.8942547" lon="2.7685850"><ele></ele><time>2025-2-28T5:14:48Z</time></trkpt>
<trkpt lat="48.8940533" lon="2.7685600"><ele></ele><time>2025-2-28T5:14:51Z</time></trkpt>
<trkpt lat="48.8938466" lon="2.7684756"><ele></ele><time>2025-2-28T5:14:54Z</time></trkpt>
<trkpt lat="48.8936598" lon="2.7684550"><ele></ele><time>2025-2-28T5:14:57Z</time></trkpt>
<trkpt lat="48.8934626" lon="2.7683870"><ele></ele><time>2025-2-28T5:15:0Z</time></trkpt>
<trkpt lat="48.8932544" lon="2.7682849"><ele></ele><time>2025-2-28T5:15:3Z</time></trkpt>
<trkpt lat="48.8930539" lon="2.7682017"><ele></ele><time>2025-2-28T5:15:6Z</time></trkpt>
<trkpt lat="48.8928516" lon="2.7681679"><ele></ele><time>2025-2-28T5:15:9Z</time></trkpt>
<trkpt lat="48.8926545" lon="2.7680660"><ele></ele><time>2025-2-28T5:15:12Z</time></trkpt>
<trkpt lat="48.8924548" lon="2.7679662"><ele></ele><time>2025-2-28T5:15:15Z</time></trkpt>
<trkpt lat="48.8922705" lon="2.7678619"><ele></ele><time>2025-2-28T5:15:18Z</time></trkpt>
<trkpt lat="48.8920693" lon="2.7677826"><ele></ele><time>2025-2-28T5:15:21Z</time></trkpt>
<trkpt lat="48.8918752" lon="2.7676928"><ele></ele><time>2025-2-28T5:15:24Z</time></trkpt>
<trkpt lat="48.8916827" lon="2.7676112"><ele></ele><time>2025-2-28T5:15:27Z</time></trkpt>
<trkpt lat="48.8915182" lon="2.7674756"><ele></ele><time>2025-2-28T5:15:30Z</time></trkpt>
<trkpt lat="48.8913441" lon="2.7672790"><ele></ele><time>2025-2-28T5:15:33Z</time></trkpt>
<trkpt lat="48.8911689" lon="2.7670723"><ele></ele><time>2025-2-28T5:15:36Z</time></trkpt>
<trkpt lat="48.8910248" lon="2.7669028"><ele></ele><time>2025-2-28T5:15:39Z</time></trkpt>
<trkpt lat="48.8908785" lon="2.7666556"><ele></ele><time>2025-2-28T5:15:42Z</time></trkpt>
<trkpt lat="48.8907427" lon="2.7664760"><ele></ele><time>2025-2-28T5:15:45Z</time></trkpt>
<trkpt lat="48.8906002" lon="2.7662249"><ele></ele><time>2025-2-28T5:15:48Z</time></trkpt>
<trkpt lat="48.8904472" lon="2.7660366"><ele></ele><time>2025-2-28T5:15:51Z</time></trkpt>
<trkpt lat="48.8902480" lon="2.7658863"><ele></ele><time>2025-2-28T5:15:54Z</time></trkpt>
<trkpt lat="48.8900517" lon="2.7657206"><ele></ele><time>2025-2-28T5:15:57Z</time></trkpt>
<trkpt lat="48.8898747" lon="2.7655340"><ele></ele><time>2025-2-28T5:16:0Z</time></trkpt>
<trkpt lat="48.8897136" lon="2.7653825"><ele></ele><time>2025-2-28T5:16:3Z</time></trkpt>
<trkpt lat="48.8895449" lon="2.7652614"><ele></ele><time>2025-2-28T5:16:6Z</time></trkpt>
<trkpt lat="48.8893467" lon="2.7651084"><ele></ele><time>2025-2-28T5:16:9Z</time></trkpt>
<trkpt lat="48.8891798" lon="2.7649089"><ele></ele><time>2025-2-28T5:16:12Z</time></trkpt>
<trkpt lat="48.8890069" lon="2.7647664"><ele></ele><time>2025-2-28T5:16:15Z</time></trkpt>
<trkpt lat="48.8888361" lon="2.7645950"><ele></ele><time>2025-2-28T5:16:18Z</time></trkpt>
<trkpt lat="48.8886798" lon="2.7644452"><ele></ele><time>2025-2-28T5:16:21Z</time></trkpt>
<trkpt lat="48.8885447" lon="2.7642468"><ele></ele><time>2025-2-28T5:16:24Z</time></trkpt>
<trkpt lat="48.8884111" lon="2.7640382"><ele></ele><time>2025-2-28T5:16:27Z</time></trkpt>
<trkpt lat="48.8883073" lon="2.7638133"><ele></ele><time>2025-2-28T5:16:30Z</time></trkpt>
<trkpt lat="48.8882123" lon="2.7635652"><ele></ele><time>2025-2-28T5:16:33Z</time></trkpt>
<trkpt lat="48.8881195" lon="2.7632978"><ele></ele><time>2025-2-28T5:16:36Z</time></trkpt>
<trkpt lat="48.8880234" lon="2.7629913"><ele></ele><time>2025-2-28T5:16:39Z</time></trkpt>
<trkpt lat="48.8879076" lon="2.7627307"><ele></ele><time>2025-2-28T5:16:42Z</time></trkpt>
<trkpt lat="48.8877726" lon="2.7625214"><ele></ele><time>2025-2-28T5:16:45Z</time></trkpt>
<trkpt lat="48.8876406" lon="2.7623048"><ele></ele><time>2025-2-28T5:16:48Z</time></trkpt>
<trkpt lat="48.8875479" lon="2.7620261"><ele></ele><time>2025-2-28T5:16:51Z</time></trkpt>
<trkpt lat="48.8874631" lon="2.7617652"><ele></ele><time>2025-2-28T5:16:54Z</time></trkpt>
<trkpt lat="48.8873626" lon="2.7615106"><ele></ele><time>2025-2-28T5:16:57Z</time></trkpt>
<trkpt lat="48.8872055" lon="2.7612807"><ele></ele><time>2025-2-28T5:17:0Z</time></trkpt>
<trkpt lat="48.8870229" lon="2.7610696"><ele></ele><time>2025-2-28T5:17:3Z</time></trkpt>
<trkpt lat="48.8868790" lon="2.7608547"><ele></ele><time>2025-2-28T5:17:6Z</time></trkpt>
<trkpt lat="48.8867235" lon="2.7605911"><ele></ele><time>2025-2-28T5:17:9Z</time></trkpt>
<trkpt lat="48.8865793" lon="2.7604070"><ele></ele><time>2025-2-28T5:17:12Z</time></trkpt>
<trkpt lat="48.8864207" lon="2.7602417"><ele></ele><time>2025-2-28T5:17:15Z</time></trkpt>
<trkpt lat="48.8863102" lon="2.7599840"><ele></ele><time>2025-2-28T5:17:18Z</time></trkpt>
<trkpt lat="48.8862253" lon="2.7596986"><ele></ele><time>2025-2-28T5:17:21Z</time></trkpt>
<trkpt lat="48.8860750" lon="2.7594511"><ele></ele><time>2025-2-28T5:17:24Z</time></trkpt>
<trkpt lat="48.8859409" lon="2.7592240"><ele></ele><time>2025-2-28T5:17:27Z</time></trkpt>
<trkpt lat="48.8858045" lon="2.7589646"><ele></ele><time>2025-2-28T5:17:30Z</time></trkpt>
<trkpt lat="48.8857001" lon="2.7586392"><ele></ele><time>2025-2-28T5:17:33Z</time></trkpt>
<trkpt lat="48.8855248" lon="2.7583684"><ele></ele><time>2025-2-28T5:17:36Z</time></trkpt>
<trkpt lat="48.8854252" lon="2.7580562"><ele></ele><time>2025-2-28T5:17:39Z</time></trkpt>
<trkpt lat="48.8852965" lon="2.7578195"><ele></ele><time>2025-2-28T5:17:42Z</time></trkpt>
<trkpt lat="48.8851992" lon="2.7575539"><ele></ele><time>2025-2-28T5:17:45Z</time></trkpt>
<trkpt lat="48.8849939" lon="2.7572882"><ele></ele><time>2025-2-28T5:17:48Z</time></trkpt>
<trkpt lat="48.8848659" lon="2.7570361"><ele></ele><time>2025-2-28T5:17:51Z</time></trkpt>
<trkpt lat="48.8847105" lon="2.7568109"><ele></ele><time>2025-2-28T5:17:54Z</time></trkpt>
<trkpt lat="48.8845440" lon="2.7566483"><ele></ele><time>2025-2-28T5:17:57Z</time></trkpt>
<trkpt lat="48.8844499" lon="2.7564107"><ele></ele><time>2025-2-28T5:18:0Z</time></trkpt>
<trkpt lat="48.8843561" lon="2.7561467"><ele></ele><time>2025-2-28T5:18:3Z</time></trkpt>
<trkpt lat="48.8842467" lon="2.7559218"><ele></ele><time>2025-2-28T5:18:6Z</time></trkpt>
<trkpt lat="48.8841404" lon="2.7556311"><ele></ele><time>2025-2-28T5:18:9Z</time></trkpt>
<trkpt lat="48.8840149" lon="2.7553597"><ele></ele><time>2025-2-28T5:18:12Z</time></trkpt>
<trkpt lat="48.8839003" lon="2.7551247"><ele></ele><time>2025-2-28T5:18:15Z</time></trkpt>
<trkpt lat="48.8837807" lon="2.7548790"><ele></ele><time>2025-2-28T5:18:18Z</time></trkpt>
<trkpt lat="48.8836842" lon="2.7545496"><ele></ele><time>2025-2-28T5:18:21Z</time></trkpt>
<trkpt lat="48.8835685" lon="2.7543269"><ele></ele><time>2025-2-28T5:18:24Z</time></trkpt>
<trkpt lat="48.8834419" lon="2.7540385"><ele></ele><time>2025-2-28T5:18:27Z</time></trkpt>
<trkpt lat="48.8833177" lon="2.7538080"><ele></ele><time>2025-2-28T5:18:30Z</time></trkpt>
<trkpt lat="48.8832715" lon="2.7535349"><ele></ele><time>2025-2-28T5:18:33Z</time></trkpt>
<trkpt lat="48.8832312" lon="2.7531974"><ele></ele><time>2025-2-28T5:18:36Z</time></trkpt>
<trkpt lat="48.8832565" lon="2.7529236"><ele></ele><time>2025-2-28T5:18:39Z</time></trkpt>
<trkpt lat="48.8832380" lon="2.7525637"><ele></ele><time>2025-2-28T5:18:42Z</time></trkpt>
<trkpt lat="48.8832489" lon="2.7522655"><ele></ele><time>2025-2-28T5:18:45Z</time></trkpt>
<trkpt lat="48.8832257" lon="2.7519385"><ele></ele><time>2025-2-28T5:18:48Z</time></trkpt>
<trkpt lat="48.8832341" lon="2.7516566"><ele></ele><time>2025-2-28T5:18:51Z</time></trkpt>
<trkpt lat="48.8832143" lon="2.7513770"><ele></ele><time>2025-2-28T5:18:54Z</time></trkpt>
<trkpt lat="48.8831944" lon="2.7509945"><ele></ele><time>2025-2-28T5:18:57Z</time></trkpt>
<trkpt lat="48.8831793" lon="2.7507203"><ele></ele><time>2025-2-28T5:19:0Z</time></trkpt>
<trkpt lat="48.8831413" lon="2.7504114"><ele></ele><time>2025-2-28T5:19:3Z</time></trkpt>
<trkpt lat="48.8831359" lon="2.7501199"><ele></ele><time>2025-2-28T5:19:6Z</time></trkpt>
<trkpt lat="48.8831162" lon="2.7498306"><ele></ele><time>2025-2-28T5:19:9Z</time></trkpt>
<trkpt lat="48.8831153" lon="2.7495461"><ele></ele><time>2025-2-28T5:19:12Z</time></trkpt>
<trkpt lat="48.8830894" lon="2.7491571"><ele></ele><time>2025-2-28T5:19:15Z</time></trkpt>
<trkpt lat="48.8830166" lon="2.7488701"><ele></ele><time>2025-2-28T5:19:18Z</time></trkpt>
<trkpt lat="48.8829110" lon="2.7485843"><ele></ele><time>2025-2-28T5:19:21Z</time></trkpt>
<trkpt lat="48.8828667" lon="2.7482911"><ele></ele><time>2025-2-28T5:19:24Z</time></trkpt>
<trkpt lat="48.8827928" lon="2.7480119"><ele></ele><time>2025-2-28T5:19:27Z</time></trkpt>
<trkpt lat="48.8827698" lon="2.7476922"><ele></ele><time>2025-2-28T5:19:30Z</time></trkpt>
<trkpt lat="48.8827408" lon="2.7474208"><ele></ele><time>2025-2-28T5:19:33Z</time></trkpt>
<trkpt lat="48.8827161" lon="2.7470811"><ele></ele><time>2025-2-28T5:19:36Z</time></trkpt>
<trkpt lat="48.8826884" lon="2.7468061"><ele></ele><time>2025-2-28T5:19:39Z</time></trkpt>
<trkpt lat="48.8826583" lon="2.7465181"><ele></ele><time>2025-2-28T5:19:42Z</time></trkpt>
<trkpt lat="48.8826099" lon="2.7461994"><ele></ele><time>2025-2-28T5:19:45Z</time></trkpt>
<trkpt lat="48.8825657" lon="2.7458893"><ele></ele><time>2025-2-28T5:19:48Z</time></trkpt>
<trkpt lat="48.8825300" lon="2.7455689"><ele></ele><time>2025-2-28T5:19:51Z</time></trkpt>
<trkpt lat="48.8824725" lon="2.7452974"><ele></ele><time>2025-2-28T5:19:54Z</time></trkpt>
<trkpt lat="48.8824348" lon="2.7449751"><ele></ele><time>2025-2-28T5:19:57Z</time></trkpt>
<trkpt lat="48.8824154" lon="2.7446990"><ele></ele><time>2025-2-28T5:20:0Z</time></trkpt>
<trkpt lat="48.8825975" lon="2.7447198"><ele></ele><time>2025-2-28T5:20:3Z</time></trkpt>
<trkpt lat="48.8826874" lon="2.7444824"><ele></ele><time>2025-2-28T5:20:6Z</time></trkpt>
<trkpt lat="48.8826502" lon="2.7442147"><ele></ele><time>2025-2-28T5:20:9Z</time></trkpt>
<trkpt lat="48.8825566" lon="2.7439404"><ele></ele><time>2025-2-28T5:20:12Z</time></trkpt>
<trkpt lat="48.8825574" lon="2.7436465"><ele></ele><time>2025-2-28T5:20:15Z</time></trkpt>
<trkpt lat="48.8826140" lon="2.7433767"><ele></ele><time>2025-2-28T5:20:18Z</time></trkpt>
<trkpt lat="48.8826102" lon="2.7430990"><ele></ele><time>2025-2-28T5:20:21Z</time></trkpt>
<trkpt lat="48.8826200" lon="2.7428210"><ele></ele><time>2025-2-28T5:20:24Z</time></trkpt>
<trkpt lat="48.8826088" lon="2.7425353"><ele></ele><time>2025-2-28T5:20:27Z</time></trkpt>
<trkpt lat="48.8825858" lon="2.7422524"><ele></ele><time>2025-2-28T5:20:30Z</time></trkpt>
<trkpt lat="48.8824713" lon="2.7419591"><ele></ele><time>2025-2-28T5:20:33Z</time></trkpt>
<trkpt lat="48.8825618" lon="2.7417005"><ele></ele><time>2025-2-28T5:20:36Z</time></trkpt>
<trkpt lat="48.8825543" lon="2.7413807"><ele></ele><time>2025-2-28T5:20:39Z</time></trkpt>
<trkpt lat="48.8825463" lon="2.7410717"><ele></ele><time>2025-2-28T5:20:42Z</time></trkpt>
<trkpt lat="48.8824924" lon="2.7407737"><ele></ele><time>2025-2-28T5:20:45Z</time></trkpt>
<trkpt lat="48.8824623" lon="2.7404680"><ele></ele><time>2025-2-28T5:20:48Z</time></trkpt>
<trkpt lat="48.8823657" lon="2.7400595"><ele></ele><time>2025-2-28T5:20:51Z</time></trkpt>
<trkpt lat="48.8823635" lon="2.7397401"><ele></ele><time>2025-2-28T5:20:54Z</time></trkpt>
<trkpt lat="48.8823496" lon="2.7394231"><ele></ele><time>2025-2-28T5:20:57Z</time></trkpt>
<trkpt lat="48.8823220" lon="2.7391378"><ele></ele><time>2025-2-28T5:21:0Z</time></trkpt>
<trkpt lat="48.8823335" lon="2.7388623"><ele></ele><time>2025-2-28T5:21:3Z</time></trkpt>
<trkpt lat="48.8823703" lon="2.7385658"><ele></ele><time>2025-2-28T5:21:6Z</time></trkpt>
<trkpt lat="48.8823736" lon="2.7382844"><ele></ele><time>2025-2-28T5:21:9Z</time></trkpt>
<trkpt lat="48.8823887" lon="2.7379952"><ele></ele><time>2025-2-28T5:21:12Z</time></trkpt>
<trkpt lat="48.8823981" lon="2.7376741"><ele></ele><time>2025-2-28T5:21:15Z</time></trkpt>
<trkpt lat="48.8824037" lon="2.7373766"><ele></ele><time>2025-2-28T5:21:18Z</time></trkpt>
<trkpt lat="48.8823882" lon="2.7370868"><ele></ele><time>2025-2-28T5:21:21Z</time></trkpt>
<trkpt lat="48.8823638" lon="2.7368054"><ele></ele><time>2025-2-28T5:21:24Z</time></trkpt>
<trkpt lat="48.8823665" lon="2.7364963"><ele></ele><time>2025-2-28T5:21:27Z</time></trkpt>
<trkpt lat="48.8822949" lon="2.7362447"><ele></ele><time>2025-2-28T5:21:30Z</time></trkpt>
<trkpt lat="48.8822929" lon="2.7359633"><ele></ele><time>2025-2-28T5:21:33Z</time></trkpt>
<trkpt lat="48.8823391" lon="2.7356899"><ele></ele><time>2025-2-28T5:21:36Z</time></trkpt>
<trkpt lat="48.8824178" lon="2.7353830"><ele></ele><time>2025-2-28T5:21:39Z</time></trkpt>
<trkpt lat="48.8823897" lon="2.7351087"><ele></ele><time>2025-2-28T5:21:42Z</time></trkpt>
<trkpt lat="48.8823903" lon="2.7347905"><ele></ele><time>2025-2-28T5:21:45Z</time></trkpt>
<trkpt lat="48.8824053" lon="2.7345141"><ele></ele><time>2025-2-28T5:21:48Z</time></trkpt>
<trkpt lat="48.8824615" lon="2.7342272"><ele></ele><time>2025-2-28T5:21:51Z</time></trkpt>
<trkpt lat="48.8824679" lon="2.7339310"><ele></ele><time>2025-2-28T5:21:54Z</time></trkpt>
<trkpt lat="48.8825961" lon="2.7337232"><ele></ele><time>2025-2-28T5:21:57Z</time></trkpt>
<trkpt lat="48.8826923" lon="2.7334540"><ele></ele><time>2025-2-28T5:22:0Z</time></trkpt>
<trkpt lat="48.8826872" lon="2.7331660"><ele></ele><time>2025-2-28T5:22:3Z</time></trkpt>
<trkpt lat="48.8828718" lon="2.7330987"><ele></ele><time>2025-2-28T5:22:6Z</time></trkpt>
<trkpt lat="48.8829171" lon="2.7327933"><ele></ele><time>2025-2-28T5:22:9Z</time></trkpt>
<trkpt lat="48.8829615" lon="2.7324973"><ele></ele><time>2025-2-28T5:22:12Z</time></trkpt>
<trkpt lat="48.8829608" lon="2.7322001"><ele></ele><time>2025-2-28T5:22:15Z</time></trkpt>
<trkpt lat="48.8829481" lon="2.7318986"><ele></ele><time>2025-2-28T5:22:18Z</time></trkpt>
<trkpt lat="48.8829773" lon="2.7316017"><ele></ele><time>2025-2-28T5:22:21Z</time></trkpt>
<trkpt lat="48.8829999" lon="2.7312653"><ele></ele><time>2025-2-28T5:22:24Z</time></trkpt>
<trkpt lat="48.8830543" lon="2.7309727"><ele></ele><time>2025-2-28T5:22:27Z</time></trkpt>
<trkpt lat="48.8830659" lon="2.7306936"><ele></ele><time>2025-2-28T5:22:30Z</time></trkpt>
<trkpt lat="48.8830273" lon="2.7303728"><ele></ele><time>2025-2-28T5:22:33Z</time></trkpt>
<trkpt lat="48.8830052" lon="2.7300697"><ele></ele><time>2025-2-28T5:22:36Z</time></trkpt>
<trkpt lat="48.8830193" lon="2.7297762"><ele></ele><time>2025-2-28T5:22:39Z</time></trkpt>
<trkpt lat="48.8830401" lon="2.7294670"><ele></ele><time>2025-2-28T5:22:42Z</time></trkpt>
<trkpt lat="48.8830344" lon="2.7291777"><ele></ele><time>2025-2-28T5:22:45Z</time></trkpt>
<trkpt lat="48.8830201" lon="2.7288647"><ele></ele><time>2025-2-28T5:22:48Z</time></trkpt>
<trkpt lat="48.8829695" lon="2.7285825"><ele></ele><time>2025-2-28T5:22:51Z</time></trkpt>
<trkpt lat="48.8829644" lon="2.7281629"><ele></ele><time>2025-2-28T5:22:54Z</time></trkpt>
<trkpt lat="48.8829223" lon="2.7278350"><ele></ele><time>2025-2-28T5:22:57Z</time></trkpt>
<trkpt lat="48.8828894" lon="2.7274948"><ele></ele><time>2025-2-28T5:23:0Z</time></trkpt>
<trkpt lat="48.8828315" lon="2.7272029"><ele></ele><time>2025-2-28T5:23:3Z</time></trkpt>
<trkpt lat="48.8828158" lon="2.7268988"><ele></ele><time>2025-2-28T5:23:6Z</time></trkpt>
<trkpt lat="48.8827808" lon="2.7265868"><ele></ele><time>2025-2-28T5:23:9Z</time></trkpt>
<trkpt lat="48.8827443" lon="2.7262869"><ele></ele><time>2025-2-28T5:23:12Z</time></trkpt>
<trkpt lat="48.8827313" lon="2.7260006"><ele></ele><time>2025-2-28T5:23:15Z</time></trkpt>
<trkpt lat="48.8827129" lon="2.7256763"><ele></ele><time>2025-2-28T5:23:18Z</time></trkpt>
<trkpt lat="48.8827032" lon="2.7253583"><ele></ele><time>2025-2-28T5:23:21Z</time></trkpt>
<trkpt lat="48.8826931" lon="2.7250546"><ele></ele><time>2025-2-28T5:23:24Z</time></trkpt>
<trkpt lat="48.8826890" lon="2.7247294"><ele></ele><time>2025-2-28T5:23:27Z</time></trkpt>
<trkpt lat="48.8826708" lon="2.7243850"><ele></ele><time>2025-2-28T5:23:30Z</time></trkpt>
<trkpt lat="48.8826386" lon="2.7240717"><ele></ele><time>2025-2-28T5:23:33Z</time></trkpt>
<trkpt lat="48.8826259" lon="2.7237809"><ele></ele><time>2025-2-28T5:23:36Z</time></trkpt>
<trkpt lat="48.8825982" lon="2.7234439"><ele></ele><time>2025-2-28T5:23:39Z</time></trkpt>
<trkpt lat="48.8825924" lon="2.7231689"><ele></ele><time>2025-2-28T5:23:42Z</time></trkpt>
<trkpt lat="48.8825146" lon="2.7228948"><ele></ele><time>2025-2-28T5:23:45Z</time></trkpt>
<trkpt lat="48.8823625" lon="2.7226985"><ele></ele><time>2025-2-28T5:23:48Z</time></trkpt>
<trkpt lat="48.8822304" lon="2.7224691"><ele></ele><time>2025-2-28T5:23:51Z</time></trkpt>
<trkpt lat="48.8821076" lon="2.7222302"><ele></ele><time>2025-2-28T5:23:54Z</time></trkpt>
<trkpt lat="48.8819825" lon="2.7220214"><ele></ele><time>2025-2-28T5:23:57Z</time></trkpt>
<trkpt lat="48.8818365" lon="2.7218250"><ele></ele><time>2025-2-28T5:24:0Z</time></trkpt>
<trkpt lat="48.8819373" lon="2.7215791"><ele></ele><time>2025-2-28T5:24:3Z</time></trkpt>
<trkpt lat="48.8821363" lon="2.7215642"><ele></ele><time>2025-2-28T5:24:6Z</time></trkpt>
<trkpt lat="48.8822936" lon="2.7214220"><ele></ele><time>2025-2-28T5:24:9Z</time></trkpt>
<trkpt lat="48.8823062" lon="2.7211409"><ele></ele><time>2025-2-28T5:24:12Z</time></trkpt>
<trkpt lat="48.8822835" lon="2.7208271"><ele></ele><time>2025-2-28T5:24:15Z</time></trkpt>
<trkpt lat="48.8822414" lon="2.7204990"><ele></ele><time>2025-2-28T5:24:18Z</time></trkpt>
<trkpt lat="48.8822104" lon="2.7201817"><ele></ele><time>2025-2-28T5:24:21Z</time></trkpt>
<trkpt lat="48.8821678" lon="2.7198867"><ele></ele><time>2025-2-28T5:24:24Z</time></trkpt>
<trkpt lat="48.8821288" lon="2.7195954"><ele></ele><time>2025-2-28T5:24:27Z</time></trkpt>
<trkpt lat="48.8821045" lon="2.7193213"><ele></ele><time>2025-2-28T5:24:30Z</time></trkpt>
<trkpt lat="48.8820738" lon="2.7190330"><ele></ele><time>2025-2-28T5:24:33Z</time></trkpt>
<trkpt lat="48.8820270" lon="2.7186790"><ele></ele><time>2025-2-28T5:24:36Z</time></trkpt>
<trkpt lat="48.8820047" lon="2.7184041"><ele></ele><time>2025-2-28T5:24:39Z</time></trkpt>
<trkpt lat="48.8819652" lon="2.7181267"><ele></ele><time>2025-2-28T5:24:42Z</time></trkpt>
<trkpt lat="48.8819151" lon="2.7178573"><ele></ele><time>2025-2-28T5:24:45Z</time></trkpt>
<trkpt lat="48.8818569" lon="2.7175195"><ele></ele><time>2025-2-28T5:24:48Z</time></trkpt>
<trkpt lat="48.8817877" lon="2.7172470"><ele></ele><time>2025-2-28T5:24:51Z</time></trkpt>
<trkpt lat="48.8817223" lon="2.7169641"><ele></ele><time>2025-2-28T5:24:54Z</time></trkpt>
<trkpt lat="48.8816583" lon="2.7166847"><ele></ele><time>2025-2-28T5:24:57Z</time></trkpt>
<trkpt lat="48.8816234" lon="2.7164153"><ele></ele><time>2025-2-28T5:25:0Z</time></trkpt>
<trkpt lat="48.8815710" lon="2.7161443"><ele></ele><time>2025-2-28T5:25:3Z</time></trkpt>
<trkpt lat="48.8815122" lon="2.7158856"><ele></ele><time>2025-2-28T5:25:6Z</time></trkpt>
<trkpt lat="48.8814674" lon="2.7155466"><ele></ele><time>2025-2-28T5:25:9Z</time></trkpt>
<trkpt lat="48.8814064" lon="2.7152302"><ele></ele><time>2025-2-28T5:25:12Z</time></trkpt>
<trkpt lat="48.8813559" lon="2.7149097"><ele></ele><time>2025-2-28T5:25:15Z</time></trkpt>
<trkpt lat="48.8812998" lon="2.7146436"><ele></ele><time>2025-2-28T5:25:18Z</time></trkpt>
<trkpt lat="48.8812419" lon="2.7143109"><ele></ele><time>2025-2-28T5:25:21Z</time></trkpt>
<trkpt lat="48.8811948" lon="2.7140266"><ele></ele><time>2025-2-28T5:25:24Z</time></trkpt>
<trkpt lat="48.8811769" lon="2.7137052"><ele></ele><time>2025-2-28T5:25:27Z</time></trkpt>
<trkpt lat="48.8811241" lon="2.7133661"><ele></ele><time>2025-2-28T5:25:30Z</time></trkpt>
<trkpt lat="48.8810687" lon="2.7130499"><ele></ele><time>2025-2-28T5:25:33Z</time></trkpt>
<trkpt lat="48.8810070" lon="2.7127568"><ele></ele><time>2025-2-28T5:25:36Z</time></trkpt>
<trkpt lat="48.8809732" lon="2.7124460"><ele></ele><time>2025-2-28T5:25:39Z</time></trkpt>
<trkpt lat="48.8809422" lon="2.7121103"><ele></ele><time>2025-2-28T5:25:42Z</time></trkpt>
<trkpt lat="48.8809183" lon="2.7117979"><ele></ele><time>2025-2-28T5:25:45Z</time></trkpt>
<trkpt lat="48.8809118" lon="2.7114738"><ele></ele><time>2025-2-28T5:25:48Z</time></trkpt>
<trkpt lat="48.8808852" lon="2.7111477"><ele></ele><time>2025-2-28T5:25:51Z</time></trkpt>
<trkpt lat="48.8808460" lon="2.7108504"><ele></ele><time>2025-2-28T5:25:54Z</time></trkpt>
<trkpt lat="48.8808537" lon="2.7105426"><ele></ele><time>2025-2-28T5:25:57Z</time></trkpt>
<trkpt lat="48.8808734" lon="2.7102442"><ele></ele><time>2025-2-28T5:26:0Z</time></trkpt>
<trkpt lat="48.8808439" lon="2.7099406"><ele></ele><time>2025-2-28T5:26:3Z</time></trkpt>
<trkpt lat="48.8808353" lon="2.7096234"><ele></ele><time>2025-2-28T5:26:6Z</time></trkpt>
<trkpt lat="48.8808063" lon="2.7093389"><ele></ele><time>2025-2-28T5:26:9Z</time></trkpt>
<trkpt lat="48.8807784" lon="2.7090535"><ele></ele><time>2025-2-28T5:26:12Z</time></trkpt>
<trkpt lat="48.8807441" lon="2.7087815"><ele></ele><time>2025-2-28T5:26:15Z</time></trkpt>
<trkpt lat="48.8807164" lon="2.7084552"><ele></ele><time>2025-2-28T5:26:18Z</time></trkpt>
<trkpt lat="48.8807227" lon="2.7081206"><ele></ele><time>2025-2-28T5:26:21Z</time></trkpt>
<trkpt lat="48.8806709" lon="2.7077806"><ele></ele><time>2025-2-28T5:26:24Z</time></trkpt>
<trkpt lat="48.8806288" lon="2.7075052"><ele></ele><time>2025-2-28T5:26:27Z</time></trkpt>
<trkpt lat="48.8805679" lon="2.7072012"><ele></ele><time>2025-2-28T5:26:30Z</time></trkpt>
<trkpt lat="48.8804943" lon="2.7069000"><ele></ele><time>2025-2-28T5:26:33Z</time></trkpt>
<trkpt lat="48.8804192" lon="2.7066230"><ele></ele><time>2025-2-28T5:26:36Z</time></trkpt>
<trkpt lat="48.8803651" lon="2.7063478"><ele></ele><time>2025-2-28T5:26:39Z</time></trkpt>
<trkpt lat="48.8803044" lon="2.7060704"><ele></ele><time>2025-2-28T5:26:42Z</time></trkpt>
<trkpt lat="48.8802845" lon="2.7057507"><ele></ele><time>2025-2-28T5:26:45Z</time></trkpt>
<trkpt lat="48.8802768" lon="2.7054379"><ele></ele><time>2025-2-28T5:26:48Z</time></trkpt>
<trkpt lat="48.8802776" lon="2.7051503"><ele></ele><time>2025-2-28T5:26:51Z</time></trkpt>
<trkpt lat="48.8802675" lon="2.7048750"><ele></ele><time>2025-2-28T5:26:54Z</time></trkpt>
<trkpt lat="48.8804673" lon="2.7047935"><ele></ele><time>2025-2-28T5:26:57Z</time></trkpt>
<trkpt lat="48.8806605" lon="2.7048169"><ele></ele><time>2025-2-28T5:27:0Z</time></trkpt>
<trkpt lat="48.8808557" lon="2.7048235"><ele></ele><time>2025-2-28T5:27:3Z</time></trkpt>
<trkpt lat="48.8810559" lon="2.7047907"><ele></ele><time>2025-2-28T5:27:6Z</time></trkpt>
<trkpt lat="48.8810820" lon="2.7045121"><ele></ele><time>2025-2-28T5:27:9Z</time></trkpt>
<trkpt lat="48.8811771" lon="2.7042225"><ele></ele><time>2025-2-28T5:27:12Z</time></trkpt>
<trkpt lat="48.8811765" lon="2.7039250"><ele></ele><time>2025-2-28T5:27:15Z</time></trkpt>
<trkpt lat="48.8811344" lon="2.7036310"><ele></ele><time>2025-2-28T5:27:18Z</time></trkpt>
<trkpt lat="48.8810949" lon="2.7033608"><ele></ele><time>2025-2-28T5:27:21Z</time></trkpt>
<trkpt lat="48.8810600" lon="2.7030433"><ele></ele><time>2025-2-28T5:27:24Z</time></trkpt>
<trkpt lat="48.8810168" lon="2.7027258"><ele></ele><time>2025-2-28T5:27:27Z</time></trkpt>
<trkpt lat="48.8809839" lon="2.7023926"><ele></ele><time>2025-2-28T5:27:30Z</time></trkpt>
<trkpt lat="48.8809635" lon="2.7020566"><ele></ele><time>2025-2-28T5:27:33Z</time></trkpt>
<trkpt lat="48.8809289" lon="2.7017482"><ele></ele><time>2025-2-28T5:27:36Z</time></trkpt>
<trkpt lat="48.8808826" lon="2.7014599"><ele></ele><time>2025-2-28T5:27:39Z</time></trkpt>
<trkpt lat="48.8808242" lon="2.7011997"><ele></ele><time>2025-2-28T5:27:42Z</time></trkpt>
<trkpt lat="48.8808232" lon="2.7008777"><ele></ele><time>2025-2-28T5:27:45Z</time></trkpt>
<trkpt lat="48.8807981" lon="2.7005586"><ele></ele><time>2025-2-28T5:27:48Z</time></trkpt>
<trkpt lat="48.8807513" lon="2.7002299"><ele></ele><time>2025-2-28T5:27:51Z</time></trkpt>
<trkpt lat="48.8807094" lon="2.6999064"><ele></ele><time>2025-2-28T5:27:54Z</time></trkpt>
<trkpt lat="48.8806651" lon="2.6996227"><ele></ele><time>2025-2-28T5:27:57Z</time></trkpt>
<trkpt lat="48.8806045" lon="2.6993105"><ele></ele><time>2025-2-28T5:28:0Z</time></trkpt>
<trkpt lat="48.8805615" lon="2.6989742"><ele></ele><time>2025-2-28T5:28:3Z</time></trkpt>
<trkpt lat="48.8805201" lon="2.6986215"><ele></ele><time>2025-2-28T5:28:6Z</time></trkpt>
<trkpt lat="48.8804978" lon="2.6982681"><ele></ele><time>2025-2-28T5:28:9Z</time></trkpt>
<trkpt lat="48.8804815" lon="2.6979863"><ele></ele><time>2025-2-28T5:28:12Z</time></trkpt>
<trkpt lat="48.8804694" lon="2.6976969"><ele></ele><time>2025-2-28T5:28:15Z</time></trkpt>
<trkpt lat="48.8804531" lon="2.6974160"><ele></ele><time>2025-2-28T5:28:18Z</time></trkpt>
<trkpt lat="48.8804344" lon="2.6970735"><ele></ele><time>2025-2-28T5:28:21Z</time></trkpt>
<trkpt lat="48.8804298" lon="2.6967502"><ele></ele><time>2025-2-28T5:28:24Z</time></trkpt>
<trkpt lat="48.8804163" lon="2.6964325"><ele></ele><time>2025-2-28T5:28:27Z</time></trkpt>
<trkpt lat="48.8804011" lon="2.6961122"><ele></ele><time>2025-2-28T5:28:30Z</time></trkpt>
<trkpt lat="48.8803885" lon="2.6957934"><ele></ele><time>2025-2-28T5:28:33Z</time></trkpt>
<trkpt lat="48.8803790" lon="2.6954676"><ele></ele><time>2025-2-28T5:28:36Z</time></trkpt>
<trkpt lat="48.8803713" lon="2.6951558"><ele></ele><time>2025-2-28T5:28:39Z</time></trkpt>
<trkpt lat="48.8803650" lon="2.6948342"><ele></ele><time>2025-2-28T5:28:42Z</time></trkpt>
<trkpt lat="48.8803589" lon="2.6945450"><ele></ele><time>2025-2-28T5:28:45Z</time></trkpt>
<trkpt lat="48.8803480" lon="2.6942242"><ele></ele><time>2025-2-28T5:28:48Z</time></trkpt>
<trkpt lat="48.8803561" lon="2.6939438"><ele></ele><time>2025-2-28T5:28:51Z</time></trkpt>
<trkpt lat="48.8803784" lon="2.6936127"><ele></ele><time>2025-2-28T5:28:54Z</time></trkpt>
<trkpt lat="48.8803823" lon="2.6933165"><ele></ele><time>2025-2-28T5:28:57Z</time></trkpt>
<trkpt lat="48.8804111" lon="2.6930428"><ele></ele><time>2025-2-28T5:29:0Z</time></trkpt>
<trkpt lat="48.8804309" lon="2.6927441"><ele></ele><time>2025-2-28T5:29:3Z</time></trkpt>
<trkpt lat="48.8804755" lon="2.6924459"><ele></ele><time>2025-2-28T5:29:6Z</time></trkpt>
<trkpt lat="48.8805225" lon="2.6921765"><ele></ele><time>2025-2-28T5:29:9Z</time></trkpt>
<trkpt lat="48.8805832" lon="2.6918605"><ele></ele><time>2025-2-28T5:29:12Z</time></trkpt>
<trkpt lat="48.8806213" lon="2.6915789"><ele></ele><time>2025-2-28T5:29:15Z</time></trkpt>
<trkpt lat="48.8806308" lon="2.6912810"><ele></ele><time>2025-2-28T5:29:18Z</time></trkpt>
<trkpt lat="48.8806365" lon="2.6909547"><ele></ele><time>2025-2-28T5:29:21Z</time></trkpt>
<trkpt lat="48.8806298" lon="2.6906176"><ele></ele><time>2025-2-28T5:29:24Z</time></trkpt>
<trkpt lat="48.8806185" lon="2.6902903"><ele></ele><time>2025-2-28T5:29:27Z</time></trkpt>
<trkpt lat="48.8806196" lon="2.6899631"><ele></ele><time>2025-2-28T5:29:30Z</time></trkpt>
<trkpt lat="48.8806178" lon="2.6896219"><ele></ele><time>2025-2-28T5:29:33Z</time></trkpt>
<trkpt lat="48.8806069" lon="2.6892922"><ele></ele><time>2025-2-28T5:29:36Z</time></trkpt>
<trkpt lat="48.8805833" lon="2.6889595"><ele></ele><time>2025-2-28T5:29:39Z</time></trkpt>
<trkpt lat="48.8805563" lon="2.6886492"><ele></ele><time>2025-2-28T5:29:42Z</time></trkpt>
<trkpt lat="48.8805111" lon="2.6883211"><ele></ele><time>2025-2-28T5:29:45Z</time></trkpt>
<trkpt lat="48.8804666" lon="2.6880086"><ele></ele><time>2025-2-28T5:29:48Z</time></trkpt>
<trkpt lat="48.8803934" lon="2.6877149"><ele></ele><time>2025-2-28T5:29:51Z</time></trkpt>
<trkpt lat="48.8803432" lon="2.6874244"><ele></ele><time>2025-2-28T5:29:54Z</time></trkpt>
<trkpt lat="48.8802902" lon="2.6871256"><ele></ele><time>2025-2-28T5:29:57Z</time></trkpt>
<trkpt lat="48.8802096" lon="2.6867946"><ele></ele><time>2025-2-28T5:30:0Z</time></trkpt>
<trkpt lat="48.8801527" lon="2.6865347"><ele></ele><time>2025-2-28T5:30:3Z</time></trkpt>
<trkpt lat="48.8800862" lon="2.6862052"><ele></ele><time>2025-2-28T5:30:6Z</time></trkpt>
<trkpt lat="48.8800119" lon="2.6858870"><ele></ele><time>2025-2-28T5:30:9Z</time></trkpt>
<trkpt lat="48.8799480" lon="2.6855543"><ele></ele><time>2025-2-28T5:30:12Z</time></trkpt>
<trkpt lat="48.8798814" lon="2.6852510"><ele></ele><time>2025-2-28T5:30:15Z</time></trkpt>
<trkpt lat="48.8798259" lon="2.6849798"><ele></ele><time>2025-2-28T5:30:18Z</time></trkpt>
<trkpt lat="48.8797663" lon="2.6847138"><ele></ele><time>2025-2-28T5:30:21Z</time></trkpt>
<trkpt lat="48.8797218" lon="2.6844409"><ele></ele><time>2025-2-28T5:30:24Z</time></trkpt>
<trkpt lat="48.8796852" lon="2.6841550"><ele></ele><time>2025-2-28T5:30:27Z</time></trkpt>
<trkpt lat="48.8796287" lon="2.6838860"><ele></ele><time>2025-2-28T5:30:30Z</time></trkpt>
<trkpt lat="48.8795621" lon="2.6835877"><ele></ele><time>2025-2-28T5:30:33Z</time></trkpt>
<trkpt lat="48.8794879" lon="2.6833150"><ele></ele><time>2025-2-28T5:30:36Z</time></trkpt>
<trkpt lat="48.8794372" lon="2.6830132"><ele></ele><time>2025-2-28T5:30:39Z</time></trkpt>
<trkpt lat="48.8793397" lon="2.6827206"><ele></ele><time>2025-2-28T5:30:42Z</time></trkpt>
<trkpt lat="48.8792738" lon="2.6824254"><ele></ele><time>2025-2-28T5:30:45Z</time></trkpt>
<trkpt lat="48.8791919" lon="2.6821512"><ele></ele><time>2025-2-28T5:30:48Z</time></trkpt>
<trkpt lat="48.8791290" lon="2.6818307"><ele></ele><time>2025-2-28T5:30:51Z</time></trkpt>
<trkpt lat="48.8790793" lon="2.6815228"><ele></ele><time>2025-2-28T5:30:54Z</time></trkpt>
<trkpt lat="48.8790053" lon="2.6812121"><ele></ele><time>2025-2-28T5:30:57Z</time></trkpt>
<trkpt lat="48.8789259" lon="2.6808930"><ele></ele><time>2025-2-28T5:31:0Z</time></trkpt>
<trkpt lat="48.8788498" lon="2.6805829"><ele></ele><time>2025-2-28T5:31:3Z</time></trkpt>
<trkpt lat="48.8787825" lon="2.6802848"><ele></ele><time>2025-2-28T5:31:6Z</time></trkpt>
<trkpt lat="48.8787054" lon="2.6799797"><ele></ele><time>2025-2-28T5:31:9Z</time></trkpt>
<trkpt lat="48.8786369" lon="2.6796674"><ele></ele><time>2025-2-28T5:31:12Z</time></trkpt>
<trkpt lat="48.8785484" lon="2.6793530"><ele></ele><time>2025-2-28T5:31:15Z</time></trkpt>
<trkpt lat="48.8784746" lon="2.6790440"><ele></ele><time>2025-2-28T5:31:18Z</time></trkpt>
<trkpt lat="48.8784088" lon="2.6787433"><ele></ele><time>2025-2-28T5:31:21Z</time></trkpt>
<trkpt lat="48.8783326" lon="2.6784595"><ele></ele><time>2025-2-28T5:31:24Z</time></trkpt>
<trkpt lat="48.8782433" lon="2.6781568"><ele></ele><time>2025-2-28T5:31:27Z</time></trkpt>
<trkpt lat="48.8781551" lon="2.6778776"><ele></ele><time>2025-2-28T5:31:30Z</time></trkpt>
<trkpt lat="48.8780563" lon="2.6775978"><ele></ele><time>2025-2-28T5:31:33Z</time></trkpt>
<trkpt lat="48.8779636" lon="2.6772984"><ele></ele><time>2025-2-28T5:31:36Z</time></trkpt>
<trkpt lat="48.8778447" lon="2.6770312"><ele></ele><time>2025-2-28T5:31:39Z</time></trkpt>
<trkpt lat="48.8777300" lon="2.6767723"><ele></ele><time>2025-2-28T5:31:42Z</time></trkpt>
<trkpt lat="48.8776210" lon="2.6764967"><ele></ele><time>2025-2-28T5:31:45Z</time></trkpt>
<trkpt lat="48.8775380" lon="2.6762017"><ele></ele><time>2025-2-28T5:31:48Z</time></trkpt>
<trkpt lat="48.8774618" lon="2.6759071"><ele></ele><time>2025-2-28T5:31:51Z</time></trkpt>
<trkpt lat="48.8773843" lon="2.6756486"><ele></ele><time>2025-2-28T5:31:54Z</time></trkpt>
<trkpt lat="48.8773349" lon="2.6753505"><ele></ele><time>2025-2-28T5:31:57Z</time></trkpt>
<trkpt lat="48.8772718" lon="2.6750235"><ele></ele><time>2025-2-28T5:32:0Z</time></trkpt>
<trkpt lat="48.8771765" lon="2.6747005"><ele></ele><time>2025-2-28T5:32:3Z</time></trkpt>
<trkpt lat="48.8771141" lon="2.6744337"><ele></ele><time>2025-2-28T5:32:6Z</time></trkpt>
<trkpt lat="48.8770584" lon="2.6741607"><ele></ele><time>2025-2-28T5:32:9Z</time></trkpt>
<trkpt lat="48.8769905" lon="2.6738640"><ele></ele><time>2025-2-28T5:32:12Z</time></trkpt>
<trkpt lat="48.8769113" lon="2.6735634"><ele></ele><time>2025-2-28T5:32:15Z</time></trkpt>
<trkpt lat="48.8768649" lon="2.6732438"><ele></ele><time>2025-2-28T5:32:18Z</time></trkpt>
<trkpt lat="48.8767978" lon="2.6729531"><ele></ele><time>2025-2-28T5:32:21Z</time></trkpt>
<trkpt lat="48.8767396" lon="2.6726204"><ele></ele><time>2025-2-28T5:32:24Z</time></trkpt>
<trkpt lat="48.8766937" lon="2.6723128"><ele></ele><time>2025-2-28T5:32:27Z</time></trkpt>
<trkpt lat="48.8766336" lon="2.6720038"><ele></ele><time>2025-2-28T5:32:30Z</time></trkpt>
<trkpt lat="48.8765735" lon="2.6717421"><ele></ele><time>2025-2-28T5:32:33Z</time></trkpt>
<trkpt lat="48.8765056" lon="2.6714470"><ele></ele><time>2025-2-28T5:32:36Z</time></trkpt>
<trkpt lat="48.8764380" lon="2.6711680"><ele></ele><time>2025-2-28T5:32:39Z</time></trkpt>
<trkpt lat="48.8763651" lon="2.6708567"><ele></ele><time>2025-2-28T5:32:42Z</time></trkpt>
<trkpt lat="48.8762759" lon="2.6705243"><ele></ele><time>2025-2-28T5:32:45Z</time></trkpt>
<trkpt lat="48.8761575" lon="2.6701150"><ele></ele><time>2025-2-28T5:32:48Z</time></trkpt>
<trkpt lat="48.8760557" lon="2.6698010"><ele></ele><time>2025-2-28T5:32:51Z</time></trkpt>
<trkpt lat="48.8759533" lon="2.6694911"><ele></ele><time>2025-2-28T5:32:54Z</time></trkpt>
<trkpt lat="48.8758522" lon="2.6692079"><ele></ele><time>2025-2-28T5:32:57Z</time></trkpt>
<trkpt lat="48.8757535" lon="2.6689543"><ele></ele><time>2025-2-28T5:33:0Z</time></trkpt>
<trkpt lat="48.8756128" lon="2.6686342"><ele></ele><time>2025-2-28T5:33:3Z</time></trkpt>
<trkpt lat="48.8754673" lon="2.6683609"><ele></ele><time>2025-2-28T5:33:6Z</time></trkpt>
<trkpt lat="48.8753710" lon="2.6680707"><ele></ele><time>2025-2-28T5:33:9Z</time></trkpt>
<trkpt lat="48.8753018" lon="2.6677804"><ele></ele><time>2025-2-28T5:33:12Z</time></trkpt>
<trkpt lat="48.8752343" lon="2.6674737"><ele></ele><time>2025-2-28T5:33:15Z</time></trkpt>
<trkpt lat="48.8752079" lon="2.6671995"><ele></ele><time>2025-2-28T5:33:18Z</time></trkpt>
<trkpt lat="48.8751817" lon="2.6669088"><ele></ele><time>2025-2-28T5:33:21Z</time></trkpt>
<trkpt lat="48.8751820" lon="2.6666163"><ele></ele><time>2025-2-28T5:33:24Z</time></trkpt>
<trkpt lat="48.8751981" lon="2.6662701"><ele></ele><time>2025-2-28T5:33:27Z</time></trkpt>
<trkpt lat="48.8751993" lon="2.6659362"><ele></ele><time>2025-2-28T5:33:30Z</time></trkpt>
<trkpt lat="48.8752480" lon="2.6656449"><ele></ele><time>2025-2-28T5:33:33Z</time></trkpt>
<trkpt lat="48.8752736" lon="2.6653005"><ele></ele><time>2025-2-28T5:33:36Z</time></trkpt>
<trkpt lat="48.8753147" lon="2.6649704"><ele></ele><time>2025-2-28T5:33:39Z</time></trkpt>
<trkpt lat="48.8753408" lon="2.6646190"><ele></ele><time>2025-2-28T5:33:42Z</time></trkpt>
<trkpt lat="48.8753835" lon="2.6642945"><ele></ele><time>2025-2-28T5:33:45Z</time></trkpt>
<trkpt lat="48.8754081" lon="2.6639679"><ele></ele><time>2025-2-28T5:33:48Z</time></trkpt>
<trkpt lat="48.8754050" lon="2.6636456"><ele></ele><time>2025-2-28T5:33:51Z</time></trkpt>
<trkpt lat="48.8753434" lon="2.6633739"><ele></ele><time>2025-2-28T5:33:54Z</time></trkpt>
<trkpt lat="48.8753328" lon="2.6630411"><ele></ele><time>2025-2-28T5:33:57Z</time></trkpt>
<trkpt lat="48.8753050" lon="2.6626939"><ele></ele><time>2025-2-28T5:34:0Z</time></trkpt>
<trkpt lat="48.8752713" lon="2.6623884"><ele></ele><time>2025-2-28T5:34:3Z</time></trkpt>
<trkpt lat="48.8752318" lon="2.6620444"><ele></ele><time>2025-2-28T5:34:6Z</time></trkpt>
<trkpt lat="48.8751994" lon="2.6617296"><ele></ele><time>2025-2-28T5:34:9Z</time></trkpt>
<trkpt lat="48.8751018" lon="2.6614346"><ele></ele><time>2025-2-28T5:34:12Z</time></trkpt>
<trkpt lat="48.8749850" lon="2.6611544"><ele></ele><time>2025-2-28T5:34:15Z</time></trkpt>
<trkpt lat="48.8748540" lon="2.6609099"><ele></ele><time>2025-2-28T5:34:18Z</time></trkpt>
<trkpt lat="48.8747108" lon="2.6606465"><ele></ele><time>2025-2-28T5:34:21Z</time></trkpt>
<trkpt lat="48.8745423" lon="2.6604329"><ele></ele><time>2025-2-28T5:34:24Z</time></trkpt>
<trkpt lat="48.8743529" lon="2.6602543"><ele></ele><time>2025-2-28T5:34:27Z</time></trkpt>
<trkpt lat="48.8741587" lon="2.6601359"><ele></ele><time>2025-2-28T5:34:30Z</time></trkpt>
<trkpt lat="48.8739696" lon="2.6600022"><ele></ele><time>2025-2-28T5:34:33Z</time></trkpt>
<trkpt lat="48.8737750" lon="2.6598394"><ele></ele><time>2025-2-28T5:34:36Z</time></trkpt>
<trkpt lat="48.8735752" lon="2.6596428"><ele></ele><time>2025-2-28T5:34:39Z</time></trkpt>
<trkpt lat="48.8734044" lon="2.6594424"><ele></ele><time>2025-2-28T5:34:42Z</time></trkpt>
<trkpt lat="48.8732825" lon="2.6591698"><ele></ele><time>2025-2-28T5:34:45Z</time></trkpt>
<trkpt lat="48.8731630" lon="2.6588691"><ele></ele><time>2025-2-28T5:34:48Z</time></trkpt>
<trkpt lat="48.8730560" lon="2.6585573"><ele></ele><time>2025-2-28T5:34:51Z</time></trkpt>
<trkpt lat="48.8729160" lon="2.6582590"><ele></ele><time>2025-2-28T5:34:54Z</time></trkpt>
<trkpt lat="48.8727886" lon="2.6580068"><ele></ele><time>2025-2-28T5:34:57Z</time></trkpt>
<trkpt lat="48.8726751" lon="2.6577417"><ele></ele><time>2025-2-28T5:35:0Z</time></trkpt>
<trkpt lat="48.8725583" lon="2.6574785"><ele></ele><time>2025-2-28T5:35:3Z</time></trkpt>
<trkpt lat="48.8724530" lon="2.6571803"><ele></ele><time>2025-2-28T5:35:6Z</time></trkpt>
<trkpt lat="48.8723839" lon="2.6569221"><ele></ele><time>2025-2-28T5:35:9Z</time></trkpt>
<trkpt lat="48.8722972" lon="2.6566785"><ele></ele><time>2025-2-28T5:35:12Z</time></trkpt>
<trkpt lat="48.8721980" lon="2.6563782"><ele></ele><time>2025-2-28T5:35:15Z</time></trkpt>
<trkpt lat="48.8721013" lon="2.6560884"><ele></ele><time>2025-2-28T5:35:18Z</time></trkpt>
<trkpt lat="48.8720011" lon="2.6557882"><ele></ele><time>2025-2-28T5:35:21Z</time></trkpt>
<trkpt lat="48.8718963" lon="2.6555155"><ele></ele><time>2025-2-28T5:35:24Z</time></trkpt>
<trkpt lat="48.8717596" lon="2.6552736"><ele></ele><time>2025-2-28T5:35:27Z</time></trkpt>
<trkpt lat="48.8716403" lon="2.6550396"><ele></ele><time>2025-2-28T5:35:30Z</time></trkpt>
<trkpt lat="48.8715191" lon="2.6547980"><ele></ele><time>2025-2-28T5:35:33Z</time></trkpt>
<trkpt lat="48.8713896" lon="2.6545531"><ele></ele><time>2025-2-28T5:35:36Z</time></trkpt>
<trkpt lat="48.8712359" lon="2.6543540"><ele></ele><time>2025-2-28T5:35:39Z</time></trkpt>
<trkpt lat="48.8710899" lon="2.6540977"><ele></ele><time>2025-2-28T5:35:42Z</time></trkpt>
<trkpt lat="48.8709799" lon="2.6538398"><ele></ele><time>2025-2-28T5:35:45Z</time></trkpt>
<trkpt lat="48.8709623" lon="2.6535273"><ele></ele><time>2025-2-28T5:35:48Z</time></trkpt>
<trkpt lat="48.8709977" lon="2.6532253"><ele></ele><time>2025-2-28T5:35:51Z</time></trkpt>
<trkpt lat="48.8708748" lon="2.6529653"><ele></ele><time>2025-2-28T5:35:54Z</time></trkpt>
<trkpt lat="48.8706622" lon="2.6529512"><ele></ele><time>2025-2-28T5:35:57Z</time></trkpt>
<trkpt lat="48.8704373" lon="2.6528874"><ele></ele><time>2025-2-28T5:36:0Z</time></trkpt>
<trkpt lat="48.8702404" lon="2.6527175"><ele></ele><time>2025-2-28T5:36:3Z</time></trkpt>
<trkpt lat="48.8700717" lon="2.6525176"><ele></ele><time>2025-2-28T5:36:6Z</time></trkpt>
<trkpt lat="48.8698977" lon="2.6523148"><ele></ele><time>2025-2-28T5:36:9Z</time></trkpt>
<trkpt lat="48.8697298" lon="2.6521115"><ele></ele><time>2025-2-28T5:36:12Z</time></trkpt>
<trkpt lat="48.8695421" lon="2.6518978"><ele></ele><time>2025-2-28T5:36:15Z</time></trkpt>
<trkpt lat="48.8693684" lon="2.6516631"><ele></ele><time>2025-2-28T5:36:18Z</time></trkpt>
<trkpt lat="48.8692153" lon="2.6514217"><ele></ele><time>2025-2-28T5:36:21Z</time></trkpt>
<trkpt lat="48.8690456" lon="2.6511897"><ele></ele><time>2025-2-28T5:36:24Z</time></trkpt>
<trkpt lat="48.8689210" lon="2.6509009"><ele></ele><time>2025-2-28T5:36:27Z</time></trkpt>
<trkpt lat="48.8688117" lon="2.6506369"><ele></ele><time>2025-2-28T5:36:30Z</time></trkpt>
<trkpt lat="48.8687092" lon="2.6503826"><ele></ele><time>2025-2-28T5:36:33Z</time></trkpt>
<trkpt lat="48.8686087" lon="2.6501484"><ele></ele><time>2025-2-28T5:36:36Z</time></trkpt>
<trkpt lat="48.8685309" lon="2.6498960"><ele></ele><time>2025-2-28T5:36:39Z</time></trkpt>
<trkpt lat="48.8686924" lon="2.6496841"><ele></ele><time>2025-2-28T5:36:42Z</time></trkpt>
<trkpt lat="48.8688614" lon="2.6495245"><ele></ele><time>2025-2-28T5:36:45Z</time></trkpt>
<trkpt lat="48.8690523" lon="2.6493822"><ele></ele><time>2025-2-28T5:36:48Z</time></trkpt>
<trkpt lat="48.8692475" lon="2.6492782"><ele></ele><time>2025-2-28T5:36:51Z</time></trkpt>
<trkpt lat="48.8694185" lon="2.6491327"><ele></ele><time>2025-2-28T5:36:54Z</time></trkpt>
<trkpt lat="48.8695700" lon="2.6489337"><ele></ele><time>2025-2-28T5:36:57Z</time></trkpt>
<trkpt lat="48.8696776" lon="2.6487121"><ele></ele><time>2025-2-28T5:37:0Z</time></trkpt>
<trkpt lat="48.8697742" lon="2.6484656"><ele></ele><time>2025-2-28T5:37:3Z</time></trkpt>
<trkpt lat="48.8698718" lon="2.6481885"><ele></ele><time>2025-2-28T5:37:6Z</time></trkpt>
<trkpt lat="48.8699906" lon="2.6479152"><ele></ele><time>2025-2-28T5:37:9Z</time></trkpt>
<trkpt lat="48.8701015" lon="2.6476541"><ele></ele><time>2025-2-28T5:37:12Z</time></trkpt>
<trkpt lat="48.8702634" lon="2.6475115"><ele></ele><time>2025-2-28T5:37:15Z</time></trkpt>
<trkpt lat="48.8704301" lon="2.6476366"><ele></ele><time>2025-2-28T5:37:18Z</time></trkpt>
<trkpt lat="48.8706198" lon="2.6477847"><ele></ele><time>2025-2-28T5:37:21Z</time></trkpt>
<trkpt lat="48.8707956" lon="2.6477238"><ele></ele><time>2025-2-28T5:37:24Z</time></trkpt>
<trkpt lat="48.8709410" lon="2.6475378"><ele></ele><time>2025-2-28T5:37:27Z</time></trkpt>
<trkpt lat="48.8710725" lon="2.6473337"><ele></ele><time>2025-2-28T5:37:30Z</time></trkpt>
<trkpt lat="48.8711916" lon="2.6471267"><ele></ele><time>2025-2-28T5:37:33Z</time></trkpt>
<trkpt lat="48.8712872" lon="2.6468947"><ele></ele><time>2025-2-28T5:37:36Z</time></trkpt>
<trkpt lat="48.8714043" lon="2.6466147"><ele></ele><time>2025-2-28T5:37:39Z</time></trkpt>
<trkpt lat="48.8715322" lon="2.6463460"><ele></ele><time>2025-2-28T5:37:42Z</time></trkpt>
<trkpt lat="48.8717577" lon="2.6463132"><ele></ele><time>2025-2-28T5:37:45Z</time></trkpt>
<trkpt lat="48.8719635" lon="2.6464147"><ele></ele><time>2025-2-28T5:37:48Z</time></trkpt>
<trkpt lat="48.8721734" lon="2.6464337"><ele></ele><time>2025-2-28T5:37:51Z</time></trkpt>
<trkpt lat="48.8723746" lon="2.6463764"><ele></ele><time>2025-2-28T5:37:54Z</time></trkpt>
<trkpt lat="48.8725825" lon="2.6464063"><ele></ele><time>2025-2-28T5:37:57Z</time></trkpt>
<trkpt lat="48.8728055" lon="2.6464619"><ele></ele><time>2025-2-28T5:38:0Z</time></trkpt>
<trkpt lat="48.8729828" lon="2.6465418"><ele></ele><time>2025-2-28T5:38:3Z</time></trkpt>
<trkpt lat="48.8731600" lon="2.6466057"><ele></ele><time>2025-2-28T5:38:6Z</time></trkpt>
<trkpt lat="48.8733324" lon="2.6466933"><ele></ele><time>2025-2-28T5:38:9Z</time></trkpt>
<trkpt lat="48.8735345" lon="2.6468026"><ele></ele><time>2025-2-28T5:38:12Z</time></trkpt>
<trkpt lat="48.8737303" lon="2.6469231"><ele></ele><time>2025-2-28T5:38:15Z</time></trkpt>
<trkpt lat="48.8739218" lon="2.6470597"><ele></ele><time>2025-2-28T5:38:18Z</time></trkpt>
<trkpt lat="48.8740319" lon="2.6473106"><ele></ele><time>2025-2-28T5:38:21Z</time></trkpt>
<trkpt lat="48.8741530" lon="2.6475474"><ele></ele><time>2025-2-28T5:38:24Z</time></trkpt>
<trkpt lat="48.8743418" lon="2.6475920"><ele></ele><time>2025-2-28T5:38:27Z</time></trkpt>
<trkpt lat="48.8745232" lon="2.6476380"><ele></ele><time>2025-2-28T5:38:30Z</time></trkpt>
<trkpt lat="48.8747334" lon="2.6477276"><ele></ele><time>2025-2-28T5:38:33Z</time></trkpt>
<trkpt lat="48.8748847" lon="2.6478795"><ele></ele><time>2025-2-28T5:38:36Z</time></trkpt>
<trkpt lat="48.8750367" lon="2.6480315"><ele></ele><time>2025-2-28T5:38:39Z</time></trkpt>
<trkpt lat="48.8752057" lon="2.6481783"><ele></ele><time>2025-2-28T5:38:42Z</time></trkpt>
<trkpt lat="48.8753716" lon="2.6483113"><ele></ele><time>2025-2-28T5:38:45Z</time></trkpt>
<trkpt lat="48.8755661" lon="2.6484470"><ele></ele><time>2025-2-28T5:38:48Z</time></trkpt>
<trkpt lat="48.8757442" lon="2.6485694"><ele></ele><time>2025-2-28T5:38:51Z</time></trkpt>
<trkpt lat="48.8759307" lon="2.6486907"><ele></ele><time>2025-2-28T5:38:54Z</time></trkpt>
<trkpt lat="48.8760998" lon="2.6488075"><ele></ele><time>2025-2-28T5:38:57Z</time></trkpt>
<trkpt lat="48.8763051" lon="2.6489415"><ele></ele><time>2025-2-28T5:39:0Z</time></trkpt>
<trkpt lat="48.8764760" lon="2.6490373"><ele></ele><time>2025-2-28T5:39:3Z</time></trkpt>
<trkpt lat="48.8766762" lon="2.6490968"><ele></ele><time>2025-2-28T5:39:6Z</time></trkpt>
<trkpt lat="48.8768709" lon="2.6491483"><ele></ele><time>2025-2-28T5:39:9Z</time></trkpt>
<trkpt lat="48.8769122" lon="2.6488319"><ele></ele><time>2025-2-28T5:39:12Z</time></trkpt>
<trkpt lat="48.8769037" lon="2.6484947"><ele></ele><time>2025-2-28T5:39:15Z</time></trkpt>
<trkpt lat="48.8770322" lon="2.6482405"><ele></ele><time>2025-2-28T5:39:18Z</time></trkpt>
<trkpt lat="48.8772218" lon="2.6481244"><ele></ele><time>2025-2-28T5:39:21Z</time></trkpt>
<trkpt lat="48.8773646" lon="2.6479322"><ele></ele><time>2025-2-28T5:39:24Z</time></trkpt>
<trkpt lat="48.8775445" lon="2.6479161"><ele></ele><time>2025-2-28T5:39:27Z</time></trkpt>
<trkpt lat="48.8777295" lon="2.6479369"><ele></ele><time>2025-2-28T5:39:30Z</time></trkpt>
<trkpt lat="48.8779060" lon="2.6480047"><ele></ele><time>2025-2-28T5:39:33Z</time></trkpt>
<trkpt lat="48.8780871" lon="2.6481602"><ele></ele><time>2025-2-28T5:39:36Z</time></trkpt>
<trkpt lat="48.8782801" lon="2.6481724"><ele></ele><time>2025-2-28T5:39:39Z</time></trkpt>
<trkpt lat="48.8784243" lon="2.6483415"><ele></ele><time>2025-2-28T5:39:42Z</time></trkpt>
<trkpt lat="48.8786235" lon="2.6484602"><ele></ele><time>2025-2-28T5:39:45Z</time></trkpt>
<trkpt lat="48.8788172" lon="2.6485231"><ele></ele><time>2025-2-28T5:39:48Z</time></trkpt>
<trkpt lat="48.8790007" lon="2.6486271"><ele></ele><time>2025-2-28T5:39:51Z</time></trkpt>
<trkpt lat="48.8792000" lon="2.6487156"><ele></ele><time>2025-2-28T5:39:54Z</time></trkpt>
<trkpt lat="48.8792746" lon="2.6484209"><ele></ele><time>2025-2-28T5:39:57Z</time></trkpt>
<trkpt lat="48.8794250" lon="2.6481881"><ele></ele><time>2025-2-28T5:40:0Z</time></trkpt>
<trkpt lat="48.8796371" lon="2.6482420"><ele></ele><time>2025-2-28T5:40:3Z</time></trkpt>
<trkpt lat="48.8798126" lon="2.6483234"><ele></ele><time>2025-2-28T5:40:6Z</time></trkpt>
<trkpt lat="48.8800133" lon="2.6483848"><ele></ele><time>2025-2-28T5:40:9Z</time></trkpt>
<trkpt lat="48.8802269" lon="2.6484484"><ele></ele><time>2025-2-28T5:40:12Z</time></trkpt>
<trkpt lat="48.8804470" lon="2.6485762"><ele></ele><time>2025-2-28T5:40:15Z</time></trkpt>
<trkpt lat="48.8806700" lon="2.6486985"><ele></ele><time>2025-2-28T5:40:18Z</time></trkpt>
<trkpt lat="48.8808903" lon="2.6487709"><ele></ele><time>2025-2-28T5:40:21Z</time></trkpt>
<trkpt lat="48.8811020" lon="2.6488128"><ele></ele><time>2025-2-28T5:40:24Z</time></trkpt>
<trkpt lat="48.8812990" lon="2.6489115"><ele></ele><time>2025-2-28T5:40:27Z</time></trkpt>
<trkpt lat="48.8814415" lon="2.6491187"><ele></ele><time>2025-2-28T5:40:30Z</time></trkpt>
<trkpt lat="48.8815187" lon="2.6493739"><ele></ele><time>2025-2-28T5:40:33Z</time></trkpt>
<trkpt lat="48.8816875" lon="2.6495379"><ele></ele><time>2025-2-28T5:40:36Z</time></trkpt>
<trkpt lat="48.8817667" lon="2.6498340"><ele></ele><time>2025-2-28T5:40:39Z</time></trkpt>
<trkpt lat="48.8818952" lon="2.6500410"><ele></ele><time>2025-2-28T5:40:42Z</time></trkpt>
<trkpt lat="48.8819866" lon="2.6502780"><ele></ele><time>2025-2-28T5:40:45Z</time></trkpt>
<trkpt lat="48.8820268" lon="2.6505541"><ele></ele><time>2025-2-28T5:40:48Z</time></trkpt>
<trkpt lat="48.8819938" lon="2.6508374"><ele></ele><time>2025-2-28T5:40:51Z</time></trkpt>
<trkpt lat="48.8820892" lon="2.6510757"><ele></ele><time>2025-2-28T5:40:54Z</time></trkpt>
<trkpt lat="48.8822811" lon="2.6511484"><ele></ele><time>2025-2-28T5:40:57Z</time></trkpt>
<trkpt lat="48.8824922" lon="2.6512473"><ele></ele><time>2025-2-28T5:41:0Z</time></trkpt>
<trkpt lat="48.8826634" lon="2.6513491"><ele></ele><time>2025-2-28T5:41:3Z</time></trkpt>
<trkpt lat="48.8827755" lon="2.6516212"><ele></ele><time>2025-2-28T5:41:6Z</time></trkpt>
<trkpt lat="48.8827964" lon="2.6519470"><ele></ele><time>2025-2-28T5:41:9Z</time></trkpt>
<trkpt lat="48.8827248" lon="2.6522305"><ele></ele><time>2025-2-28T5:41:12Z</time></trkpt>
<trkpt lat="48.8826198" lon="2.6525550"><ele></ele><time>2025-2-28T5:41:15Z</time></trkpt>
<trkpt lat="48.8825354" lon="2.6528596"><ele></ele><time>2025-2-28T5:41:18Z</time></trkpt>
<trkpt lat="48.8824410" lon="2.6531742"><ele></ele><time>2025-2-28T5:41:21Z</time></trkpt>
<trkpt lat="48.8824479" lon="2.6534766"><ele></ele><time>2025-2-28T5:41:24Z</time></trkpt>
<trkpt lat="48.8825415" lon="2.6537272"><ele></ele><time>2025-2-28T5:41:27Z</time></trkpt>
<trkpt lat="48.8826470" lon="2.6540006"><ele></ele><time>2025-2-28T5:41:30Z</time></trkpt>
<trkpt lat="48.8827361" lon="2.6542912"><ele></ele><time>2025-2-28T5:41:33Z</time></trkpt>
<trkpt lat="48.8828260" lon="2.6545730"><ele></ele><time>2025-2-28T5:41:36Z</time></trkpt>
<trkpt lat="48.8829268" lon="2.6548214"><ele></ele><time>2025-2-28T5:41:39Z</time></trkpt>
<trkpt lat="48.8829980" lon="2.6550895"><ele></ele><time>2025-2-28T5:41:42Z</time></trkpt>
<trkpt lat="48.8830670" lon="2.6553794"><ele></ele><time>2025-2-28T5:41:45Z</time></trkpt>
<trkpt lat="48.8831123" lon="2.6556978"><ele></ele><time>2025-2-28T5:41:48Z</time></trkpt>
<trkpt lat="48.8831651" lon="2.6559762"><ele></ele><time>2025-2-28T5:41:51Z</time></trkpt>
<trkpt lat="48.8832128" lon="2.6562923"><ele></ele><time>2025-2-28T5:41:54Z</time></trkpt>
<trkpt lat="48.8832461" lon="2.6565975"><ele></ele><time>2025-2-28T5:41:57Z</time></trkpt>
<trkpt lat="48.8832918" lon="2.6569121"><ele></ele><time>2025-2-28T5:42:0Z</time></trkpt>
<trkpt lat="48.8833315" lon="2.6572434"><ele></ele><time>2025-2-28T5:42:3Z</time></trkpt>
<trkpt lat="48.8834603" lon="2.6574876"><ele></ele><time>2025-2-28T5:42:6Z</time></trkpt>
<trkpt lat="48.8836501" lon="2.6575353"><ele></ele><time>2025-2-28T5:42:9Z</time></trkpt>
<trkpt lat="48.8838571" lon="2.6575930"><ele></ele><time>2025-2-28T5:42:12Z</time></trkpt>
<trkpt lat="48.8840567" lon="2.6576414"><ele></ele><time>2025-2-28T5:42:15Z</time></trkpt>
<trkpt lat="48.8842357" lon="2.6576744"><ele></ele><time>2025-2-28T5:42:18Z</time></trkpt>
<trkpt lat="48.8844208" lon="2.6577201"><ele></ele><time>2025-2-28T5:42:21Z</time></trkpt>
<trkpt lat="48.8846334" lon="2.6578029"><ele></ele><time>2025-2-28T5:42:24Z</time></trkpt>
<trkpt lat="48.8848379" lon="2.6578364"><ele></ele><time>2025-2-28T5:42:27Z</time></trkpt>
<trkpt lat="48.8850283" lon="2.6578782"><ele></ele><time>2025-2-28T5:42:30Z</time></trkpt>
<trkpt lat="48.8852271" lon="2.6580199"><ele></ele><time>2025-2-28T5:42:33Z</time></trkpt>
<trkpt lat="48.8853742" lon="2.6581973"><ele></ele><time>2025-2-28T5:42:36Z</time></trkpt>
<trkpt lat="48.8855801" lon="2.6582974"><ele></ele><time>2025-2-28T5:42:39Z</time></trkpt>
<trkpt lat="48.8857680" lon="2.6583478"><ele></ele><time>2025-2-28T5:42:42Z</time></trkpt>
<trkpt lat="48.8859765" lon="2.6583721"><ele></ele><time>2025-2-28T5:42:45Z</time></trkpt>
<trkpt lat="48.8861733" lon="2.6584192"><ele></ele><time>2025-2-28T5:42:48Z</time></trkpt>
<trkpt lat="48.8863662" lon="2.6584417"><ele></ele><time>2025-2-28T5:42:51Z</time></trkpt>
<trkpt lat="48.8865659" lon="2.6585012"><ele></ele><time>2025-2-28T5:42:54Z</time></trkpt>
<trkpt lat="48.8867682" lon="2.6585363"><ele></ele><time>2025-2-28T5:42:57Z</time></trkpt>
<trkpt lat="48.8869576" lon="2.6585665"><ele></ele><time>2025-2-28T5:43:0Z</time></trkpt>
<trkpt lat="48.8871654" lon="2.6585720"><ele></ele><time>2025-2-28T5:43:3Z</time></trkpt>
<trkpt lat="48.8873594" lon="2.6586141"><ele></ele><time>2025-2-28T5:43:6Z</time></trkpt>
<trkpt lat="48.8875720" lon="2.6586502"><ele></ele><time>2025-2-28T5:43:9Z</time></trkpt>
<trkpt lat="48.8877591" lon="2.6586731"><ele></ele><time>2025-2-28T5:43:12Z</time></trkpt>
<trkpt lat="48.8879453" lon="2.6587264"><ele></ele><time>2025-2-28T5:43:15Z</time></trkpt>
<trkpt lat="48.8881433" lon="2.6587582"><ele></ele><time>2025-2-28T5:43:18Z</time></trkpt>
<trkpt lat="48.8883579" lon="2.6587981"><ele></ele><time>2025-2-28T5:43:21Z</time></trkpt>
<trkpt lat="48.8885744" lon="2.6588380"><ele></ele><time>2025-2-28T5:43:24Z</time></trkpt>
<trkpt lat="48.8887568" lon="2.6588689"><ele></ele><time>2025-2-28T5:43:27Z</time></trkpt>
<trkpt lat="48.8889765" lon="2.6589022"><ele></ele><time>2025-2-28T5:43:30Z</time></trkpt>
<trkpt lat="48.8891626" lon="2.6589537"><ele></ele><time>2025-2-28T5:43:33Z</time></trkpt>
<trkpt lat="48.8893566" lon="2.6590110"><ele></ele><time>2025-2-28T5:43:36Z</time></trkpt>
<trkpt lat="48.8895640" lon="2.6590674"><ele></ele><time>2025-2-28T5:43:39Z</time></trkpt>
<trkpt lat="48.8897682" lon="2.6591357"><ele></ele><time>2025-2-28T5:43:42Z</time></trkpt>
<trkpt lat="48.8899581" lon="2.6592010"><ele></ele><time>2025-2-28T5:43:45Z</time></trkpt>
<trkpt lat="48.8901664" lon="2.6592854"><ele></ele><time>2025-2-28T5:43:48Z</time></trkpt>
<trkpt lat="48.8903744" lon="2.6593100"><ele></ele><time>2025-2-28T5:43:51Z</time></trkpt>
<trkpt lat="48.8905707" lon="2.6593748"><ele></ele><time>2025-2-28T5:43:54Z</time></trkpt>
<trkpt lat="48.8907841" lon="2.6594149"><ele></ele><time>2025-2-28T5:43:57Z</time></trkpt>
<trkpt lat="48.8909968" lon="2.6594670"><ele></ele><time>2025-2-28T5:44:0Z</time></trkpt>
<trkpt lat="48.8911952" lon="2.6594914"><ele></ele><time>2025-2-28T5:44:3Z</time></trkpt>
<trkpt lat="48.8914300" lon="2.6595433"><ele></ele><time>2025-2-28T5:44:6Z</time></trkpt>
<trkpt lat="48.8916287" lon="2.6595821"><ele></ele><time>2025-2-28T5:44:9Z</time></trkpt>
<trkpt lat="48.8918502" lon="2.6596237"><ele></ele><time>2025-2-28T5:44:12Z</time></trkpt>
<trkpt lat="48.8920749" lon="2.6596764"><ele></ele><time>2025-2-28T5:44:15Z</time></trkpt>
<trkpt lat="48.8922934" lon="2.6597121"><ele></ele><time>2025-2-28T5:44:18Z</time></trkpt>
<trkpt lat="48.8925127" lon="2.6597556"><ele></ele><time>2025-2-28T5:44:21Z</time></trkpt>
<trkpt lat="48.8927278" lon="2.6598043"><ele></ele><time>2025-2-28T5:44:24Z</time></trkpt>
<trkpt lat="48.8929281" lon="2.6598333"><ele></ele><time>2025-2-28T5:44:27Z</time></trkpt>
<trkpt lat="48.8931364" lon="2.6598510"><ele></ele><time>2025-2-28T5:44:30Z</time></trkpt>
<trkpt lat="48.8933286" lon="2.6598231"><ele></ele><time>2025-2-28T5:44:33Z</time></trkpt>
<trkpt lat="48.8935259" lon="2.6598488"><ele></ele><time>2025-2-28T5:44:36Z</time></trkpt>
<trkpt lat="48.8937357" lon="2.6598569"><ele></ele><time>2025-2-28T5:44:39Z</time></trkpt>
<trkpt lat="48.8939536" lon="2.6598864"><ele></ele><time>2025-2-28T5:44:42Z</time></trkpt>
<trkpt lat="48.8941604" lon="2.6599262"><ele></ele><time>2025-2-28T5:44:45Z</time></trkpt>
<trkpt lat="48.8943908" lon="2.6599478"><ele></ele><time>2025-2-28T5:44:48Z</time></trkpt>
<trkpt lat="48.8945874" lon="2.6599765"><ele></ele><time>2025-2-28T5:44:51Z</time></trkpt>
<trkpt lat="48.8947821" lon="2.6599702"><ele></ele><time>2025-2-28T5:44:54Z</time></trkpt>
<trkpt lat="48.8949637" lon="2.6599847"><ele></ele><time>2025-2-28T5:44:57Z</time></trkpt>
<trkpt lat="48.8951528" lon="2.6599968"><ele></ele><time>2025-2-28T5:45:0Z</time></trkpt>
<trkpt lat="48.8953556" lon="2.6600036"><ele></ele><time>2025-2-28T5:45:3Z</time></trkpt>
<trkpt lat="48.8955538" lon="2.6600175"><ele></ele><time>2025-2-28T5:45:6Z</time></trkpt>
<trkpt lat="48.8957397" lon="2.6600386"><ele></ele><time>2025-2-28T5:45:9Z</time></trkpt>
<trkpt lat="48.8959411" lon="2.6600365"><ele></ele><time>2025-2-28T5:45:12Z</time></trkpt>
<trkpt lat="48.8961425" lon="2.6599606"><ele></ele><time>2025-2-28T5:45:15Z</time></trkpt>
<trkpt lat="48.8963071" lon="2.6597975"><ele></ele><time>2025-2-28T5:45:18Z</time></trkpt>
<trkpt lat="48.8964374" lon="2.6595822"><ele></ele><time>2025-2-28T5:45:21Z</time></trkpt>
<trkpt lat="48.8965726" lon="2.6593782"><ele></ele><time>2025-2-28T5:45:24Z</time></trkpt>
<trkpt lat="48.8967266" lon="2.6591567"><ele></ele><time>2025-2-28T5:45:27Z</time></trkpt>
<trkpt lat="48.8969246" lon="2.6590328"><ele></ele><time>2025-2-28T5:45:30Z</time></trkpt>
<trkpt lat="48.8971262" lon="2.6590452"><ele></ele><time>2025-2-28T5:45:33Z</time></trkpt>
<trkpt lat="48.8973323" lon="2.6590541"><ele></ele><time>2025-2-28T5:45:36Z</time></trkpt>
<trkpt lat="48.8975283" lon="2.6589550"><ele></ele><time>2025-2-28T5:45:39Z</time></trkpt>
<trkpt lat="48.8976774" lon="2.6587249"><ele></ele><time>2025-2-28T5:45:42Z</time></trkpt>
<trkpt lat="48.8977889" lon="2.6585049"><ele></ele><time>2025-2-28T5:45:45Z</time></trkpt>
<trkpt lat="48.8979320" lon="2.6581980"><ele></ele><time>2025-2-28T5:45:48Z</time></trkpt>
<trkpt lat="48.8980751" lon="2.6579068"><ele></ele><time>2025-2-28T5:45:51Z</time></trkpt>
<trkpt lat="48.8981870" lon="2.6576713"><ele></ele><time>2025-2-28T5:45:54Z</time></trkpt>
<trkpt lat="48.8982993" lon="2.6574465"><ele></ele><time>2025-2-28T5:45:57Z</time></trkpt>
<trkpt lat="48.8984034" lon="2.6572202"><ele></ele><time>2025-2-28T5:46:0Z</time></trkpt>
<trkpt lat="48.8985329" lon="2.6569277"><ele></ele><time>2025-2-28T5:46:3Z</time></trkpt>
<trkpt lat="48.8986630" lon="2.6566430"><ele></ele><time>2025-2-28T5:46:6Z</time></trkpt>
<trkpt lat="48.8987897" lon="2.6563560"><ele></ele><time>2025-2-28T5:46:9Z</time></trkpt>
<trkpt lat="48.8988939" lon="2.6560471"><ele></ele><time>2025-2-28T5:46:12Z</time></trkpt>
<trkpt lat="48.8990018" lon="2.6557307"><ele></ele><time>2025-2-28T5:46:15Z</time></trkpt>
<trkpt lat="48.8990920" lon="2.6554083"><ele></ele><time>2025-2-28T5:46:18Z</time></trkpt>
<trkpt lat="48.8991793" lon="2.6551567"><ele></ele><time>2025-2-28T5:46:21Z</time></trkpt>
<trkpt lat="48.8993115" lon="2.6548531"><ele></ele><time>2025-2-28T5:46:24Z</time></trkpt>
<trkpt lat="48.8994147" lon="2.6546211"><ele></ele><time>2025-2-28T5:46:27Z</time></trkpt>
<trkpt lat="48.8995228" lon="2.6543826"><ele></ele><time>2025-2-28T5:46:30Z</time></trkpt>
<trkpt lat="48.8996264" lon="2.6541521"><ele></ele><time>2025-2-28T5:46:33Z</time></trkpt>
<trkpt lat="48.8997274" lon="2.6539172"><ele></ele><time>2025-2-28T5:46:36Z</time></trkpt>
<trkpt lat="48.8998582" lon="2.6536200"><ele></ele><time>2025-2-28T5:46:39Z</time></trkpt>
<trkpt lat="48.8999896" lon="2.6533470"><ele></ele><time>2025-2-28T5:46:42Z</time></trkpt>
<trkpt lat="48.9001068" lon="2.6530777"><ele></ele><time>2025-2-28T5:46:45Z</time></trkpt>
<trkpt lat="48.9002445" lon="2.6528156"><ele></ele><time>2025-2-28T5:46:48Z</time></trkpt>
<trkpt lat="48.9003958" lon="2.6525524"><ele></ele><time>2025-2-28T5:46:51Z</time></trkpt>
<trkpt lat="48.9005376" lon="2.6522877"><ele></ele><time>2025-2-28T5:46:54Z</time></trkpt>
<trkpt lat="48.9006653" lon="2.6520361"><ele></ele><time>2025-2-28T5:46:57Z</time></trkpt>
<trkpt lat="48.9007890" lon="2.6517621"><ele></ele><time>2025-2-28T5:47:0Z</time></trkpt>
<trkpt lat="48.9008977" lon="2.6514842"><ele></ele><time>2025-2-28T5:47:3Z</time></trkpt>
<trkpt lat="48.9010052" lon="2.6512296"><ele></ele><time>2025-2-28T5:47:6Z</time></trkpt>
<trkpt lat="48.9011325" lon="2.6509497"><ele></ele><time>2025-2-28T5:47:9Z</time></trkpt>
<trkpt lat="48.9012363" lon="2.6506877"><ele></ele><time>2025-2-28T5:47:12Z</time></trkpt>
<trkpt lat="48.9013309" lon="2.6504433"><ele></ele><time>2025-2-28T5:47:15Z</time></trkpt>
<trkpt lat="48.9014226" lon="2.6501855"><ele></ele><time>2025-2-28T5:47:18Z</time></trkpt>
<trkpt lat="48.9015410" lon="2.6499169"><ele></ele><time>2025-2-28T5:47:21Z</time></trkpt>
<trkpt lat="48.9016523" lon="2.6496441"><ele></ele><time>2025-2-28T5:47:24Z</time></trkpt>
<trkpt lat="48.9017443" lon="2.6494007"><ele></ele><time>2025-2-28T5:47:27Z</time></trkpt>
<trkpt lat="48.9017736" lon="2.6491112"><ele></ele><time>2025-2-28T5:47:30Z</time></trkpt>
<trkpt lat="48.9015986" lon="2.6489213"><ele></ele><time>2025-2-28T5:47:33Z</time></trkpt>
<trkpt lat="48.9014171" lon="2.6488166"><ele></ele><time>2025-2-28T5:47:36Z</time></trkpt>
<trkpt lat="48.9012725" lon="2.6486049"><ele></ele><time>2025-2-28T5:47:39Z</time></trkpt>
<trkpt lat="48.9010577" lon="2.6484348"><ele></ele><time>2025-2-28T5:47:42Z</time></trkpt>
<trkpt lat="48.9008756" lon="2.6483284"><ele></ele><time>2025-2-28T5:47:45Z</time></trkpt>
<trkpt lat="48.9006848" lon="2.6482536"><ele></ele><time>2025-2-28T5:47:48Z</time></trkpt>
<trkpt lat="48.9004968" lon="2.6482017"><ele></ele><time>2025-2-28T5:47:51Z</time></trkpt>
<trkpt lat="48.9002253" lon="2.6481696"><ele></ele><time>2025-2-28T5:47:54Z</time></trkpt>
<trkpt lat="48.9000312" lon="2.6481396"><ele></ele><time>2025-2-28T5:47:57Z</time></trkpt>
<trkpt lat="48.8997973" lon="2.6481530"><ele></ele><time>2025-2-28T5:48:0Z</time></trkpt>
<trkpt lat="48.8995672" lon="2.6481297"><ele></ele><time>2025-2-28T5:48:3Z</time></trkpt>
<trkpt lat="48.8993365" lon="2.6480772"><ele></ele><time>2025-2-28T5:48:6Z</time></trkpt>
<trkpt lat="48.8991469" lon="2.6479140"><ele></ele><time>2025-2-28T5:48:9Z</time></trkpt>
<trkpt lat="48.8989615" lon="2.6477241"><ele></ele><time>2025-2-28T5:48:12Z</time></trkpt>
<trkpt lat="48.8988012" lon="2.6475304"><ele></ele><time>2025-2-28T5:48:15Z</time></trkpt>
<trkpt lat="48.8986345" lon="2.6473621"><ele></ele><time>2025-2-28T5:48:18Z</time></trkpt>
<trkpt lat="48.8984890" lon="2.6471947"><ele></ele><time>2025-2-28T5:48:21Z</time></trkpt>
<trkpt lat="48.8983258" lon="2.6470353"><ele></ele><time>2025-2-28T5:48:24Z</time></trkpt>
<trkpt lat="48.8981511" lon="2.6468598"><ele></ele><time>2025-2-28T5:48:27Z</time></trkpt>
<trkpt lat="48.8979493" lon="2.6466762"><ele></ele><time>2025-2-28T5:48:30Z</time></trkpt>
<trkpt lat="48.8977879" lon="2.6464520"><ele></ele><time>2025-2-28T5:48:33Z</time></trkpt>
<trkpt lat="48.8976104" lon="2.6462582"><ele></ele><time>2025-2-28T5:48:36Z</time></trkpt>
<trkpt lat="48.8975987" lon="2.6459591"><ele></ele><time>2025-2-28T5:48:39Z</time></trkpt>
<trkpt lat="48.8975025" lon="2.6457048"><ele></ele><time>2025-2-28T5:48:42Z</time></trkpt>
<trkpt lat="48.8974559" lon="2.6454042"><ele></ele><time>2025-2-28T5:48:45Z</time></trkpt>
<trkpt lat="48.8974313" lon="2.6451286"><ele></ele><time>2025-2-28T5:48:48Z</time></trkpt>
<trkpt lat="48.8973659" lon="2.6448724"><ele></ele><time>2025-2-28T5:48:51Z</time></trkpt>
<trkpt lat="48.8972280" lon="2.6446731"><ele></ele><time>2025-2-28T5:48:54Z</time></trkpt>
<trkpt lat="48.8971353" lon="2.6444363"><ele></ele><time>2025-2-28T5:48:57Z</time></trkpt>
<trkpt lat="48.8970253" lon="2.6441802"><ele></ele><time>2025-2-28T5:49:0Z</time></trkpt>
<trkpt lat="48.8968258" lon="2.6440673"><ele></ele><time>2025-2-28T5:49:3Z</time></trkpt>
<trkpt lat="48.8967240" lon="2.6438210"><ele></ele><time>2025-2-28T5:49:6Z</time></trkpt>
<trkpt lat="48.8966485" lon="2.6435072"><ele></ele><time>2025-2-28T5:49:9Z</time></trkpt>
<trkpt lat="48.8965988" lon="2.6432154"><ele></ele><time>2025-2-28T5:49:12Z</time></trkpt>
<trkpt lat="48.8965399" lon="2.6429193"><ele></ele><time>2025-2-28T5:49:15Z</time></trkpt>
<trkpt lat="48.8963946" lon="2.6426510"><ele></ele><time>2025-2-28T5:49:18Z</time></trkpt>
<trkpt lat="48.8962268" lon="2.6424355"><ele></ele><time>2025-2-28T5:49:21Z</time></trkpt>
<trkpt lat="48.8961156" lon="2.6421264"><ele></ele><time>2025-2-28T5:49:24Z</time></trkpt>
<trkpt lat="48.8960045" lon="2.6418897"><ele></ele><time>2025-2-28T5:49:27Z</time></trkpt>
<trkpt lat="48.8958692" lon="2.6416476"><ele></ele><time>2025-2-28T5:49:30Z</time></trkpt>
<trkpt lat="48.8957204" lon="2.6414390"><ele></ele><time>2025-2-28T5:49:33Z</time></trkpt>
<trkpt lat="48.8955734" lon="2.6412226"><ele></ele><time>2025-2-28T5:49:36Z</time></trkpt>
<trkpt lat="48.8954262" lon="2.6410160"><ele></ele><time>2025-2-28T5:49:39Z</time></trkpt>
<trkpt lat="48.8952876" lon="2.6407753"><ele></ele><time>2025-2-28T5:49:42Z</time></trkpt>
<trkpt lat="48.8951690" lon="2.6405153"><ele></ele><time>2025-2-28T5:49:45Z</time></trkpt>
<trkpt lat="48.8950591" lon="2.6402887"><ele></ele><time>2025-2-28T5:49:48Z</time></trkpt>
<trkpt lat="48.8949212" lon="2.6400835"><ele></ele><time>2025-2-28T5:49:51Z</time></trkpt>
<trkpt lat="48.8948105" lon="2.6398111"><ele></ele><time>2025-2-28T5:49:54Z</time></trkpt>
<trkpt lat="48.8946790" lon="2.6396001"><ele></ele><time>2025-2-28T5:49:57Z</time></trkpt>
<trkpt lat="48.8945271" lon="2.6392786"><ele></ele><time>2025-2-28T5:50:0Z</time></trkpt>
<trkpt lat="48.8943988" lon="2.6390169"><ele></ele><time>2025-2-28T5:50:3Z</time></trkpt>
<trkpt lat="48.8942785" lon="2.6387847"><ele></ele><time>2025-2-28T5:50:6Z</time></trkpt>
<trkpt lat="48.8941062" lon="2.6386146"><ele></ele><time>2025-2-28T5:50:9Z</time></trkpt>
<trkpt lat="48.8939003" lon="2.6385649"><ele></ele><time>2025-2-28T5:50:12Z</time></trkpt>
<trkpt lat="48.8936910" lon="2.6385978"><ele></ele><time>2025-2-28T5:50:15Z</time></trkpt>
<trkpt lat="48.8934866" lon="2.6386147"><ele></ele><time>2025-2-28T5:50:18Z</time></trkpt>
<trkpt lat="48.8933285" lon="2.6384144"><ele></ele><time>2025-2-28T5:50:21Z</time></trkpt>
<trkpt lat="48.8932053" lon="2.6381889"><ele></ele><time>2025-2-28T5:50:24Z</time></trkpt>
<trkpt lat="48.8931123" lon="2.6379183"><ele></ele><time>2025-2-28T5:50:27Z</time></trkpt>
<trkpt lat="48.8930202" lon="2.6376829"><ele></ele><time>2025-2-28T5:50:30Z</time></trkpt>
<trkpt lat="48.8929442" lon="2.6374107"><ele></ele><time>2025-2-28T5:50:33Z</time></trkpt>
<trkpt lat="48.8928052" lon="2.6372361"><ele></ele><time>2025-2-28T5:50:36Z</time></trkpt>
<trkpt lat="48.8926964" lon="2.6369541"><ele></ele><time>2025-2-28T5:50:39Z</time></trkpt>
<trkpt lat="48.8925708" lon="2.6367371"><ele></ele><time>2025-2-28T5:50:42Z</time></trkpt>
<trkpt lat="48.8924931" lon="2.6364370"><ele></ele><time>2025-2-28T5:50:45Z</time></trkpt>
<trkpt lat="48.8923755" lon="2.6362161"><ele></ele><time>2025-2-28T5:50:48Z</time></trkpt>
<trkpt lat="48.8922902" lon="2.6359300"><ele></ele><time>2025-2-28T5:50:51Z</time></trkpt>
<trkpt lat="48.8921366" lon="2.6356750"><ele></ele><time>2025-2-28T5:50:54Z</time></trkpt>
<trkpt lat="48.8920112" lon="2.6353968"><ele></ele><time>2025-2-28T5:50:57Z</time></trkpt>
<trkpt lat="48.8919188" lon="2.6351224"><ele></ele><time>2025-2-28T5:51:0Z</time></trkpt>
<trkpt lat="48.8918314" lon="2.6348486"><ele></ele><time>2025-2-28T5:51:3Z</time></trkpt>
<trkpt lat="48.8917163" lon="2.6346137"><ele></ele><time>2025-2-28T5:51:6Z</time></trkpt>
<trkpt lat="48.8915803" lon="2.6343554"><ele></ele><time>2025-2-28T5:51:9Z</time></trkpt>
<trkpt lat="48.8914734" lon="2.6340942"><ele></ele><time>2025-2-28T5:51:12Z</time></trkpt>
<trkpt lat="48.8912855" lon="2.6337826"><ele></ele><time>2025-2-28T5:51:15Z</time></trkpt>
<trkpt lat="48.8911705" lon="2.6335503"><ele></ele><time>2025-2-28T5:51:18Z</time></trkpt>
<trkpt lat="48.8910294" lon="2.6333488"><ele></ele><time>2025-2-28T5:51:21Z</time></trkpt>
<trkpt lat="48.8908745" lon="2.6331605"><ele></ele><time>2025-2-28T5:51:24Z</time></trkpt>
<trkpt lat="48.8908011" lon="2.6328547"><ele></ele><time>2025-2-28T5:51:27Z</time></trkpt>
<trkpt lat="48.8907635" lon="2.6325683"><ele></ele><time>2025-2-28T5:51:30Z</time></trkpt>
<trkpt lat="48.8906535" lon="2.6323250"><ele></ele><time>2025-2-28T5:51:33Z</time></trkpt>
<trkpt lat="48.8905504" lon="2.6320725"><ele></ele><time>2025-2-28T5:51:36Z</time></trkpt>
<trkpt lat="48.8904297" lon="2.6318554"><ele></ele><time>2025-2-28T5:51:39Z</time></trkpt>
<trkpt lat="48.8903028" lon="2.6316112"><ele></ele><time>2025-2-28T5:51:42Z</time></trkpt>
<trkpt lat="48.8901688" lon="2.6313482"><ele></ele><time>2025-2-28T5:51:45Z</time></trkpt>
<trkpt lat="48.8900366" lon="2.6310938"><ele></ele><time>2025-2-28T5:51:48Z</time></trkpt>
<trkpt lat="48.8898917" lon="2.6308105"><ele></ele><time>2025-2-28T5:51:51Z</time></trkpt>
<trkpt lat="48.8897449" lon="2.6305532"><ele></ele><time>2025-2-28T5:51:54Z</time></trkpt>
<trkpt lat="48.8896128" lon="2.6303484"><ele></ele><time>2025-2-28T5:51:57Z</time></trkpt>
<trkpt lat="48.8894681" lon="2.6300795"><ele></ele><time>2025-2-28T5:52:0Z</time></trkpt>
<trkpt lat="48.8893685" lon="2.6298052"><ele></ele><time>2025-2-28T5:52:3Z</time></trkpt>
<trkpt lat="48.8892330" lon="2.6295529"><ele></ele><time>2025-2-28T5:52:6Z</time></trkpt>
<trkpt lat="48.8891098" lon="2.6292989"><ele></ele><time>2025-2-28T5:52:9Z</time></trkpt>
<trkpt lat="48.8889852" lon="2.6290712"><ele></ele><time>2025-2-28T5:52:12Z</time></trkpt>
<trkpt lat="48.8888469" lon="2.6288203"><ele></ele><time>2025-2-28T5:52:15Z</time></trkpt>
<trkpt lat="48.8887017" lon="2.6285634"><ele></ele><time>2025-2-28T5:52:18Z</time></trkpt>
<trkpt lat="48.8885570" lon="2.6283037"><ele></ele><time>2025-2-28T5:52:21Z</time></trkpt>
<trkpt lat="48.8884066" lon="2.6280365"><ele></ele><time>2025-2-28T5:52:24Z</time></trkpt>
<trkpt lat="48.8882640" lon="2.6277667"><ele></ele><time>2025-2-28T5:52:27Z</time></trkpt>
<trkpt lat="48.8881185" lon="2.6274774"><ele></ele><time>2025-2-28T5:52:30Z</time></trkpt>
<trkpt lat="48.8879969" lon="2.6272640"><ele></ele><time>2025-2-28T5:52:33Z</time></trkpt>
<trkpt lat="48.8878355" lon="2.6270068"><ele></ele><time>2025-2-28T5:52:36Z</time></trkpt>
<trkpt lat="48.8876709" lon="2.6268613"><ele></ele><time>2025-2-28T5:52:39Z</time></trkpt>
<trkpt lat="48.8874933" lon="2.6270421"><ele></ele><time>2025-2-28T5:52:42Z</time></trkpt>
<trkpt lat="48.8873423" lon="2.6272435"><ele></ele><time>2025-2-28T5:52:45Z</time></trkpt>
<trkpt lat="48.8871862" lon="2.6274052"><ele></ele><time>2025-2-28T5:52:48Z</time></trkpt>
<trkpt lat="48.8870412" lon="2.6275729"><ele></ele><time>2025-2-28T5:52:51Z</time></trkpt>
<trkpt lat="48.8868777" lon="2.6277501"><ele></ele><time>2025-2-28T5:52:54Z</time></trkpt>
<trkpt lat="48.8867031" lon="2.6279239"><ele></ele><time>2025-2-28T5:52:57Z</time></trkpt>
<trkpt lat="48.8865357" lon="2.6278088"><ele></ele><time>2025-2-28T5:53:0Z</time></trkpt>
</trkseg></trk></gpx>